GFSGBSN_925_thetae_000.txt.gz
Theta_e
316 314 315 315 315 314 312 313 316 316 316 315 314 314 313 314 313 313 313 313 313 312 311 311 311 309 312 317 317 317 317 318 315 315 313 312 313 314 316 314 310 310 310 310 307 307 306
315 314 313 314 315 314 311 312 314 314 315 314 314 313 313 313 312 313 313 313 312 311 311 310 309 310 311 317 316 317 316 316 317 314 313 312 313 313 314 310 312 310 308 309 309 307 307
315 314 314 314 315 313 311 312 314 314 314 313 313 313 313 311 313 313 314 313 312 311 310 309 309 311 315 316 316 316 316 314 315 316 313 313 313 313 312 310 309 308 310 309 310 312 311
315 314 313 314 315 312 310 313 314 314 314 313 313 313 313 312 313 313 313 312 310 310 309 308 309 311 318 315 315 316 316 313 314 314 314 315 315 313 311 310 309 310 308 309 311 313 311
315 314 313 313 313 312 310 313 314 314 313 313 313 313 314 313 313 312 311 310 309 309 308 309 311 313 316 314 317 316 315 314 314 314 314 313 312 311 309 309 309 308 311 313 314 312 313
316 315 314 312 313 311 311 313 314 314 313 313 313 313 314 313 312 312 310 309 311 309 310 312 313 315 314 315 316 315 315 315 315 314 314 313 310 310 309 308 311 310 312 312 313 313 312
316 315 314 312 313 310 311 313 314 314 313 313 313 314 314 312 313 310 308 310 310 312 313 310 313 313 317 316 315 313 315 316 314 313 315 312 312 312 313 311 310 312 313 312 312 312 315
316 316 314 312 313 310 311 313 314 314 314 313 314 315 314 313 312 310 311 313 316 318 321 316 316 315 316 317 314 314 317 316 315 315 314 313 314 314 315 315 315 314 314 315 315 315 316
316 316 315 312 312 310 312 313 314 313 314 314 313 315 314 313 312 310 312 315 321 321 318 314 316 316 316 315 314 316 316 316 315 315 314 314 315 315 316 316 318 318 316 316 317 317 316
317 316 314 312 312 310 312 313 314 313 314 314 312 314 314 313 312 314 314 317 327 320 311 315 315 314 316 314 315 315 315 315 314 313 314 317 316 316 315 317 317 320 317 315 317 318 321
318 317 314 312 312 310 311 313 314 313 314 313 313 315 315 314 316 321 324 327 326 315 313 313 315 316 314 317 314 316 315 314 315 315 315 318 318 317 316 317 318 320 316 315 315 314 314
318 317 314 312 311 310 311 314 314 313 314 313 313 315 315 313 316 323 328 324 316 316 314 315 315 316 316 316 316 315 315 314 314 315 315 316 315 316 317 317 316 316 318 317 316 316 318
317 317 313 313 310 310 311 314 313 313 314 313 313 317 314 316 325 329 323 311 313 317 316 315 316 316 316 317 317 315 315 315 316 318 318 316 316 314 316 319 315 316 317 320 321 317 320
316 317 313 313 309 310 311 314 313 313 314 313 313 316 317 325 329 325 315 310 319 318 316 314 316 316 318 318 317 316 315 316 315 316 316 318 316 316 314 317 317 316 317 319 322 318 320
316 317 313 312 309 309 312 313 313 313 314 313 313 315 319 325 327 320 311 310 317 317 315 316 317 318 319 318 317 316 316 315 316 315 320 318 318 315 315 315 317 316 315 313 315 312 316
317 315 313 310 309 308 312 313 313 313 314 313 317 318 322 326 320 316 312 316 322 320 318 317 318 317 319 319 319 318 319 318 318 316 314 317 316 315 315 316 314 316 313 314 311 316 317
318 314 312 309 308 309 312 313 313 314 313 314 321 311 317 326 313 309 310 316 322 320 318 317 317 318 318 318 318 320 319 319 319 319 316 314 314 314 315 316 316 316 315 312 312 310 312
317 313 309 308 308 310 312 312 313 314 313 318 309 311 326 316 310 309 312 320 321 318 317 320 318 317 317 320 322 321 320 320 316 319 317 314 313 313 316 314 315 315 315 309 308 312 308
315 311 308 307 309 310 311 312 314 314 314 321 312 321 323 312 308 304 312 320 320 318 319 320 321 320 320 321 322 322 321 317 312 317 316 313 313 315 316 313 313 316 315 311 308 307 314
312 308 307 308 309 310 311 312 315 314 315 319 316 320 316 309 307 310 314 317 320 318 320 319 320 319 320 322 320 322 322 318 313 315 315 313 312 312 314 314 311 314 316 312 311 308 310
309 307 307 308 308 309 311 313 316 314 317 320 311 315 316 313 313 312 313 319 320 321 319 317 320 320 320 323 322 322 320 317 315 315 315 311 314 313 313 312 313 312 312 314 312 311 312
307 307 307 307 308 310 311 315 316 315 317 318 318 313 307 310 315 319 316 318 320 320 320 320 319 320 320 318 318 320 317 314 313 317 315 308 310 309 317 312 311 313 311 310 312 312 311
307 307 306 307 308 309 311 315 315 315 318 314 317 314 311 307 311 317 315 321 320 318 319 318 318 317 319 320 316 313 312 311 314 316 311 306 306 304 304 307 306 306 309 309 309 309 310
306 306 306 307 308 310 312 315 315 316 318 318 320 316 312 307 307 313 317 319 319 318 319 319 317 316 316 311 310 309 309 312 313 312 308 304 303 299 304 301 304 308 307 309 311 312 311
306 306 307 308 309 311 314 315 316 316 318 322 322 318 312 305 308 316 318 319 318 317 320 320 318 313 310 308 310 313 308 309 308 311 307 304 301 303 304 303 304 307 313 313 313 311 311
307 307 308 309 311 313 314 315 315 316 317 320 321 323 313 312 313 315 318 317 312 314 312 319 316 310 306 300 304 309 313 313 314 318 309 305 299 302 297 301 301 305 308 310 310 312 310
307 308 308 310 311 313 315 317 315 315 316 319 322 323 316 315 316 315 316 317 312 312 311 316 317 316 306 299 300 305 308 309 313 312 308 305 302 299 295 298 303 303 310 310 313 311 310
308 308 308 309 311 313 314 317 319 316 316 319 321 324 317 315 317 319 316 314 314 313 314 314 313 310 303 306 303 303 302 308 309 310 311 311 306 304 300 299 307 305 310 311 310 307 309
308 308 308 308 309 311 313 315 320 320 319 318 322 320 318 314 315 317 317 317 317 313 313 310 314 312 309 306 297 304 308 308 302 310 308 311 307 306 305 306 305 305 308 308 307 307 308

GFSGBSN_925_thetae_003.txt.gz
Theta_e
318 316 317 314 314 314 314 314 312 312 314 314 314 314 313 314 313 312 313 312 312 311 311 310 309 310 310 316 318 316 316 313 312 313 312 312 314 315 318 316 311 311 310 309 307 310 314
319 316 317 315 314 313 314 314 312 311 315 314 314 313 312 313 312 312 312 312 312 311 309 308 309 309 310 317 315 316 316 316 314 313 312 312 313 314 316 313 314 311 310 310 308 308 308
319 317 317 315 314 313 314 314 312 311 313 314 314 313 312 312 312 312 312 312 311 310 308 308 309 309 312 317 316 316 316 315 316 314 313 312 312 315 314 310 309 310 312 311 311 312 312
321 317 316 315 314 313 313 314 311 311 313 313 314 313 312 313 312 312 311 311 310 308 307 308 309 310 317 314 315 315 315 314 314 315 314 313 313 313 311 310 311 312 312 314 312 313 311
323 318 316 316 314 313 313 313 310 312 313 313 313 313 313 312 312 311 310 309 308 307 307 308 310 310 320 314 315 315 314 313 311 312 312 311 312 312 311 313 314 312 314 313 314 314 314
321 321 316 316 314 313 312 312 310 312 313 313 313 313 313 313 311 311 308 307 308 308 309 309 311 314 314 316 317 313 313 314 314 312 313 313 311 314 312 313 315 315 314 313 315 314 317
317 322 317 316 315 314 312 312 310 312 313 314 313 313 313 313 311 309 307 308 311 312 311 315 315 313 314 316 312 313 314 314 314 315 316 313 316 315 314 311 311 312 313 314 313 316 320
312 320 320 316 315 314 312 312 310 312 314 314 313 313 314 313 312 308 309 311 313 316 321 315 316 315 315 315 313 313 316 316 316 316 314 316 316 313 315 315 315 316 317 318 317 316 320
308 315 320 317 316 315 312 312 310 312 314 314 313 313 314 312 310 307 308 314 318 320 320 314 316 315 315 315 313 314 315 314 315 315 314 317 315 315 316 317 319 318 318 317 319 319 318
306 309 319 319 316 315 313 311 310 312 314 314 314 312 314 311 309 311 311 316 320 319 315 315 314 314 314 313 315 313 314 315 314 314 315 318 315 315 316 318 318 321 315 319 319 320 322
308 306 315 320 316 315 312 311 310 312 314 313 314 312 314 310 313 314 321 327 325 313 319 314 314 315 313 314 314 315 313 314 315 315 316 318 316 316 318 317 317 320 317 318 316 317 318
308 307 308 319 318 316 313 311 311 312 314 313 313 312 313 311 313 321 323 323 315 321 319 314 315 315 316 315 316 314 316 314 313 316 316 316 314 315 316 315 315 317 319 319 318 320 324
306 307 307 317 319 316 313 311 311 312 314 313 313 312 312 313 317 326 326 311 319 321 315 315 315 315 316 317 317 315 315 317 319 321 320 317 316 314 315 318 316 318 321 326 326 327 324
305 306 307 315 318 316 313 311 311 313 314 313 313 312 312 315 320 322 311 314 316 316 316 313 314 315 318 317 317 315 316 318 315 316 318 318 320 315 315 317 318 317 321 327 326 326 323
304 307 308 312 318 316 313 310 311 313 313 312 312 312 314 317 318 318 313 315 315 314 314 315 316 318 319 317 317 317 315 316 315 315 321 320 318 314 314 314 316 316 318 316 319 314 320
303 308 307 310 317 316 313 310 310 313 313 312 312 313 316 324 327 312 315 314 316 316 317 314 316 317 319 318 319 318 318 317 317 316 315 318 318 314 314 314 314 316 313 319 317 323 321
302 307 307 311 316 315 312 310 311 313 312 312 317 317 315 326 314 314 317 313 319 319 317 316 317 318 318 319 318 319 319 319 318 317 315 314 318 317 315 317 318 316 316 314 314 315 317
302 307 306 314 316 314 310 309 312 313 312 313 310 314 322 314 313 310 314 315 318 320 316 319 315 316 317 319 321 321 321 319 316 318 319 314 317 320 316 314 314 314 315 313 317 313 312
305 305 306 314 316 313 310 309 312 312 312 316 311 320 319 310 312 309 311 318 320 317 317 319 320 319 319 322 322 321 321 316 313 316 318 315 318 321 318 314 314 316 314 311 311 312 315
305 302 305 312 316 310 308 311 312 312 314 317 317 323 319 309 307 311 313 315 317 316 318 318 319 319 321 322 320 322 321 317 313 316 314 314 314 317 320 315 313 316 316 312 314 317 314
303 302 307 313 312 308 309 312 312 312 314 315 312 317 319 317 311 310 310 314 318 320 318 317 320 319 321 323 322 321 320 316 316 315 315 314 317 314 313 312 312 311 314 313 313 313 318
304 306 310 313 309 308 311 312 312 313 314 314 314 315 308 313 313 311 310 319 319 319 319 319 321 320 319 321 320 322 319 315 315 317 314 310 315 311 316 312 311 314 311 312 313 313 311
306 306 312 309 308 309 310 311 312 315 315 314 315 311 313 306 313 314 314 315 319 319 319 318 318 319 320 320 316 313 312 312 315 317 312 310 311 311 312 308 308 313 312 312 312 311 315
307 311 308 307 308 309 310 311 314 315 316 317 318 313 312 308 310 313 317 318 319 318 320 318 317 319 316 312 311 312 312 313 312 309 308 307 306 305 314 306 314 312 309 309 311 310 310
310 308 307 307 307 309 310 313 315 315 316 320 320 316 311 306 309 313 317 318 318 317 320 320 318 314 312 310 315 316 314 313 311 309 307 306 307 307 316 312 308 309 308 313 315 314 312
307 306 306 307 308 310 311 314 315 315 316 319 321 319 312 311 311 312 318 316 316 316 316 317 313 309 307 306 311 317 320 316 314 317 309 306 303 312 307 311 312 310 306 311 311 317 312
306 307 309 309 310 312 314 315 315 316 316 319 321 319 317 315 315 315 318 318 313 314 316 314 314 315 307 307 312 315 316 311 315 314 312 313 307 311 303 314 311 306 309 309 315 316 311
308 309 310 311 312 313 314 315 315 316 316 319 321 322 319 316 316 318 314 314 314 315 319 316 317 314 309 313 314 312 314 313 313 311 313 315 314 311 304 309 314 305 311 316 316 309 310
309 310 311 311 312 313 316 316 315 315 317 319 321 322 320 316 316 316 316 316 316 313 315 311 317 314 313 312 306 306 312 309 307 318 309 314 312 314 311 314 308 306 312 309 308 310 311

GFSGBSN_925_thetae_006.txt.gz
Theta_e
323 320 319 317 316 315 314 313 314 314 313 311 314 313 313 313 312 312 312 311 312 312 311 310 309 309 312 319 319 317 316 311 312 313 314 316 317 317 316 318 318 318 317 314 312 316 323
323 323 320 319 316 316 314 313 313 314 313 311 314 313 313 312 311 311 311 311 311 311 311 309 308 308 314 319 316 317 316 311 315 313 316 316 316 317 318 319 318 317 314 312 313 317 316
315 323 322 319 316 316 314 313 313 314 313 311 314 313 313 312 312 311 311 311 311 311 310 307 307 310 315 318 316 319 317 317 316 315 318 317 316 316 318 316 314 315 314 314 316 318 316
313 318 323 321 317 316 315 313 313 314 313 311 313 313 312 312 311 311 311 311 311 310 307 307 308 311 320 317 316 317 317 316 316 316 316 315 316 317 317 314 314 315 316 315 316 316 315
310 314 320 323 319 316 315 314 313 313 313 311 313 313 312 311 311 311 310 310 309 307 307 308 311 314 320 315 317 316 316 314 315 316 315 313 315 317 315 316 316 316 315 315 315 318 316
307 312 314 322 322 316 316 314 313 312 312 311 313 313 311 311 311 310 309 308 307 307 309 310 313 319 320 319 318 314 314 314 316 315 315 316 316 318 318 317 317 316 314 315 315 320 318
305 310 313 319 321 318 316 315 313 312 312 311 313 312 311 311 311 310 308 310 315 317 313 320 318 319 316 317 315 315 315 317 317 317 318 317 317 317 318 316 317 316 317 316 318 321 323
305 307 312 315 320 321 316 315 314 312 311 311 313 312 312 312 311 309 309 316 319 321 321 319 319 317 317 316 317 316 318 317 318 316 319 318 318 317 319 317 318 317 317 320 319 320 323
305 305 309 312 320 321 317 315 314 312 311 311 313 313 312 311 310 308 310 314 320 320 326 320 320 318 318 318 317 316 319 318 318 316 320 318 320 319 319 319 320 321 320 322 320 321 323
306 305 308 309 315 320 319 315 315 312 311 312 314 312 312 311 309 312 313 312 316 317 320 318 318 319 316 317 318 316 317 319 319 319 320 321 318 320 321 320 321 321 320 321 322 322 322
305 305 307 308 308 318 320 316 315 312 311 312 314 312 311 310 316 315 322 324 323 319 320 317 317 316 317 317 318 319 316 319 319 319 320 321 320 320 321 321 321 323 322 322 322 323 323
304 305 306 306 306 312 319 318 315 312 311 312 313 312 311 309 311 318 319 321 320 327 319 317 318 318 319 319 319 319 319 318 319 320 321 320 318 320 321 320 320 321 322 322 323 323 324
304 304 305 307 308 309 317 319 316 313 311 312 314 312 311 312 318 319 324 322 323 321 317 317 317 318 319 319 320 320 321 321 320 322 322 321 321 319 320 322 321 322 323 323 323 325 324
303 304 304 306 307 307 314 319 316 313 311 312 313 310 310 312 315 318 318 320 319 317 318 316 317 319 320 320 320 320 321 321 320 321 322 320 322 319 319 321 321 323 323 322 322 325 321
301 303 304 304 305 307 311 318 316 313 310 312 311 309 309 313 314 316 322 329 319 319 318 318 318 319 321 321 320 322 322 322 320 321 320 320 320 318 318 319 320 321 322 322 325 322 326
301 302 303 304 305 306 310 317 316 312 310 313 311 311 316 318 318 319 326 323 318 320 319 318 317 319 320 321 319 321 323 321 321 320 321 322 321 319 318 319 318 320 319 323 324 326 323
300 301 302 303 305 306 309 316 315 312 310 313 315 320 322 321 321 322 327 320 320 322 322 319 318 319 320 322 321 319 320 321 320 320 320 320 322 321 320 321 321 320 320 318 321 322 320
300 300 301 302 306 306 310 315 314 311 311 311 318 323 320 319 325 321 322 319 320 323 320 321 320 320 321 323 322 322 321 322 321 321 322 319 323 325 321 318 318 319 319 317 318 318 320
300 300 300 302 306 307 310 314 314 310 311 312 320 325 317 314 325 327 319 319 322 321 320 323 322 322 323 325 325 325 324 319 318 321 323 320 324 324 322 320 318 320 319 316 318 320 319
299 300 301 303 305 307 311 314 312 310 313 317 321 328 326 317 318 320 319 319 318 320 321 322 323 324 325 325 325 326 325 320 318 320 313 317 322 323 325 320 320 321 320 317 317 319 317
299 301 301 304 304 305 312 314 311 311 312 316 322 324 322 327 320 318 319 318 318 323 322 321 324 325 326 328 326 327 324 319 320 317 320 321 323 320 317 317 316 317 319 318 317 318 318
300 301 304 304 303 303 312 314 309 312 312 317 323 323 320 322 318 317 315 317 317 321 323 323 324 325 325 328 325 327 325 322 323 321 322 318 324 319 320 317 316 317 317 318 318 318 317
300 303 303 303 302 305 313 312 309 312 313 317 319 316 322 315 318 318 317 318 317 323 323 322 324 326 326 325 323 322 320 320 321 323 322 322 320 318 320 315 316 321 318 317 317 317 318
301 302 303 303 304 307 313 309 310 312 315 318 321 319 323 322 321 318 316 316 323 324 325 322 323 326 321 317 318 319 319 318 317 315 315 316 317 317 323 313 330 315 313 314 316 316 316
302 303 304 307 309 310 310 309 310 312 315 319 320 320 321 323 320 318 316 316 321 322 325 325 322 320 318 320 325 324 326 325 321 315 313 313 317 318 329 318 316 312 311 313 315 314 316
303 303 306 307 311 308 308 310 311 313 314 320 322 317 322 324 321 317 318 320 325 327 326 321 317 316 315 322 326 329 328 322 322 322 315 312 313 320 317 334 334 315 311 315 315 316 315
305 307 308 310 308 308 309 310 311 314 314 320 322 317 319 319 319 319 320 321 323 326 328 321 319 320 315 324 337 332 327 318 321 321 321 321 320 325 320 328 318 312 313 314 316 316 316
308 309 307 307 307 308 309 311 314 315 314 319 322 318 325 325 320 319 319 321 321 325 329 322 323 321 321 330 334 326 331 321 319 317 320 321 323 324 316 327 326 310 314 319 317 318 316
307 306 307 308 309 310 311 313 314 315 314 319 324 320 320 324 323 319 318 317 320 322 324 322 326 324 325 327 324 322 321 316 321 326 315 320 320 321 318 318 314 312 317 316 315 316 316

GFSGBSN_925_thetae_009.txt.gz
Theta_e
316 322 324 322 320 319 316 316 314 313 314 314 313 312 313 313 313 312 311 312 311 312 312 311 310 309 313 322 322 320 313 312 311 315 316 316 317 318 317 317 317 319 319 318 316 317 322
313 316 319 324 322 320 317 316 314 314 313 314 313 311 313 313 312 311 311 311 311 311 311 310 309 308 317 322 318 322 318 315 316 317 316 317 318 317 317 318 319 319 319 315 319 320 324
309 312 315 320 324 322 319 316 315 314 313 314 313 310 313 313 312 311 311 311 311 311 310 309 308 311 318 320 319 322 319 316 317 317 317 317 317 318 320 320 319 317 316 314 321 321 324
307 308 312 315 321 323 320 317 316 314 313 314 313 310 313 312 311 311 311 310 311 310 310 307 308 314 320 319 319 319 321 319 319 318 317 318 319 319 319 318 317 317 318 322 322 320 318
306 306 307 313 315 322 323 318 316 314 313 313 312 311 312 312 311 310 310 310 310 309 307 308 313 318 323 318 317 318 319 318 318 318 318 316 318 319 319 318 317 317 316 319 319 318 315
306 307 306 308 314 319 322 320 316 315 313 313 312 311 311 312 310 310 310 309 309 309 311 312 316 323 321 318 319 317 317 316 318 319 317 318 319 320 319 318 318 318 318 318 317 316 316
305 305 307 307 309 314 321 322 317 315 314 312 312 311 311 311 311 310 309 312 317 321 316 321 321 320 319 319 318 318 317 317 319 320 319 319 320 320 319 318 319 318 316 316 317 317 317
305 305 306 306 309 314 317 321 320 316 314 312 312 311 311 311 311 310 310 317 322 324 326 318 319 319 318 318 319 318 318 318 319 319 319 319 320 320 319 319 317 317 318 318 319 319 323
306 305 306 304 305 311 315 320 321 316 314 312 312 311 312 312 311 309 313 315 322 322 329 322 320 319 319 319 318 318 318 319 319 318 319 320 320 319 319 318 317 318 317 320 321 322 322
304 305 304 304 305 308 312 319 320 317 315 313 311 311 311 312 310 315 316 315 315 318 328 320 319 320 319 319 318 318 318 319 319 318 320 320 321 320 319 318 320 319 321 321 320 323 322
302 304 305 304 304 306 308 315 319 319 315 313 311 311 311 313 320 317 324 324 321 326 326 319 319 318 319 319 319 319 319 318 319 319 320 321 322 320 319 322 322 326 323 322 323 324 323
301 303 305 304 304 305 308 309 317 320 315 313 311 311 311 311 312 319 322 326 327 331 324 319 319 319 320 318 318 320 317 319 320 319 319 321 322 322 322 322 322 323 323 323 322 322 324
303 302 305 305 302 304 308 306 310 318 316 313 311 311 311 313 319 320 324 329 329 325 319 318 318 318 319 318 319 319 318 318 317 319 320 320 321 321 321 322 322 322 323 322 323 326 324
301 303 303 305 304 303 305 306 307 316 317 313 311 311 311 315 317 322 327 332 326 320 320 317 317 318 319 319 319 320 318 318 318 320 320 320 323 321 322 322 321 322 321 323 321 323 321
298 301 303 303 305 304 304 307 307 314 316 312 310 309 312 312 315 319 329 331 324 317 319 318 317 318 319 319 319 321 321 319 319 320 321 321 321 321 321 321 321 321 323 322 324 324 324
298 301 301 303 303 305 304 306 308 314 315 311 312 312 315 315 315 320 328 326 321 320 319 318 318 318 320 320 319 321 321 321 322 322 323 321 321 320 320 321 321 322 322 322 321 321 323
298 299 300 302 302 303 305 305 308 313 315 312 316 320 318 319 318 323 329 325 320 321 321 319 318 318 320 320 319 320 321 323 323 322 321 320 321 323 321 321 320 322 320 320 322 325 325
297 299 300 301 302 303 305 305 308 312 315 311 318 323 323 321 324 327 328 323 319 322 323 320 321 319 320 320 320 319 319 320 322 322 320 320 322 327 323 322 321 322 322 322 322 321 322
298 298 298 302 301 302 304 306 307 312 313 313 322 324 324 323 329 334 324 321 320 322 322 322 320 320 319 320 320 320 320 324 323 323 321 323 322 326 324 323 321 319 320 320 319 322 319
299 298 299 302 301 300 302 306 306 311 313 315 321 326 325 322 325 324 323 321 321 322 322 322 320 321 323 323 323 324 324 323 322 323 313 318 321 323 325 323 322 322 319 320 319 322 320
298 301 301 300 300 300 302 307 307 311 313 315 322 323 324 330 329 325 322 320 319 321 322 324 324 322 322 323 324 325 326 324 322 318 320 323 324 322 323 321 319 319 319 319 319 318 321
299 299 300 300 301 301 303 306 308 312 312 315 322 324 324 327 324 323 320 320 320 321 323 324 323 321 322 323 324 323 326 326 326 324 325 323 326 324 325 321 320 320 319 317 318 318 317
299 298 299 300 301 302 302 305 308 313 311 316 321 322 325 326 326 323 323 319 320 322 326 323 322 324 323 326 328 326 326 325 325 327 327 326 327 323 321 320 321 324 321 319 318 318 318
298 298 299 301 301 303 302 304 308 312 311 316 321 322 325 328 327 322 319 318 319 322 325 324 324 324 326 323 323 323 322 321 321 322 324 325 324 323 322 319 327 317 316 316 318 318 317
299 299 300 301 304 304 302 302 309 312 311 317 322 323 324 332 322 319 318 317 319 324 326 327 326 325 323 324 326 326 327 327 322 318 318 319 322 323 331 320 317 315 314 314 316 316 317
298 300 302 302 303 302 301 302 308 312 311 315 321 323 323 326 323 318 318 317 325 327 329 325 322 322 322 328 330 326 327 323 326 325 317 316 319 321 320 329 330 319 315 317 317 315 315
300 301 302 303 303 303 303 306 312 310 311 313 325 320 320 319 318 318 319 318 319 324 328 326 324 323 322 331 335 329 326 322 323 323 324 323 324 327 323 328 322 316 315 316 316 318 316
301 301 302 305 304 304 305 307 311 310 312 311 325 323 320 319 321 319 317 319 319 322 332 327 326 326 327 331 335 329 334 326 324 321 323 323 326 328 325 325 327 313 316 319 320 317 316
300 303 304 304 306 308 310 311 309 311 312 314 324 323 326 320 326 322 323 322 320 321 325 325 325 327 328 329 331 333 327 323 327 327 320 324 322 324 320 321 317 315 315 316 316 316 316

GFSGBSN_925_thetae_012.txt.gz
Theta_e
312 313 316 318 323 323 321 319 317 316 315 313 314 314 313 312 313 313 312 311 311 311 311 311 311 310 312 322 323 319 312 313 311 317 318 317 316 316 318 318 318 317 319 319 320 322 323
307 310 312 314 317 322 324 321 319 316 315 314 313 314 313 311 313 312 312 311 311 311 311 311 310 308 315 322 320 322 314 312 314 315 317 317 317 318 318 317 317 318 319 317 318 320 326
308 307 308 311 314 317 322 323 321 317 316 314 313 314 312 311 312 311 311 311 311 311 311 310 309 311 317 319 320 323 318 316 317 316 318 316 317 318 319 321 319 319 319 316 321 321 324
307 307 307 307 309 314 317 322 323 319 316 314 313 314 312 311 312 311 310 310 310 311 310 310 308 314 321 320 319 319 322 320 318 318 318 318 319 320 319 320 319 318 317 316 322 322 322
306 306 307 306 306 309 315 319 323 322 317 315 314 313 312 312 312 311 310 310 310 309 309 309 315 318 323 320 319 318 319 320 319 320 319 318 318 320 320 320 318 318 319 323 321 322 318
307 306 307 306 307 306 309 315 321 323 318 316 314 313 312 312 312 311 310 310 311 309 311 313 316 321 323 320 318 318 319 318 319 320 319 318 318 320 320 319 318 319 318 321 320 319 316
306 307 305 305 306 306 308 311 315 322 320 316 314 313 312 312 311 311 311 313 317 319 317 319 322 319 319 318 319 319 318 317 319 320 320 320 320 321 320 321 320 320 319 318 318 317 316
304 305 306 305 305 305 305 310 314 319 321 317 314 313 312 312 311 311 311 318 323 325 328 320 315 321 319 320 319 318 318 318 320 321 319 319 320 320 320 320 320 319 319 317 318 317 317
303 304 305 306 305 305 304 308 315 317 321 318 314 313 312 311 311 311 314 315 319 319 328 324 316 317 320 319 319 318 319 319 319 319 319 322 321 320 320 320 320 319 319 320 319 317 318
303 304 304 304 306 305 305 304 311 316 319 319 315 313 312 311 311 316 317 316 312 316 328 323 319 320 320 319 319 318 319 318 319 319 320 323 322 320 320 319 318 322 323 321 322 324 320
301 303 303 303 305 305 305 304 307 313 318 319 315 313 311 312 319 318 326 321 323 328 330 322 320 319 319 318 319 318 318 319 319 319 322 321 321 320 320 321 322 323 322 322 321 322 324
300 302 302 302 303 306 303 304 305 310 316 319 315 313 311 311 312 317 320 326 330 335 329 320 319 320 319 318 318 319 318 318 318 319 321 321 321 321 322 321 322 323 321 323 320 321 332
297 299 301 302 302 304 304 303 304 308 311 318 315 313 311 314 319 319 319 329 333 326 320 320 319 319 319 318 318 318 319 317 318 319 321 319 320 321 321 319 321 321 322 323 326 331 329
298 298 300 302 302 302 305 303 303 308 309 316 315 312 310 314 317 319 325 333 328 320 320 317 318 318 319 318 318 318 317 317 317 318 319 321 322 320 320 319 323 322 318 326 332 331 327
297 297 299 302 303 302 304 303 303 307 307 311 314 311 311 312 315 320 328 333 326 321 319 319 317 318 318 319 318 319 318 317 317 318 320 326 323 322 321 320 320 317 321 321 322 329 329
296 297 298 301 302 304 304 304 303 305 308 312 313 312 312 314 315 319 329 330 324 322 319 319 317 318 319 319 318 319 320 319 318 319 322 327 327 323 321 321 321 321 320 324 324 325 324
296 297 299 300 301 303 304 305 304 305 310 312 315 316 316 316 316 322 330 328 325 322 319 319 318 317 318 320 318 319 320 320 321 321 321 321 326 322 322 321 318 321 320 320 319 327 335
296 298 299 299 299 301 304 304 305 306 310 313 316 318 320 318 321 318 327 325 321 322 320 321 320 318 318 321 319 319 322 323 322 321 321 320 321 331 323 321 320 321 323 320 334 325 333
295 298 298 298 299 299 302 304 305 306 308 312 318 322 321 320 320 326 323 324 322 322 322 322 320 321 319 321 321 319 319 325 325 322 322 321 322 329 324 324 322 321 319 321 322 328 329
297 297 297 297 299 299 302 304 305 306 308 314 318 323 325 324 320 323 326 323 323 323 321 321 321 320 319 320 320 321 321 324 324 323 316 323 322 322 329 323 323 324 320 318 320 332 327
297 297 297 298 298 300 302 303 304 306 307 312 321 323 324 325 327 325 327 324 322 321 322 322 320 319 322 322 322 322 323 326 324 318 321 323 323 321 320 321 322 322 321 320 319 321 322
296 296 297 299 299 298 303 302 304 306 306 311 322 323 325 326 324 327 326 326 322 320 322 323 323 321 322 323 322 323 323 328 325 325 324 324 328 327 327 323 322 322 321 320 318 318 318
297 296 298 298 298 300 303 301 303 306 307 312 316 321 324 325 326 328 329 325 323 322 323 322 322 323 323 326 326 328 328 328 325 327 328 329 334 330 328 321 322 323 324 321 321 319 318
297 297 298 302 299 301 302 302 302 306 306 313 316 322 324 328 326 328 326 323 321 322 325 324 324 325 327 325 325 325 324 324 325 325 327 330 330 330 331 320 326 318 318 317 318 318 318
298 298 299 300 301 302 303 302 303 307 306 311 316 322 325 328 327 325 327 326 322 322 325 324 328 327 326 326 328 328 332 325 322 320 322 324 329 330 332 326 319 317 315 315 315 317 317
298 299 299 299 300 301 302 302 303 305 306 308 314 320 325 329 330 323 323 322 324 330 330 327 325 326 327 335 337 328 331 324 326 324 318 318 325 332 325 332 330 322 317 317 317 319 316
299 299 299 299 300 301 302 302 302 303 307 309 313 318 325 328 325 322 322 322 322 330 331 327 325 325 326 336 331 337 333 323 329 328 324 326 328 326 327 330 328 318 316 315 319 323 318
300 299 298 299 301 302 303 302 302 304 305 308 312 315 324 326 323 323 321 320 322 329 334 329 328 328 335 334 334 337 334 332 328 322 325 326 330 328 331 327 326 315 315 320 324 319 318
297 297 299 301 302 303 303 302 303 303 304 308 312 315 323 328 326 325 324 323 322 321 328 329 328 329 331 333 333 337 325 322 327 331 321 327 326 331 325 327 321 316 316 317 316 317 317

GFSGBSN_925_thetae_015.txt.gz
Theta_e
310 310 312 314 316 319 322 323 322 320 318 316 314 313 313 314 312 311 312 312 311 311 311 311 311 310 310 318 323 320 312 314 315 312 314 316 318 316 314 314 314 315 315 317 323 324 325
308 307 306 309 312 317 318 322 323 323 320 317 315 314 313 313 312 312 311 311 310 310 311 311 311 309 313 322 321 321 312 311 311 317 317 317 315 315 315 316 316 316 315 315 315 321 324
308 308 308 307 307 310 315 319 321 322 322 319 316 314 313 313 312 312 312 312 310 310 310 311 310 309 314 316 320 319 318 311 314 314 315 316 316 317 317 318 319 318 316 316 319 323 324
308 307 307 307 307 305 309 317 319 321 322 321 317 315 313 313 312 312 312 312 311 310 310 310 309 310 317 317 319 319 318 317 316 316 316 317 318 318 318 317 318 318 316 315 320 321 323
307 307 307 306 306 306 304 311 317 319 321 322 318 315 313 313 312 312 313 312 310 310 310 309 312 312 322 321 319 318 319 321 318 319 318 318 317 318 318 318 318 316 317 322 320 319 320
306 307 307 306 306 306 307 304 313 316 319 322 319 316 314 312 312 312 313 311 310 309 314 311 312 316 318 321 321 319 318 318 318 319 319 318 315 317 317 317 320 317 320 321 320 318 319
306 306 307 307 306 306 306 306 306 311 316 321 320 316 314 312 311 312 312 315 313 315 313 318 318 318 319 319 319 319 318 318 318 319 317 317 316 318 318 319 319 319 318 319 317 317 314
304 305 305 306 306 306 304 303 303 308 313 319 321 316 314 312 311 311 311 314 318 317 321 320 317 317 316 320 319 318 318 316 318 319 319 318 318 318 320 320 319 319 319 318 317 314 313
303 304 305 305 305 306 306 304 304 304 314 316 320 317 314 312 311 311 312 314 312 316 322 325 323 319 316 319 319 318 316 316 318 319 319 320 320 321 321 320 319 320 322 319 318 316 317
302 303 303 304 304 305 306 305 305 304 312 316 319 317 314 312 310 313 315 320 313 313 324 325 323 316 316 317 319 318 317 316 318 318 321 321 319 320 321 320 318 321 321 322 321 320 319
301 301 302 303 303 304 304 305 304 304 308 315 318 317 314 311 314 317 321 325 318 320 330 321 319 318 318 319 318 318 318 318 318 321 319 321 322 322 322 320 320 320 320 321 322 320 324
302 301 300 301 303 303 304 304 305 305 305 313 317 317 313 311 310 315 319 323 328 329 329 323 320 319 319 318 317 317 316 318 317 318 319 319 319 320 321 320 319 321 320 320 321 319 325
302 301 300 301 301 302 303 302 305 304 304 311 316 316 313 311 316 319 318 323 328 326 321 321 319 319 319 318 318 317 317 317 315 318 321 320 319 321 321 320 321 322 322 323 322 325 324
299 300 300 298 299 302 302 301 304 304 303 309 313 316 313 312 312 317 322 329 330 323 322 319 319 319 319 318 317 318 318 316 314 316 317 322 323 320 319 318 321 321 319 324 325 327 329
298 299 300 299 298 299 301 302 301 304 303 308 311 313 312 313 311 315 324 331 324 325 318 320 317 318 318 318 316 317 315 315 314 315 317 323 324 322 321 321 320 320 320 319 326 327 330
299 298 299 299 299 299 300 302 301 304 303 308 311 312 312 312 311 316 324 325 326 322 322 319 320 317 318 318 318 317 317 316 316 315 320 325 326 323 322 322 319 320 319 320 322 326 323
297 298 299 298 297 297 298 303 302 304 303 309 313 315 314 312 313 320 322 323 325 323 322 322 320 317 318 319 319 318 319 318 317 320 322 322 324 326 323 322 318 320 318 318 319 319 321
297 297 297 297 297 296 297 303 303 304 304 309 314 317 313 314 318 318 319 322 321 323 323 323 320 319 318 320 319 317 319 324 323 320 321 322 324 323 325 320 319 318 320 320 317 318 319
296 296 296 297 297 298 297 302 304 304 305 310 316 317 315 314 315 318 316 320 323 324 324 322 322 320 321 320 322 318 324 323 323 322 321 322 318 317 319 322 321 320 318 318 322 318 319
295 295 296 296 297 298 299 301 304 304 305 310 316 318 319 318 315 316 316 319 323 323 324 323 321 321 320 320 320 321 325 324 323 321 316 322 322 318 318 320 322 322 320 318 319 316 316
295 295 295 295 296 300 299 300 302 304 305 310 315 316 320 323 321 319 317 319 323 325 323 322 321 321 320 319 320 320 326 324 324 318 321 320 320 320 321 323 322 322 322 320 316 319 317
295 295 296 296 299 298 299 299 300 303 305 310 316 317 319 319 320 321 318 322 323 322 323 322 323 320 319 321 322 322 325 325 324 323 321 321 323 323 323 322 321 321 320 319 319 319 317
296 296 296 295 297 298 298 299 299 304 306 309 310 314 319 321 320 321 318 323 322 322 322 320 322 322 321 324 323 325 324 324 325 323 322 322 318 317 322 316 316 314 316 319 319 318 318
297 297 297 297 298 298 299 298 298 304 305 308 309 316 321 321 321 320 320 324 323 322 324 321 321 321 324 322 321 320 320 325 326 327 324 320 320 314 316 313 311 316 317 315 317 316 314
297 297 297 297 297 298 299 299 300 303 306 305 310 315 320 316 321 319 322 323 325 323 322 326 327 324 322 324 322 322 316 313 321 322 325 324 315 318 314 316 316 315 315 317 315 315 314
297 298 297 298 298 298 299 299 302 303 305 305 306 309 318 323 323 319 321 323 325 321 326 326 324 323 326 323 315 321 321 319 321 319 318 317 315 312 314 316 312 315 316 315 315 314 315
298 298 297 297 299 299 299 302 303 302 304 306 307 308 311 325 321 320 322 324 322 326 324 327 324 324 324 312 319 315 319 322 323 320 316 313 312 312 310 310 314 319 314 314 312 314 316
298 297 298 299 301 300 302 303 302 303 302 307 307 308 313 322 321 322 320 321 321 324 322 325 323 322 317 319 317 316 316 316 317 322 319 316 316 313 316 317 318 315 314 312 316 315 314
298 297 299 299 300 300 301 302 302 303 304 305 307 308 309 314 323 324 323 321 323 323 323 321 321 325 324 321 319 315 314 313 316 316 320 320 319 317 317 316 315 313 313 315 313 313 314

GFSGBSN_925_thetae_018.txt.gz
Theta_e
310 309 310 312 314 316 318 320 322 322 322 321 318 316 314 312 313 312 311 312 312 311 311 311 311 309 309 316 319 320 314 314 314 314 313 313 316 317 314 312 312 312 313 313 320 322 324
309 308 307 306 305 309 314 318 320 321 321 322 320 317 315 313 313 312 311 312 312 311 310 311 311 308 314 317 321 318 313 313 313 312 315 314 316 314 314 315 315 316 314 314 322 323 324
309 309 308 308 307 306 308 314 318 319 320 320 322 319 315 314 312 312 311 312 312 311 310 310 310 309 312 309 320 319 314 311 312 314 314 315 316 316 317 317 317 318 315 316 319 320 322
307 308 308 307 307 307 305 306 316 318 319 320 322 321 316 314 312 312 311 312 312 311 310 309 308 311 312 311 318 316 315 316 313 315 314 316 317 316 317 316 317 317 313 315 319 321 321
307 306 308 308 307 307 306 305 306 316 317 319 320 322 317 315 313 311 311 312 312 310 310 309 311 313 318 317 319 319 318 317 317 315 315 316 316 316 316 317 316 314 316 320 318 319 322
307 307 305 307 307 307 306 306 304 311 315 318 319 321 318 315 313 312 311 313 313 312 312 310 311 312 314 318 320 319 318 319 318 316 317 316 312 315 314 315 317 316 320 320 319 318 321
306 306 306 306 306 307 307 306 306 304 313 316 318 320 319 315 313 311 311 313 314 316 311 312 311 313 314 316 318 319 319 317 317 317 316 316 314 316 316 315 318 318 318 318 317 317 316
304 305 305 306 306 307 307 307 305 306 306 313 316 320 319 315 313 311 311 312 315 314 318 317 317 316 316 317 315 317 317 315 317 318 317 316 316 316 316 319 319 318 318 317 317 315 314
304 304 304 304 305 305 305 307 306 304 303 308 314 320 318 315 313 310 311 312 315 313 318 322 321 321 321 316 316 318 315 314 317 318 317 316 317 319 320 319 319 318 319 320 318 313 315
304 304 303 303 304 305 305 306 306 305 304 306 315 318 317 315 310 313 313 318 321 313 322 323 324 322 315 315 316 318 316 315 315 316 317 318 318 319 320 320 319 318 318 320 320 317 316
305 304 302 302 303 304 304 303 306 306 304 305 314 317 318 314 313 315 319 318 315 319 318 318 323 317 313 317 317 317 317 315 315 319 318 319 320 319 321 320 319 319 317 319 321 319 318
302 303 304 302 302 302 302 303 303 305 305 305 311 316 317 313 312 311 314 317 322 322 323 324 318 317 317 317 318 316 316 316 315 317 317 317 318 319 319 320 319 319 319 320 318 319 321
299 301 303 303 302 301 301 303 303 304 305 305 308 316 316 314 312 316 319 321 329 326 319 322 318 318 318 318 318 316 316 316 314 316 319 319 318 320 321 319 319 320 319 321 320 320 320
298 300 303 302 303 301 299 301 303 303 305 305 306 314 315 315 314 316 322 327 326 322 323 320 318 318 318 317 317 316 315 314 314 315 316 319 320 320 319 319 318 320 317 319 321 323 322
298 300 303 303 302 301 299 300 301 302 303 305 305 313 313 315 313 313 322 327 321 324 319 318 318 319 318 317 316 315 315 315 314 313 315 320 321 321 320 320 320 318 318 318 322 322 325
298 300 301 301 301 301 301 299 300 301 302 305 308 312 313 315 314 312 322 320 323 322 321 318 319 317 317 317 316 314 315 314 315 313 317 320 322 322 321 320 320 319 317 319 320 325 327
299 299 299 300 300 300 300 298 297 301 302 304 308 313 313 314 312 314 323 318 320 321 321 323 321 319 317 316 316 316 316 316 314 315 319 321 319 321 322 321 321 319 317 316 318 317 319
299 298 299 298 299 299 300 299 297 298 301 304 309 314 313 313 314 314 320 319 315 320 321 324 322 321 316 317 318 317 318 318 320 320 320 320 320 319 322 320 318 319 318 316 315 316 316
299 298 298 299 299 298 299 298 298 298 302 305 310 313 313 313 316 313 316 318 317 318 321 323 322 320 319 319 319 318 320 321 321 320 320 319 319 317 320 319 320 318 316 318 317 313 317
299 298 297 298 299 299 298 297 296 297 302 305 311 313 314 314 313 311 315 318 318 316 319 322 323 322 320 319 320 322 324 323 322 320 319 319 317 315 318 318 319 321 321 317 318 315 316
299 298 297 298 298 298 297 297 296 297 303 305 310 314 313 314 315 313 313 316 317 317 321 321 322 323 321 318 320 320 324 323 322 317 320 318 319 318 318 321 321 320 320 320 317 316 316
298 298 298 298 297 297 297 295 297 297 302 305 310 316 314 316 314 314 313 315 315 315 318 321 323 322 318 317 318 321 324 322 321 321 319 319 318 321 320 318 319 320 318 318 318 318 316
298 297 297 297 296 296 297 297 299 298 303 305 306 311 315 315 316 316 317 314 314 314 317 317 321 321 319 318 319 320 321 321 321 320 320 319 316 315 319 314 314 315 315 316 317 317 317
297 297 296 296 296 296 296 296 299 300 304 304 307 311 317 317 319 318 317 315 315 316 316 320 319 320 320 318 317 316 318 320 323 324 321 316 315 310 314 311 315 317 314 315 314 313 312
297 296 296 296 296 296 296 295 299 300 301 305 308 309 315 309 319 319 318 317 316 317 320 318 322 319 319 319 318 317 314 315 321 321 322 322 313 315 312 314 315 315 314 312 313 315 313
296 296 296 296 296 297 298 298 300 299 300 303 305 307 310 316 318 319 318 317 318 320 319 324 323 320 322 315 312 317 316 316 319 318 315 315 313 314 313 314 312 313 314 314 312 314 314
297 297 297 297 297 298 298 299 298 298 300 303 304 305 307 317 319 318 317 317 316 320 321 325 324 324 318 310 312 313 317 317 318 317 314 310 309 310 305 308 310 312 314 311 309 310 313
298 298 298 298 298 298 298 298 298 298 299 304 304 305 308 314 317 320 316 317 319 321 321 321 323 321 313 317 316 313 311 315 316 318 316 314 313 309 314 311 314 314 313 311 309 312 311
297 298 297 298 297 298 298 299 299 299 301 304 306 305 306 310 314 313 317 320 318 319 321 319 321 323 322 319 313 311 312 308 312 317 318 315 313 313 313 313 313 312 313 314 311 311 311

GFSGBSN_925_thetae_021.txt.gz
Theta_e
310 310 309 310 311 313 315 316 318 321 321 322 321 321 318 315 314 312 312 311 311 312 312 310 310 309 310 311 312 318 315 314 314 314 314 312 315 315 315 312 311 311 312 312 315 323 323
310 310 309 309 307 306 306 310 315 318 320 321 320 321 321 316 314 312 312 311 311 312 312 310 310 308 312 309 319 319 314 314 314 314 312 312 315 314 314 313 313 314 315 314 317 322 324
308 308 309 309 308 307 305 305 308 315 318 320 320 320 321 318 315 313 312 311 311 312 311 310 309 308 310 306 318 317 314 313 313 312 313 315 315 315 316 315 316 317 315 318 320 322 324
307 307 307 308 308 308 308 307 305 309 316 318 319 320 320 320 316 314 312 311 311 312 310 310 309 310 313 309 312 315 315 315 312 312 313 314 315 314 316 315 316 316 312 320 320 320 321
306 307 307 307 307 308 308 307 306 304 309 315 317 319 319 320 317 314 312 310 311 312 311 310 311 312 316 313 316 317 319 315 316 314 313 315 315 314 314 316 313 312 314 318 321 319 322
305 306 306 307 306 307 308 308 307 306 305 311 314 318 319 320 317 314 312 310 312 312 311 310 310 310 310 315 317 319 318 318 316 315 315 315 311 313 313 313 315 316 316 319 318 318 320
304 305 305 306 307 306 306 307 307 306 305 306 311 316 318 320 317 314 311 311 312 315 311 309 308 308 310 315 317 317 317 316 316 316 316 315 313 315 315 315 316 317 317 317 317 315 318
306 305 305 305 305 307 306 307 307 307 306 306 310 313 318 320 316 314 311 311 312 313 316 314 315 313 314 316 318 315 316 316 316 317 316 315 315 314 315 316 317 317 317 317 316 315 315
302 304 305 304 305 305 306 306 307 307 306 304 304 312 317 319 315 313 310 313 315 316 312 316 318 319 319 318 318 315 314 313 316 316 316 316 316 316 318 317 318 317 318 318 319 314 314
300 302 303 305 304 304 304 305 305 306 307 305 302 310 316 317 313 311 314 316 314 316 317 319 323 321 319 315 315 316 314 314 314 315 315 315 316 318 318 319 318 318 317 317 318 315 317
299 300 302 302 305 303 303 304 304 305 305 306 303 310 316 316 312 315 317 316 314 317 313 312 323 319 312 315 316 316 315 314 314 315 316 317 319 318 319 318 317 318 317 318 319 319 317
299 298 300 302 304 305 302 303 304 304 305 306 304 309 316 313 313 312 314 316 320 317 316 318 321 314 314 315 316 315 315 314 313 314 316 315 317 317 317 318 317 318 318 317 316 317 319
300 299 298 300 302 305 303 302 303 303 303 305 305 306 313 314 313 314 314 321 326 321 314 321 317 315 314 315 316 316 315 314 314 315 317 318 317 318 319 319 318 318 317 319 319 319 319
301 300 299 299 300 302 304 303 301 302 302 304 305 305 311 315 315 315 319 324 326 320 320 321 317 316 316 316 316 316 314 314 313 314 314 317 318 319 319 318 318 318 317 318 320 320 319
302 301 299 299 299 300 303 303 301 301 303 303 305 306 311 313 314 313 319 326 321 321 321 315 317 318 317 317 316 315 313 313 312 312 315 317 318 320 319 319 318 317 317 315 320 319 322
303 301 300 299 299 300 301 303 301 300 302 304 306 307 311 312 315 312 321 321 321 320 321 322 318 317 317 316 316 314 314 314 314 312 313 317 320 321 320 319 319 318 316 317 317 323 324
304 302 301 300 299 300 302 303 301 299 300 303 305 309 310 311 313 313 317 317 317 318 320 323 322 318 317 316 315 314 314 314 314 313 314 319 316 317 321 318 318 318 317 315 316 316 318
304 303 301 300 299 300 303 302 300 299 300 302 305 310 311 312 316 314 316 316 315 315 318 321 322 323 319 315 315 315 315 315 314 317 317 317 316 316 318 318 318 317 317 314 315 316 314
305 303 302 300 300 300 303 302 300 299 301 303 305 310 311 312 317 316 314 316 317 315 317 319 322 321 317 315 316 315 316 316 318 316 318 318 317 317 318 318 318 319 317 316 315 311 316
305 304 302 300 300 301 301 301 300 299 298 303 307 310 312 313 313 314 314 315 318 317 316 317 321 322 321 318 317 318 320 322 320 319 317 315 315 316 318 318 318 320 319 316 316 314 314
305 304 302 300 300 300 300 300 299 299 298 302 306 309 311 313 314 313 313 314 317 318 316 315 317 321 322 320 319 319 323 322 321 317 318 318 318 314 314 315 319 319 318 315 316 315 315
304 303 302 300 300 300 300 299 299 298 300 302 306 312 311 311 312 312 314 314 315 316 317 317 315 319 317 321 317 318 321 321 321 320 318 316 316 317 320 317 317 319 317 316 316 316 314
304 303 301 300 299 299 299 299 298 297 299 300 304 306 312 311 312 313 313 313 313 315 315 315 317 319 320 318 316 314 318 318 318 319 317 316 314 314 317 314 314 314 314 315 315 315 315
304 302 301 299 299 299 299 299 298 299 299 299 304 307 313 311 313 313 312 312 313 314 314 314 313 315 317 316 316 314 314 319 321 321 316 313 312 309 312 311 314 315 314 313 313 312 311
303 301 300 299 298 299 298 298 298 299 299 297 303 306 313 310 311 314 312 313 313 312 313 312 314 312 315 317 317 319 312 317 319 317 321 316 311 312 315 314 314 316 312 312 313 314 312
301 300 299 298 298 298 298 297 298 299 299 297 301 305 308 314 314 314 313 313 314 313 312 314 313 317 316 313 311 317 319 319 319 318 314 312 310 315 309 316 316 314 312 312 311 313 312
299 299 299 298 298 298 297 297 298 298 298 297 303 306 307 310 314 315 316 314 314 313 313 316 322 321 316 308 308 313 313 316 317 317 313 311 308 313 306 309 310 309 312 309 313 311 311
298 298 297 297 297 297 297 297 297 298 299 298 301 305 306 308 309 313 315 315 315 314 315 316 323 319 308 316 314 311 311 314 313 314 313 316 314 309 307 307 314 310 312 310 308 311 311
297 297 297 297 296 296 297 297 297 299 298 300 302 304 305 308 308 307 308 309 311 314 316 318 319 320 318 317 313 309 310 305 313 316 315 315 313 313 313 312 310 311 310 310 309 310 309

GFSGBSN_925_thetae_024.txt.gz
Theta_e
309 309 310 309 309 310 310 311 314 316 317 319 321 321 320 321 318 315 313 311 311 311 312 312 310 308 309 307 308 315 314 314 313 313 312 311 314 313 314 311 310 310 311 311 310 322 324
308 308 308 309 309 309 308 307 306 310 313 317 318 321 321 321 320 316 314 312 311 310 312 311 310 308 310 306 313 318 314 313 313 313 312 311 314 313 314 313 311 312 312 313 318 322 324
307 307 308 307 308 309 309 308 307 305 306 313 316 319 321 320 320 318 315 313 311 310 311 311 309 308 310 307 314 315 315 313 313 312 311 312 314 314 314 315 315 315 315 317 321 322 325
306 306 306 308 308 307 308 308 308 307 305 306 314 317 319 319 320 319 316 313 311 310 311 310 309 310 310 308 311 312 314 314 313 312 313 313 314 313 314 313 314 313 313 321 319 321 322
307 305 306 306 307 307 307 308 308 308 306 305 307 314 317 319 320 320 317 314 310 310 311 310 309 312 312 310 311 312 314 315 314 313 312 313 313 313 313 314 311 310 314 319 321 319 323
305 308 305 305 306 306 307 307 308 308 307 306 304 309 314 317 319 319 317 313 310 312 311 310 310 309 307 313 315 317 318 317 315 315 314 314 309 312 311 311 315 316 316 317 320 318 321
303 305 307 306 305 305 306 306 306 307 308 307 305 306 312 316 317 318 315 310 309 313 311 312 307 306 307 313 317 315 316 315 315 315 316 313 313 314 312 313 315 316 315 316 317 315 320
302 301 304 306 307 305 305 306 307 306 307 307 306 306 311 314 317 317 313 309 312 313 315 313 313 311 311 315 319 315 316 315 315 316 315 314 314 312 313 314 316 316 317 316 316 313 315
301 300 300 302 305 307 304 305 305 306 306 307 306 304 306 313 316 315 313 310 315 314 314 314 315 316 317 317 318 316 312 313 315 315 315 315 315 315 316 316 317 317 318 317 318 314 314
301 301 300 301 302 304 306 304 304 305 305 307 307 305 303 314 314 313 311 315 315 315 313 315 319 319 317 317 316 315 313 313 314 314 314 315 314 316 316 317 316 318 316 317 317 313 316
302 301 300 299 301 303 303 306 303 304 304 305 305 305 303 313 312 312 315 312 314 315 311 313 322 318 316 314 314 315 314 313 313 313 314 314 318 317 317 316 317 317 316 317 317 317 317
303 302 301 301 300 301 302 304 304 303 304 304 305 306 304 312 313 314 316 312 317 319 313 311 318 317 315 313 315 312 314 313 312 313 316 314 315 316 316 316 316 316 317 315 315 316 318
303 303 302 301 300 300 301 301 305 303 303 304 305 306 304 312 313 315 316 316 327 319 312 315 320 314 313 314 314 314 313 314 313 314 316 317 316 317 318 318 316 316 316 319 318 319 319
304 303 303 302 301 300 300 300 302 304 302 303 303 305 305 307 313 314 317 321 323 318 316 318 317 313 313 313 313 315 313 312 311 312 313 316 317 317 318 318 317 316 316 317 320 319 318
304 304 303 303 301 301 300 300 300 304 302 303 302 304 305 306 312 313 317 320 321 319 319 318 316 316 315 314 314 315 313 312 311 311 314 315 316 318 319 319 316 316 316 314 318 317 320
304 304 304 303 302 301 300 300 301 304 302 302 302 305 305 306 312 312 318 318 318 318 321 321 318 317 316 315 315 314 313 312 312 311 312 314 317 319 319 319 318 315 314 317 315 321 322
304 304 304 304 303 301 300 300 300 302 302 301 304 305 304 309 312 314 317 317 316 317 319 322 323 322 316 316 314 313 314 313 312 311 312 315 314 315 320 318 317 317 316 314 315 314 318
303 305 304 305 303 302 301 300 300 301 302 302 305 304 309 311 314 314 314 314 314 316 316 319 320 323 323 315 315 314 314 314 311 313 314 316 314 313 317 316 317 315 316 314 316 316 313
301 302 303 305 304 302 301 300 300 301 301 302 305 307 309 310 312 314 313 314 314 315 315 318 320 321 319 316 316 314 314 314 313 313 315 316 313 313 314 314 316 318 316 314 312 310 315
301 302 303 304 304 303 301 300 300 301 300 302 305 306 310 310 308 311 312 313 315 316 315 316 318 320 321 320 314 315 315 320 316 314 315 314 314 312 314 313 315 318 316 315 315 314 314
301 302 303 302 304 303 301 300 300 302 301 302 304 305 309 310 310 310 311 313 314 315 316 315 316 319 320 322 317 319 320 321 318 318 315 314 315 313 313 314 316 317 318 315 315 314 316
301 302 302 302 304 303 301 301 302 301 300 301 304 306 310 308 308 310 313 313 314 314 317 317 316 316 318 321 318 318 321 319 319 317 316 314 316 314 318 317 317 318 316 314 314 314 313
302 302 302 301 304 302 301 302 302 301 301 301 300 304 308 308 309 309 311 312 313 313 314 314 315 315 317 316 315 315 314 316 317 317 316 313 313 313 317 313 315 315 314 315 314 314 314
302 301 302 300 303 302 301 301 301 300 299 299 300 305 309 308 311 309 309 311 313 313 314 314 314 314 314 315 314 314 313 317 318 317 313 310 311 309 310 310 314 315 313 313 313 312 311
302 302 302 302 302 302 301 300 300 300 299 299 300 303 309 308 309 311 310 311 311 312 313 314 313 312 314 316 318 320 314 318 317 315 315 312 309 312 314 314 313 315 312 312 313 312 310
302 302 301 303 302 301 301 301 300 299 299 299 301 303 305 310 309 310 311 309 310 311 311 312 312 311 314 315 312 320 322 319 318 318 313 311 308 313 308 313 315 313 313 309 310 312 309
300 299 303 302 301 301 300 300 300 300 299 299 299 299 302 307 311 310 312 311 310 310 311 310 311 317 314 305 311 313 317 317 319 319 316 311 308 312 304 309 312 311 311 309 313 313 309
299 303 302 301 300 300 300 300 300 299 299 298 298 298 304 306 307 310 312 311 311 311 311 312 316 315 308 314 314 312 309 313 312 315 316 319 315 310 306 308 319 308 311 311 310 309 309
302 301 300 299 300 299 299 299 299 299 299 298 297 297 301 305 309 306 306 306 307 311 311 311 313 316 316 316 310 307 312 304 311 315 313 317 315 314 314 315 311 308 310 307 307 309 309

GFSGBSN_925_thetae_027.txt.gz
Theta_e
308 309 309 308 308 309 309 309 309 307 310 313 314 316 318 319 319 320 319 315 313 311 310 311 312 308 309 309 306 315 314 313 312 312 311 312 314 314 316 313 312 312 313 312 312 321 325
307 307 307 308 308 308 309 309 308 308 306 304 308 312 315 318 320 320 319 318 314 312 310 310 311 308 309 309 310 318 314 313 313 312 311 312 315 314 315 315 313 314 312 315 319 325 324
309 307 306 307 307 307 307 307 308 308 308 306 304 308 314 317 318 319 320 319 316 313 311 310 311 309 310 308 312 315 313 313 313 312 311 311 313 315 315 316 315 316 316 318 322 324 325
305 308 308 306 306 306 307 307 307 308 308 308 305 303 311 315 316 317 319 319 317 314 311 310 310 310 311 308 310 312 314 313 313 313 312 312 312 314 315 315 315 314 315 322 321 323 323
304 304 305 308 306 306 306 307 307 307 308 308 307 305 305 313 316 316 319 318 317 313 311 311 309 311 310 309 309 310 313 314 313 311 312 312 313 314 315 316 316 315 317 321 322 322 324
303 304 304 304 306 307 305 306 306 307 306 307 308 306 304 309 314 316 317 318 315 311 311 309 309 310 308 310 314 317 313 314 314 312 314 314 313 316 315 316 319 318 318 319 323 321 323
302 302 303 304 303 306 307 305 305 306 306 306 307 307 306 309 313 315 318 317 309 311 311 315 311 308 306 312 316 315 316 315 315 316 318 314 317 319 317 316 316 317 317 317 318 316 323
303 302 302 302 302 303 306 308 305 306 306 306 307 307 306 307 313 315 316 310 311 312 316 313 313 311 309 313 317 316 316 317 317 318 315 316 318 316 313 314 316 317 317 318 317 314 319
302 302 302 302 302 302 303 305 307 304 305 306 306 307 306 304 313 315 315 314 312 314 318 316 314 315 315 315 318 317 315 314 316 316 316 318 317 314 315 316 318 318 318 318 319 315 316
303 303 302 302 302 301 300 302 304 306 304 305 305 307 307 303 312 314 313 313 314 313 314 313 315 317 317 318 318 315 314 315 315 318 316 317 314 315 316 317 317 319 317 317 317 316 319
303 303 302 302 302 301 300 301 301 304 305 304 305 306 306 304 311 311 313 313 314 313 315 313 321 316 317 317 314 315 312 313 315 315 316 318 317 317 318 318 317 319 317 318 318 317 319
303 303 303 303 303 302 301 299 300 300 305 304 304 304 305 305 308 312 315 315 316 321 317 311 318 320 319 314 314 313 314 312 312 315 315 315 314 317 318 316 316 316 318 317 317 319 323
304 304 303 303 303 303 302 301 300 302 301 305 303 303 304 305 311 312 314 315 322 324 313 313 320 316 316 314 315 314 316 315 316 318 318 316 316 316 317 318 317 318 321 322 322 323 323
304 304 304 303 303 303 302 302 300 300 301 304 303 304 305 305 310 313 315 318 326 317 317 316 316 314 316 313 314 314 315 317 312 314 315 318 319 317 317 318 320 319 321 324 322 323 320
304 304 304 304 303 304 303 302 301 301 301 302 303 303 304 305 307 312 317 320 317 318 317 318 314 315 314 313 313 315 315 317 315 313 318 318 317 315 318 319 318 318 320 317 321 320 324
304 304 304 304 304 304 303 303 301 301 301 301 303 303 303 304 305 310 317 316 318 317 320 321 319 316 317 316 315 315 315 314 314 312 314 317 318 319 319 319 317 317 316 322 320 324 323
305 304 305 304 304 304 304 303 302 301 301 302 303 304 303 303 306 312 313 314 315 316 318 322 324 323 317 317 315 315 316 313 313 311 313 315 317 317 320 321 321 318 319 316 319 320 323
302 305 305 305 304 304 304 303 302 301 301 302 302 304 303 303 308 311 312 312 313 314 316 318 320 323 324 316 315 316 317 317 312 314 317 317 319 319 320 316 316 317 319 318 325 320 317
298 301 302 305 304 304 305 303 302 301 301 302 303 304 304 305 308 311 311 312 313 314 315 317 319 320 320 319 315 315 315 313 313 314 318 317 316 319 318 316 317 319 317 316 315 316 319
301 301 302 300 301 304 305 303 302 301 301 301 304 305 307 306 307 309 310 312 314 313 314 315 318 319 320 320 316 315 315 316 314 313 315 316 316 318 319 318 317 319 317 316 319 321 322
301 301 301 302 301 301 305 303 302 301 301 301 304 306 307 307 307 309 309 310 312 314 315 315 316 316 321 320 317 317 317 320 317 317 315 318 318 315 314 313 316 317 317 316 318 319 322
302 301 301 301 302 301 305 303 302 301 301 301 303 305 306 308 307 307 309 311 312 313 313 316 316 316 316 321 320 318 319 320 320 317 317 315 319 314 315 315 315 318 317 317 317 315 316
301 302 301 301 301 301 302 303 302 301 301 301 301 302 307 307 308 308 307 310 312 312 313 314 314 315 317 317 318 316 315 316 318 319 317 317 317 317 319 314 316 320 318 317 317 315 318
300 301 302 302 302 302 300 303 301 301 300 301 301 303 306 308 309 307 307 309 310 312 313 313 315 315 314 313 314 315 315 317 317 317 316 314 316 315 319 314 324 319 313 315 317 316 314
301 302 302 302 302 301 299 303 301 300 300 300 301 303 306 308 308 309 308 307 311 312 313 313 314 313 312 313 318 318 318 318 317 315 316 314 314 315 322 320 317 315 314 316 317 317 314
302 301 302 302 302 302 301 302 300 300 301 299 300 303 305 307 308 307 309 308 309 312 313 312 312 311 313 313 314 322 324 321 322 319 313 311 311 321 313 321 323 319 314 311 312 318 313
302 302 302 302 302 300 303 301 300 301 301 300 300 301 303 306 306 309 310 309 309 310 312 312 312 313 313 310 315 317 321 319 322 323 320 317 314 319 313 322 319 314 311 311 319 321 313
302 302 302 302 300 302 302 301 301 301 300 299 298 301 303 305 305 305 308 310 310 310 310 311 313 313 312 314 316 317 316 318 318 318 319 322 322 321 315 321 324 312 309 317 318 311 312
301 302 301 300 303 302 301 302 302 301 301 299 298 299 300 300 305 305 306 305 307 309 309 310 311 312 312 315 313 312 316 313 316 322 313 323 320 323 321 324 317 311 315 312 310 313 311

GFSGBSN_925_thetae_030.txt.gz
Theta_e
309 307 308 308 308 308 308 309 309 309 308 306 307 311 313 315 317 319 319 319 319 317 314 312 310 310 311 314 313 312 315 312 312 314 314 316 317 318 319 319 318 318 318 318 318 318 327
307 308 309 307 307 307 307 307 308 308 308 308 307 305 305 312 316 318 318 318 319 319 316 313 310 310 312 314 313 317 315 315 314 314 315 316 318 318 319 319 319 319 319 320 320 324 328
305 304 305 308 307 306 306 307 307 307 307 308 308 307 305 307 314 316 317 316 318 318 318 315 311 311 313 314 313 318 316 315 315 314 315 314 316 319 320 320 319 319 321 322 322 327 328
305 305 304 304 306 308 306 306 306 307 306 307 308 308 306 304 311 314 316 316 317 318 318 313 310 311 315 310 311 317 315 315 314 314 314 314 315 319 320 319 320 320 318 322 324 326 327
303 304 305 304 303 304 306 307 306 306 306 306 307 307 307 304 307 313 316 316 316 317 315 311 312 314 315 310 312 312 317 317 315 314 314 313 316 320 320 319 320 320 320 322 323 325 328
304 303 304 304 304 303 303 305 307 305 306 306 306 307 307 306 306 312 315 315 317 314 312 312 311 316 314 312 312 315 313 316 317 317 317 317 320 320 319 319 319 320 320 320 323 325 326
303 304 304 303 303 303 304 303 305 307 305 306 306 306 307 307 307 313 315 317 317 317 315 319 317 316 310 312 316 317 316 315 318 320 321 320 321 319 318 318 320 321 320 320 321 322 325
303 303 303 303 303 303 303 304 303 305 306 305 306 306 307 307 305 313 314 317 316 314 317 316 316 316 314 313 317 318 317 318 320 322 320 320 321 318 318 318 319 321 320 321 321 320 321
303 303 303 303 303 303 303 303 302 303 306 305 305 306 306 307 304 312 315 317 314 315 322 318 318 317 316 315 317 318 319 320 320 321 321 321 320 319 319 320 321 321 321 321 321 320 320
303 303 302 303 303 302 303 303 301 300 303 305 305 306 306 307 307 313 315 315 314 314 320 314 315 317 316 316 317 317 317 319 319 320 320 321 319 319 320 320 320 321 321 320 321 321 321
303 303 303 304 303 303 302 302 302 300 298 303 306 305 305 306 310 315 314 315 315 316 312 314 318 317 318 317 316 317 317 317 319 319 320 320 319 319 320 319 320 320 320 321 322 321 322
303 304 304 303 304 304 303 302 302 302 299 302 303 305 305 306 306 312 314 316 316 324 315 313 320 321 320 318 316 317 317 317 318 318 319 319 318 320 320 320 320 320 321 322 323 323 323
304 304 304 304 304 304 304 303 302 302 301 298 302 305 304 305 307 311 314 318 323 322 313 313 320 321 319 317 317 317 317 318 318 319 320 319 319 319 319 320 320 321 321 323 323 324 324
304 304 304 304 304 304 304 304 303 302 302 299 300 301 304 304 304 307 313 321 317 311 314 317 318 320 319 316 317 318 318 318 318 318 319 320 320 319 320 320 321 322 321 322 324 324 321
305 305 305 305 304 304 304 304 303 303 302 300 300 302 305 305 305 307 315 319 310 312 315 317 316 320 321 316 316 318 318 318 318 319 319 320 319 318 320 321 320 322 322 321 324 325 323
305 305 306 305 305 305 304 304 304 303 302 301 302 303 305 305 306 306 312 315 310 313 315 316 316 317 319 319 315 318 319 318 318 318 318 319 319 319 321 321 320 322 321 323 324 324 323
305 305 305 305 306 305 305 304 304 303 302 301 301 303 304 305 306 307 311 313 311 313 316 320 318 317 318 320 317 317 318 317 319 318 318 318 319 322 322 323 322 322 322 321 323 323 322
305 303 302 303 305 305 305 304 304 304 303 302 302 305 304 304 306 308 310 312 310 311 316 319 320 320 321 318 319 317 317 317 317 319 319 319 319 320 319 320 321 321 321 323 324 323 323
303 301 301 301 303 306 305 305 304 304 302 302 302 305 304 304 307 308 309 310 311 311 314 319 320 322 323 322 321 318 317 318 318 318 319 320 320 321 319 320 320 321 322 322 322 322 321
300 300 300 301 300 303 305 305 305 304 302 301 303 305 306 306 306 308 308 308 311 311 312 317 319 321 323 324 321 320 318 317 318 318 317 319 319 319 320 318 318 321 321 321 322 324 321
301 301 301 301 301 300 302 304 305 304 302 301 303 306 306 306 309 308 310 310 311 310 312 314 317 319 322 323 321 320 317 321 316 316 317 320 319 319 317 317 317 318 317 319 320 320 321
300 301 301 301 301 301 301 304 305 304 302 301 303 307 309 308 306 306 309 309 310 310 309 313 316 318 319 321 319 322 320 319 322 320 319 320 319 320 320 318 318 318 318 317 318 318 318
301 301 301 301 301 302 302 302 305 303 302 301 301 304 308 307 308 307 310 309 309 310 311 311 311 313 315 317 317 319 318 318 319 322 321 321 321 321 320 320 320 321 320 319 319 319 319
302 302 302 301 302 301 302 301 304 303 300 300 302 305 308 309 309 308 306 308 309 310 311 311 313 315 315 313 315 316 315 321 321 321 322 323 322 323 322 321 332 320 319 320 319 319 320
302 301 303 302 302 301 302 301 301 302 300 301 302 305 308 310 309 307 307 307 308 309 310 311 315 314 314 315 315 313 315 321 322 322 322 322 322 324 331 324 321 319 318 320 321 321 321
301 303 303 302 302 302 302 301 302 302 300 301 302 303 307 309 309 308 307 308 310 311 313 312 313 314 315 318 319 319 317 314 322 324 317 318 320 327 322 325 330 321 320 319 319 322 320
300 301 301 301 301 302 301 299 303 301 300 301 302 303 305 307 307 308 309 310 308 310 312 313 315 315 314 318 323 321 320 315 316 326 324 322 322 327 326 328 323 321 318 317 322 323 321
302 301 300 302 301 302 301 300 302 301 301 300 301 302 305 306 307 307 308 309 309 311 314 313 315 315 316 317 320 321 324 322 319 319 324 324 326 328 326 330 329 318 316 322 323 322 320
301 301 301 301 301 301 300 302 301 301 301 300 301 303 304 306 306 303 302 303 308 309 312 315 312 313 314 315 318 319 324 321 320 325 319 324 324 326 325 324 323 318 321 320 320 320 319

GFSGBSN_925_thetae_033.txt.gz
Theta_e
307 308 309 309 308 308 308 308 308 308 308 308 308 308 305 305 310 315 317 318 318 318 319 319 317 314 313 318 317 319 317 313 311 315 315 315 317 319 320 319 320 319 320 320 321 320 327
306 305 305 306 308 309 307 307 307 307 307 307 308 308 308 305 304 312 316 317 317 317 318 318 318 316 316 318 315 320 318 314 315 316 317 318 320 320 321 320 321 321 320 321 320 323 327
304 305 305 304 304 305 308 307 307 306 307 307 307 307 308 308 303 307 314 315 316 316 318 317 317 313 315 317 314 318 318 316 316 317 319 318 318 320 322 321 321 320 321 321 322 324 325
304 305 305 304 304 304 304 305 308 306 306 307 307 307 307 308 306 304 311 314 316 316 316 317 314 314 317 315 313 317 319 317 316 316 316 317 317 320 321 321 320 321 321 323 326 325 326
305 305 305 304 304 304 303 304 304 306 306 306 307 306 307 307 307 304 308 313 315 315 316 315 315 316 318 314 312 314 320 317 316 316 317 316 317 320 321 320 320 321 321 326 327 323 327
304 304 305 305 304 303 303 303 303 304 305 306 306 306 306 307 307 305 310 314 314 315 315 315 315 318 317 316 314 312 320 318 317 318 317 318 319 320 320 320 320 321 320 322 325 324 325
304 304 304 304 303 304 304 304 304 303 304 305 306 306 306 306 307 306 311 316 319 321 317 316 319 315 314 314 315 314 319 320 320 321 321 322 322 322 320 320 319 322 321 322 323 325 323
303 304 305 305 304 303 304 304 304 303 302 304 306 305 306 306 307 306 311 316 316 317 315 315 316 317 317 315 318 316 316 321 321 323 322 323 322 321 320 319 319 320 320 321 322 321 321
303 303 304 304 305 304 303 304 304 303 302 302 303 306 306 306 306 306 312 314 316 316 318 315 316 317 316 316 316 317 319 320 321 322 322 323 322 320 319 319 320 320 321 322 321 322 321
303 303 303 304 304 304 304 303 303 304 303 301 303 304 306 306 306 306 313 313 315 317 319 313 318 319 317 317 317 316 317 320 320 321 321 321 322 320 319 320 320 320 320 321 321 321 322
303 303 304 304 304 304 304 304 303 302 303 301 300 302 306 305 309 313 315 315 317 319 312 314 316 317 316 317 315 317 317 319 320 320 321 322 322 320 320 320 320 321 322 321 322 322 323
304 304 304 304 304 304 304 304 304 303 302 301 301 302 304 306 307 308 313 317 320 320 314 315 320 319 320 317 315 318 318 319 319 320 320 321 320 320 320 320 320 321 322 322 322 323 325
304 304 304 304 304 304 304 304 304 303 303 302 301 301 302 306 308 307 309 316 319 314 310 313 318 320 320 319 317 318 318 319 320 321 321 321 320 320 320 321 321 321 322 324 325 327 326
304 304 304 304 305 305 305 304 304 304 303 303 302 301 302 305 307 308 307 318 312 310 311 317 316 320 321 319 319 318 319 319 319 319 320 321 322 320 320 321 321 321 321 324 330 332 328
303 304 304 305 305 305 305 305 305 304 303 303 302 302 303 303 306 306 310 316 314 310 310 312 317 321 321 319 318 319 318 318 318 318 320 321 321 320 320 320 321 322 324 321 323 324 326
303 303 304 305 305 305 305 305 305 305 304 303 304 303 303 303 306 306 310 313 314 310 309 312 314 318 321 319 317 318 319 318 317 317 319 320 321 320 320 321 321 321 323 324 324 330 328
303 303 304 304 306 305 306 305 305 305 304 303 303 305 304 305 306 309 309 311 312 312 310 310 314 318 319 321 318 318 319 318 318 317 319 320 320 321 322 322 321 322 324 323 323 324 327
303 303 303 304 304 305 306 306 305 305 304 304 303 306 304 304 308 307 308 311 309 312 311 313 316 318 316 318 322 318 318 319 318 318 319 320 320 323 322 321 320 321 322 323 328 326 327
302 303 303 304 305 306 304 306 306 305 305 304 304 305 304 305 309 309 308 308 308 308 312 311 314 319 321 319 319 321 319 318 319 319 320 321 321 324 323 320 321 321 324 324 323 325 327
301 301 301 300 301 303 303 303 305 306 305 304 303 306 306 307 308 309 308 309 308 307 309 312 312 315 317 321 321 320 321 320 319 319 320 321 320 321 324 321 320 321 320 321 323 330 326
300 301 301 301 300 301 302 302 304 306 305 303 302 306 307 308 309 310 309 308 308 307 307 311 312 316 317 316 318 320 321 320 319 317 319 321 323 321 320 319 319 318 319 320 322 322 325
300 300 301 301 301 301 301 301 301 306 305 303 300 306 308 309 308 309 309 308 308 308 308 311 313 314 319 321 319 323 321 321 319 319 320 322 322 321 319 318 318 318 318 318 320 320 321
300 300 300 301 301 301 301 302 301 304 305 302 300 304 308 308 309 310 311 309 307 308 310 310 311 314 315 315 319 321 319 319 321 322 321 321 324 324 323 319 319 323 319 319 319 318 319
300 300 301 301 301 301 302 302 302 302 304 299 301 305 311 309 310 310 308 308 308 307 308 308 310 313 315 316 316 315 315 315 319 319 321 323 324 325 326 328 328 321 320 320 320 319 319
301 302 301 302 302 301 302 302 302 301 305 300 303 306 309 311 309 309 308 308 307 307 309 310 310 311 313 315 316 315 317 316 316 314 318 323 326 327 329 325 321 319 320 321 320 320 320
302 303 302 302 302 302 302 302 302 301 301 301 303 304 309 311 310 308 308 308 309 309 311 311 312 315 317 317 316 314 312 311 315 319 319 321 326 329 327 326 327 322 320 320 320 324 320
300 302 303 302 302 303 301 302 302 301 301 302 303 303 307 308 309 309 309 309 308 309 312 312 315 317 316 320 323 316 316 311 315 324 324 325 326 331 330 327 323 320 320 321 325 323 321
300 300 302 302 302 302 301 302 301 300 301 302 303 305 307 308 308 308 309 309 308 310 314 312 315 316 318 319 316 313 320 317 316 314 322 325 327 330 328 330 331 321 321 322 323 322 323
302 301 302 302 302 301 302 301 300 301 300 301 304 305 306 308 308 308 308 309 309 309 311 313 314 315 315 315 317 314 324 326 318 320 317 321 326 326 324 325 324 322 322 322 321 323 324

GFSGBSN_925_thetae_036.txt.gz
Theta_e
307 307 307 307 308 309 309 308 308 308 308 307 307 308 308 308 307 304 306 313 316 317 317 316 317 317 316 319 320 320 316 314 311 313 318 316 316 318 320 320 319 318 319 320 320 321 323
305 306 306 306 305 305 306 307 309 307 307 307 307 307 308 308 308 307 303 309 314 315 316 316 316 316 319 319 318 320 318 314 314 314 317 316 318 320 320 321 320 321 321 320 320 321 324
306 305 305 304 304 304 304 304 305 307 307 306 307 307 306 307 308 308 306 304 311 313 315 316 316 316 317 319 316 317 320 316 315 316 318 318 319 319 320 322 320 320 320 320 321 321 325
305 305 306 305 304 303 304 304 304 304 304 307 306 306 307 306 307 307 307 303 307 311 315 314 316 314 317 314 316 317 318 319 317 317 318 318 318 319 320 321 321 320 319 321 323 324 326
305 305 304 304 306 305 303 303 304 304 304 304 306 306 306 306 306 307 307 304 307 313 314 315 315 317 317 315 316 315 317 320 317 317 317 318 317 318 319 320 320 320 320 322 324 324 328
304 304 304 304 304 303 305 304 303 302 303 303 304 306 306 306 306 306 307 305 307 314 316 316 316 316 316 315 316 315 316 320 318 318 318 318 317 318 319 320 321 321 322 322 326 325 325
305 305 305 305 305 304 305 305 305 305 303 302 303 304 306 306 306 306 307 310 316 322 319 319 318 313 314 317 315 315 315 320 319 318 319 319 319 319 319 321 320 319 322 324 324 325 324
304 305 305 305 304 305 306 305 305 304 304 303 302 302 305 306 306 306 307 312 314 317 318 315 318 317 317 318 317 317 315 321 320 320 320 320 322 321 321 321 320 319 319 322 323 324 323
303 303 304 305 305 304 305 305 305 304 304 303 302 301 302 306 306 306 307 309 313 316 317 311 312 313 314 316 318 318 316 321 320 321 322 322 323 323 321 320 320 319 319 320 322 323 323
303 303 303 304 304 304 304 304 304 304 304 304 302 302 303 306 306 307 308 309 311 314 317 309 312 317 315 316 316 317 317 318 320 321 321 321 322 322 321 320 319 319 319 321 323 322 321
302 303 303 304 304 304 304 304 304 303 304 304 303 302 301 304 308 312 315 315 317 318 311 310 312 317 318 317 317 317 316 318 319 320 320 321 322 321 322 319 319 320 322 322 322 321 323
302 303 303 304 304 304 304 305 304 304 303 303 303 302 302 303 306 308 311 313 318 319 312 310 319 318 318 318 317 317 317 318 319 319 320 320 320 321 322 319 320 320 322 323 323 322 326
302 302 303 303 304 304 305 305 305 304 304 303 303 302 302 303 308 308 308 315 319 314 309 310 318 320 318 319 318 318 318 318 319 321 322 320 320 321 321 319 320 321 322 324 324 325 329
301 302 302 303 303 304 305 305 305 305 304 304 303 303 303 303 306 308 308 315 310 308 311 313 313 317 321 320 319 318 318 318 319 319 321 322 322 320 320 320 321 321 322 326 328 333 330
301 301 302 302 303 304 304 305 305 305 305 304 303 304 304 304 304 307 309 313 311 307 308 310 312 317 319 321 319 319 318 320 319 319 321 322 321 320 320 320 320 322 323 322 324 329 332
301 301 302 302 303 303 304 305 305 305 305 304 305 305 305 304 303 307 309 312 312 307 307 309 310 312 315 321 321 319 318 319 319 319 320 321 323 321 321 320 321 321 321 327 326 329 331
300 300 301 302 302 303 304 305 305 306 305 305 305 306 305 304 305 308 310 310 310 309 309 309 311 312 312 314 319 321 319 319 320 319 319 320 322 322 322 321 321 321 322 324 327 326 333
300 300 301 301 302 303 303 305 304 306 305 305 305 306 304 304 307 307 309 308 308 309 309 310 311 311 312 314 318 322 320 320 319 319 319 320 322 323 321 321 320 321 322 322 327 327 329
300 300 301 302 302 303 303 303 304 306 306 306 305 305 305 306 306 308 307 310 307 308 309 310 311 312 313 317 323 323 323 321 320 321 319 320 320 324 324 322 322 321 321 322 325 327 330
300 301 301 302 301 303 304 305 305 305 306 306 304 305 307 307 308 308 309 311 309 308 308 308 309 312 313 316 319 323 322 321 322 320 319 322 321 322 325 323 323 323 321 321 325 330 329
300 301 302 301 301 301 301 301 305 305 306 305 303 304 307 308 308 309 309 308 309 309 308 309 310 311 312 314 317 320 320 322 322 321 319 323 323 321 321 320 321 321 321 320 321 328 329
301 301 301 301 301 301 301 301 301 306 306 306 299 306 308 307 308 309 309 311 308 309 309 308 310 310 312 313 318 320 323 323 324 323 321 323 323 322 323 321 320 320 320 320 320 320 320
299 299 300 300 300 300 301 301 301 302 305 307 299 303 308 307 309 309 310 311 310 310 310 308 309 310 313 313 316 318 320 319 319 323 324 323 324 324 325 322 320 321 320 320 320 320 321
300 300 301 301 301 300 300 301 301 302 303 303 298 305 307 309 310 309 308 309 310 309 311 309 310 310 312 317 318 318 316 318 318 318 319 322 324 324 326 325 325 320 320 319 319 319 320
300 301 301 302 302 301 301 301 301 302 302 302 297 305 307 310 310 308 308 309 309 309 311 310 310 311 312 318 318 319 319 317 317 316 315 316 322 328 327 326 322 319 320 320 321 321 320
301 301 301 301 302 302 302 301 301 301 302 301 299 302 307 308 310 308 308 309 310 310 311 311 310 310 313 313 318 319 318 315 316 314 313 316 322 328 328 327 327 323 321 320 320 322 321
301 301 300 301 301 303 302 301 302 302 302 301 300 299 307 309 309 308 309 309 309 309 312 312 312 313 313 313 314 319 316 311 315 317 319 315 322 328 328 328 326 322 320 319 324 324 323
302 302 300 300 301 303 302 301 302 302 302 301 301 302 306 308 310 309 309 310 310 310 312 311 313 313 317 316 317 317 320 315 312 313 322 320 324 328 329 327 327 322 320 322 324 327 325
301 301 301 300 303 301 300 302 302 302 302 300 302 303 305 308 309 308 309 309 310 309 311 312 313 314 314 315 318 318 324 323 319 320 317 320 320 327 324 327 325 321 321 323 325 326 325

GFSGBSN_925_thetae_039.txt.gz
Theta_e
306 306 306 306 307 307 307 308 307 309 308 307 307 307 307 307 307 308 308 306 303 307 313 315 315 316 315 318 319 319 318 316 312 310 315 316 314 313 314 317 317 316 316 316 317 317 321
306 307 307 305 304 305 306 307 305 305 306 308 307 306 307 307 307 307 307 307 306 303 309 312 315 315 317 320 313 318 318 315 312 310 314 316 315 315 318 318 318 318 318 318 317 316 324
306 306 305 305 305 305 303 303 304 304 304 305 306 307 306 306 307 306 306 307 306 305 305 310 314 315 316 315 308 319 317 318 314 314 313 316 317 317 316 317 319 319 318 317 317 317 324
305 306 306 305 304 305 305 304 303 303 304 304 304 304 307 306 306 306 306 306 306 306 304 311 314 314 316 309 310 315 316 316 318 315 315 316 318 317 317 316 318 318 317 317 317 323 323
305 305 305 305 304 304 303 304 304 304 303 303 303 304 304 307 306 306 305 306 304 301 307 313 314 314 319 315 315 312 313 317 319 318 316 317 317 316 316 316 316 317 316 316 317 322 326
304 305 305 305 304 304 304 304 304 303 303 303 302 302 303 304 306 305 306 305 299 304 310 316 316 316 317 315 316 316 315 315 319 317 317 316 315 314 313 314 318 318 317 320 322 324 327
305 305 305 305 305 305 306 306 305 305 304 304 304 303 302 302 305 305 306 305 313 317 317 320 317 313 314 316 317 316 316 315 318 316 316 316 315 315 314 315 317 318 318 319 321 324 326
304 304 305 305 305 305 305 305 305 305 305 304 303 303 302 301 304 306 306 307 310 310 314 317 319 319 318 319 318 316 314 315 319 318 316 317 317 316 317 318 319 320 319 317 318 323 324
302 302 304 304 305 305 305 305 305 305 304 304 304 303 303 301 304 306 305 306 304 307 314 314 314 313 312 312 316 316 313 314 319 319 317 317 318 318 319 320 321 320 319 317 319 321 321
302 302 303 304 304 304 304 304 304 304 304 304 304 304 303 302 305 306 306 312 315 314 317 312 309 310 310 311 314 314 316 315 320 320 318 319 319 320 321 322 320 319 318 318 320 321 321
301 302 302 302 303 303 304 304 304 304 304 304 304 304 303 301 305 306 310 309 312 317 304 309 309 311 311 312 315 314 315 315 319 320 319 320 319 320 321 321 320 319 319 322 322 321 320
300 301 301 301 302 303 303 304 304 304 304 304 303 304 303 302 302 303 306 306 313 319 318 310 316 316 316 312 314 315 314 314 315 319 319 319 318 319 318 320 319 318 322 322 322 321 321
299 300 301 301 302 302 303 303 304 305 305 304 304 304 304 302 303 306 308 310 316 313 305 305 316 316 317 317 315 315 316 315 315 317 319 318 318 318 319 319 319 318 320 322 322 322 321
299 300 300 301 301 302 303 303 304 304 305 305 304 303 304 303 302 303 307 312 315 308 308 310 310 316 319 317 317 318 317 316 314 316 318 319 320 318 319 319 320 318 320 323 324 324 327
299 299 300 300 300 301 302 303 303 304 305 305 304 304 305 303 302 304 309 311 310 309 307 307 307 308 310 319 318 317 317 316 316 315 318 319 319 318 318 318 318 319 320 319 322 329 327
298 299 299 299 300 301 302 302 303 304 305 305 305 305 304 303 303 304 309 309 309 309 308 308 307 309 309 314 319 318 318 317 316 315 316 318 321 319 319 318 318 318 319 322 323 329 329
298 299 299 299 299 300 301 302 302 303 304 305 306 306 304 303 305 305 310 307 307 308 309 310 308 307 308 311 311 313 316 318 315 316 316 316 317 319 320 320 319 319 319 322 324 326 327
298 299 299 299 299 300 300 301 302 303 304 305 306 306 304 304 306 306 307 307 307 307 308 310 309 309 309 310 311 312 322 321 319 318 318 317 319 318 319 320 319 318 319 320 325 327 327
298 299 299 300 299 300 300 301 301 303 304 306 306 305 304 304 306 305 306 307 307 307 307 308 309 308 309 310 310 322 323 321 321 319 321 317 318 319 319 318 318 319 319 320 321 322 324
298 299 299 299 299 300 300 301 302 302 303 305 305 304 306 305 304 304 305 307 307 307 308 308 308 308 309 310 311 319 321 320 320 320 320 321 318 318 319 319 320 321 321 320 319 322 323
299 299 299 299 300 300 301 301 301 303 303 305 303 302 305 307 306 305 305 306 307 308 308 307 307 307 308 309 309 314 318 320 320 320 322 324 321 318 317 318 320 321 321 321 320 321 324
299 299 300 300 300 300 301 302 301 302 304 305 299 302 305 305 306 306 307 305 306 307 307 308 306 307 308 308 308 310 318 321 322 320 321 323 323 320 320 318 319 320 321 320 319 319 323
299 300 300 300 300 299 300 300 300 301 301 306 303 300 305 306 307 307 307 307 307 307 307 307 307 306 307 308 310 316 317 319 321 318 315 321 321 321 320 319 319 319 319 319 320 319 319
299 298 298 299 299 299 299 299 300 300 302 303 299 303 305 308 307 307 306 306 307 307 308 308 307 307 306 311 315 314 316 318 319 320 317 315 317 320 318 320 324 319 318 318 318 318 317
298 299 299 300 300 301 301 300 300 299 302 302 298 303 305 306 307 306 306 306 306 307 308 308 308 308 307 311 315 315 312 316 316 317 319 316 315 319 322 322 322 321 318 318 318 317 318
300 300 301 301 301 301 301 301 301 300 300 302 299 299 304 306 307 306 306 306 307 307 307 308 308 307 308 308 311 313 315 317 316 316 316 315 312 316 321 323 324 321 318 318 319 318 318
301 301 301 301 301 302 302 301 302 301 301 302 302 299 302 301 306 306 307 307 306 307 307 307 308 309 308 305 309 312 314 315 316 316 315 312 312 315 317 320 319 320 318 319 320 318 319
301 301 301 301 302 302 302 302 302 302 301 301 302 299 302 303 307 307 308 308 307 307 308 307 309 310 309 307 310 310 311 315 315 315 315 315 317 319 320 321 323 317 319 319 317 317 319
302 301 301 301 302 302 301 301 301 302 302 301 301 300 301 304 306 307 307 308 307 306 307 308 309 310 309 309 309 310 308 309 311 312 317 318 315 318 321 320 318 315 318 317 319 321 321

GFSGBSN_925_thetae_042.txt.gz
Theta_e
307 307 307 307 307 306 306 307 306 305 305 305 307 308 307 306 307 307 306 306 306 306 305 303 309 313 314 317 317 312 314 317 315 311 313 314 316 313 312 312 315 316 314 314 316 317 326
306 306 306 305 304 306 306 306 304 303 304 304 304 305 306 307 306 306 306 306 305 305 305 304 306 313 315 316 308 312 316 316 312 311 312 314 316 313 313 316 316 317 317 316 316 316 329
305 306 306 304 304 304 304 305 305 304 303 303 304 304 304 304 306 306 305 305 305 305 304 304 305 313 313 313 305 317 317 317 315 312 310 312 315 314 315 316 317 317 317 315 316 316 323
305 305 306 305 304 304 304 303 303 303 304 304 303 303 303 303 304 306 306 305 305 305 304 303 308 312 313 307 307 309 308 311 311 315 313 313 314 315 316 316 315 316 315 316 315 322 322
304 305 305 305 304 304 304 303 303 303 303 303 303 303 302 302 303 304 306 305 304 303 304 306 312 312 314 312 315 315 312 313 316 316 316 315 315 315 315 314 313 315 316 316 316 317 324
304 305 306 306 305 304 304 305 305 305 305 304 304 304 304 302 301 303 305 305 302 305 307 313 315 314 313 311 315 315 315 311 315 317 317 314 313 314 311 312 315 316 316 315 315 323 325
304 305 305 305 305 305 306 306 305 305 305 305 305 304 303 303 302 301 305 305 307 314 315 318 317 314 312 313 317 316 315 314 314 316 315 315 314 315 313 312 314 315 316 315 315 320 326
302 303 304 304 304 305 306 306 305 305 304 305 305 304 304 302 302 301 305 305 306 305 307 309 314 317 316 316 318 316 316 313 315 318 314 315 316 315 315 315 315 316 317 317 315 321 322
301 302 303 303 304 305 305 305 304 304 304 304 304 304 304 303 302 301 305 305 305 307 308 311 312 314 316 316 319 317 313 312 317 318 316 316 316 316 316 316 317 317 318 318 316 320 319
300 301 302 302 303 304 303 303 304 304 304 304 304 304 304 303 301 304 306 307 306 308 312 309 311 310 311 310 312 311 313 311 315 319 318 315 316 316 317 317 317 319 319 317 317 319 319
300 301 301 302 302 301 302 303 303 304 304 304 304 304 304 303 301 302 307 305 307 310 296 303 309 310 311 309 310 312 312 312 314 319 318 319 318 317 318 318 318 320 320 318 320 320 319
299 300 300 300 300 301 301 302 302 303 304 304 304 304 304 304 303 301 303 307 311 314 309 309 311 310 310 309 313 313 312 314 314 317 318 317 317 317 318 319 318 318 318 320 319 318 321
298 299 299 300 299 300 301 301 302 303 303 305 304 304 304 303 301 302 303 309 316 313 305 304 313 315 312 310 311 313 314 313 315 316 318 319 319 318 317 317 318 317 318 321 321 322 322
298 298 299 299 299 300 300 300 301 302 303 304 305 304 304 304 303 302 303 312 316 308 305 306 308 307 314 313 311 313 314 314 312 314 314 316 318 317 317 317 318 318 317 319 323 324 322
298 298 298 298 298 299 300 300 301 302 303 304 305 305 304 303 303 303 305 312 312 309 308 306 304 305 307 310 316 314 315 315 313 313 316 317 316 316 317 317 317 319 318 317 319 324 325
297 297 297 297 298 299 300 300 300 302 302 304 305 305 305 303 303 303 306 309 308 308 307 308 308 306 307 308 313 314 316 316 316 314 313 316 318 317 316 317 316 317 317 319 319 323 327
296 296 297 297 298 298 299 299 300 301 302 303 306 306 304 304 303 304 306 307 306 306 307 308 308 309 307 308 310 312 313 315 316 316 315 314 316 317 316 318 317 317 317 320 319 322 323
296 296 297 297 298 299 299 299 300 300 301 303 305 306 303 304 305 304 305 305 307 307 307 307 309 309 307 309 310 309 314 315 319 319 321 318 315 317 316 316 316 316 318 319 321 325 323
296 297 297 297 298 299 299 299 299 300 301 304 305 304 304 303 305 304 304 305 305 307 307 307 308 308 308 308 310 310 314 321 320 321 321 321 322 318 318 316 316 316 317 318 320 321 323
296 296 297 297 299 299 299 299 299 300 300 303 303 304 305 304 303 304 303 304 305 305 306 306 307 307 307 307 308 310 313 319 319 320 319 321 324 323 320 317 316 319 318 317 319 319 319
296 296 297 298 299 299 299 299 299 300 300 302 302 302 304 307 305 305 304 304 305 305 306 307 307 307 307 308 308 308 310 319 320 319 321 323 324 322 322 321 317 317 319 319 319 319 320
296 297 298 298 299 299 299 299 300 300 301 303 299 302 304 304 306 305 305 305 305 305 306 306 308 306 306 307 307 308 308 309 318 319 318 317 322 317 319 320 318 317 317 318 319 319 318
297 298 298 298 299 299 300 300 300 301 302 303 302 299 305 306 307 306 305 304 305 304 306 305 306 307 306 306 306 309 310 313 315 317 315 318 316 317 318 318 318 317 317 317 320 318 320
297 298 298 299 299 300 300 300 300 301 302 303 302 303 304 307 306 307 305 305 304 306 305 306 306 306 306 305 313 313 314 317 318 318 315 315 315 315 317 317 325 319 316 316 318 317 316
298 299 299 298 298 298 298 299 298 298 300 302 301 302 304 305 306 305 306 305 305 304 306 305 305 305 305 305 311 313 309 313 314 317 317 315 314 316 317 320 320 319 318 317 317 317 316
298 297 298 298 299 300 300 299 299 299 299 301 301 300 302 305 306 305 305 305 306 305 305 305 306 305 305 306 310 310 310 313 315 317 317 312 313 315 315 316 323 318 317 317 317 317 315
297 298 298 299 300 301 301 301 301 300 300 301 302 300 300 300 304 305 305 306 305 305 305 304 305 307 307 305 308 309 309 312 313 314 315 313 311 316 315 316 319 319 316 317 321 319 317
298 299 300 300 300 301 301 301 301 301 301 301 301 299 300 300 302 305 306 305 305 305 305 304 306 308 309 309 308 307 306 311 311 313 313 313 314 314 315 317 320 317 318 321 318 318 321
301 301 301 301 302 301 301 301 302 302 302 301 301 299 301 301 303 304 305 306 305 304 305 305 307 307 309 309 306 305 306 301 308 310 314 314 314 314 315 315 317 317 318 316 318 320 320

GFSGBSN_925_thetae_045.txt.gz
Theta_e
306 306 306 306 306 306 307 307 305 304 303 303 304 304 304 305 305 306 307 306 306 305 305 305 304 306 312 314 315 309 312 314 316 313 311 313 314 311 311 311 313 313 315 315 313 315 323
305 305 305 304 304 304 305 305 304 304 304 304 303 303 303 303 304 304 305 306 306 306 305 305 304 307 312 314 307 309 314 316 313 311 311 312 313 312 313 313 315 316 316 314 314 324 332
305 305 305 304 304 304 304 304 303 303 303 303 304 304 303 302 302 302 304 305 305 306 305 305 305 309 312 311 305 315 313 315 312 311 309 311 313 314 314 315 315 316 315 313 314 316 327
304 304 304 303 303 303 304 304 304 303 303 303 303 302 302 303 303 302 301 303 304 304 305 304 306 310 311 305 307 307 306 307 313 312 311 312 313 313 314 314 313 315 314 315 315 321 321
303 304 304 304 305 305 305 304 304 305 305 305 304 304 303 303 303 302 302 301 303 304 305 305 310 311 313 310 313 313 314 311 309 312 314 314 313 312 314 313 313 313 313 315 315 315 321
302 303 305 305 304 304 303 305 305 305 305 305 304 305 304 303 303 302 301 301 304 308 306 309 314 312 311 312 313 316 315 313 312 315 316 314 312 312 310 311 313 312 315 315 315 315 323
302 302 302 304 304 304 305 306 305 305 305 304 304 305 305 304 304 302 301 304 303 309 307 314 315 315 313 314 316 316 315 311 312 315 316 313 313 314 312 312 313 314 315 314 313 313 320
301 301 302 303 304 304 304 305 305 305 305 305 304 304 304 304 304 303 301 305 305 304 308 308 307 309 314 315 316 314 315 312 313 315 314 314 315 313 313 313 313 314 315 315 314 315 317
300 300 300 301 303 303 304 304 303 303 304 304 304 304 304 304 304 302 304 305 306 306 310 311 309 308 308 313 316 315 315 312 313 315 315 316 315 314 315 315 316 315 315 315 316 315 320
299 299 299 301 302 302 302 302 301 302 303 304 304 304 304 304 303 303 304 305 304 307 309 305 309 309 310 313 315 313 313 312 313 315 316 315 316 315 315 316 315 316 315 316 318 316 319
298 298 298 300 300 301 300 300 301 302 303 303 304 304 304 303 303 303 303 301 306 308 296 302 309 308 310 308 308 312 311 311 312 318 317 319 315 315 316 316 315 316 317 317 318 316 317
299 298 298 299 300 299 299 299 301 301 302 303 304 305 304 304 305 303 302 303 308 314 304 305 308 311 311 309 309 311 309 312 312 314 317 317 315 315 315 316 315 316 318 317 317 317 320
298 297 297 298 299 299 299 299 301 300 300 302 303 305 304 305 302 302 302 305 316 313 305 303 307 310 310 310 309 313 311 313 315 316 316 317 318 317 317 317 317 316 316 318 318 320 321
298 297 297 298 298 298 298 298 300 300 300 301 303 304 305 305 304 303 302 310 314 309 308 305 304 304 313 309 309 312 312 311 311 313 314 315 316 316 316 318 317 316 316 318 321 322 319
297 297 297 297 298 298 297 297 299 299 299 301 302 304 305 304 304 303 302 310 310 311 308 308 307 303 306 309 314 312 312 312 311 311 315 314 315 314 315 315 316 317 317 315 317 320 322
298 297 297 297 297 297 297 297 299 299 299 301 303 305 305 304 304 303 303 307 309 308 308 307 308 308 308 307 311 314 315 315 314 311 312 314 317 315 315 314 314 316 315 318 317 321 325
297 297 297 297 296 296 297 297 298 299 299 300 303 306 305 304 304 304 303 304 306 305 306 307 308 307 307 308 308 309 312 317 318 318 313 313 314 315 315 316 316 316 315 317 317 318 320
296 296 296 296 297 296 297 298 299 299 299 300 303 304 304 304 304 305 303 303 304 306 306 306 307 309 309 308 307 308 309 310 318 319 320 320 315 315 316 315 314 315 316 316 319 319 320
295 296 295 296 296 296 296 297 298 299 299 301 302 303 303 304 306 305 303 303 304 306 306 307 307 307 307 307 307 308 310 318 319 320 319 320 321 319 316 315 314 314 314 314 318 317 319
296 295 295 296 296 296 297 297 298 299 299 299 300 303 304 304 302 303 304 304 304 304 304 305 306 306 306 307 307 307 310 311 319 319 319 319 322 325 326 322 320 320 318 315 317 318 318
295 295 295 295 295 296 296 298 298 299 300 299 300 300 304 306 305 304 304 304 305 304 305 305 305 305 306 306 306 306 307 312 317 319 319 319 319 320 319 316 317 317 321 320 317 316 318
294 294 295 295 295 296 297 298 298 299 300 299 298 303 303 306 306 305 305 305 304 304 305 305 306 307 306 306 305 306 306 307 312 316 317 318 316 317 317 316 315 316 316 317 318 316 316
294 294 295 295 296 297 298 298 299 299 298 300 299 300 304 306 307 306 305 305 305 305 304 304 305 305 305 306 304 304 304 305 308 315 315 317 316 316 315 314 315 314 317 316 317 316 317
294 295 295 296 297 298 299 299 298 299 299 299 300 302 303 305 306 306 306 305 304 305 304 304 304 304 304 304 307 311 312 313 314 315 312 313 313 313 315 313 314 310 313 312 316 316 316
295 296 296 297 298 298 299 299 299 300 300 301 301 302 303 304 305 306 306 306 304 303 304 303 303 304 304 304 308 309 307 313 313 315 313 312 311 313 312 314 313 310 313 316 315 318 316
297 297 297 298 298 299 299 299 299 299 300 301 302 302 302 304 304 305 306 306 306 304 303 304 304 303 304 306 308 311 307 309 314 317 315 312 312 308 315 312 311 307 313 314 317 321 316
297 297 298 298 298 297 297 298 299 299 298 300 301 300 300 300 303 304 305 306 305 304 304 303 304 305 305 304 309 309 309 309 312 314 315 313 312 316 316 316 312 312 315 317 322 319 317
297 297 297 298 298 298 298 299 299 300 300 299 299 301 300 300 301 304 305 305 305 304 304 303 306 306 307 306 309 308 303 307 309 311 311 312 313 313 315 317 316 313 318 319 317 315 318
298 299 299 300 300 300 300 300 300 301 301 300 300 300 301 301 301 301 303 304 304 304 304 304 305 306 306 307 306 304 303 299 307 310 310 311 309 309 312 312 312 317 318 316 315 317 318

GFSGBSN_925_thetae_048.txt.gz
Theta_e
305 305 304 304 304 304 306 306 305 303 304 304 304 304 303 304 304 302 302 302 304 304 305 306 305 306 309 311 311 307 310 311 314 314 311 311 312 309 310 309 310 311 312 314 312 312 314
303 304 304 304 304 304 304 305 304 303 303 303 303 302 303 303 303 302 302 302 302 302 304 304 305 306 311 310 305 307 312 315 313 311 311 311 311 310 311 311 312 314 314 313 313 314 329
303 303 304 304 303 303 303 303 304 304 304 304 305 304 304 302 302 303 302 302 302 301 302 303 305 307 308 308 302 311 311 312 312 310 309 310 312 313 313 314 313 315 315 313 313 314 326
302 303 303 304 303 304 304 305 304 303 304 304 305 305 305 304 303 303 303 302 301 300 301 303 306 308 309 303 305 305 305 306 311 310 311 312 311 312 313 313 312 314 313 314 313 318 320
302 302 302 303 305 304 303 303 303 304 305 304 304 304 304 305 304 304 303 302 301 305 307 307 307 308 310 307 312 310 312 310 307 309 312 312 311 311 312 312 312 311 312 313 314 314 319
302 301 301 302 303 304 304 304 304 305 304 305 304 304 304 304 305 304 304 301 305 307 307 307 311 308 306 305 312 314 314 313 311 312 314 312 311 311 309 311 314 313 313 312 314 314 319
301 301 301 302 303 304 304 304 304 304 304 304 304 304 304 304 304 304 304 303 303 306 304 310 311 310 311 314 314 315 313 311 310 314 315 313 313 314 311 311 311 311 314 314 311 312 315
300 300 301 301 301 303 303 303 303 303 302 302 304 304 304 304 304 304 302 304 305 304 307 307 306 307 308 310 312 308 313 310 311 313 313 312 315 312 312 311 313 313 313 313 312 313 313
299 299 300 300 301 301 302 302 302 302 301 302 303 304 304 304 304 303 303 305 303 304 309 308 308 308 307 307 309 310 313 311 312 314 315 315 315 313 313 313 313 313 313 313 314 313 315
299 299 299 300 299 301 300 301 301 300 301 302 303 304 304 304 303 302 301 304 302 305 308 306 309 308 308 310 311 309 311 312 312 313 315 316 315 314 314 314 313 314 313 314 315 316 318
300 299 299 299 298 298 299 298 300 300 301 301 302 303 304 304 304 303 302 302 302 307 296 301 308 306 310 306 305 311 310 311 312 314 316 317 315 316 315 315 313 315 314 314 316 315 315
299 299 298 298 298 298 298 298 299 299 300 301 300 302 304 304 304 304 303 302 306 311 305 302 307 311 312 310 308 310 310 311 310 314 316 315 314 313 316 315 314 315 316 316 316 315 318
298 297 297 297 297 297 298 298 298 298 299 300 300 301 303 305 303 302 302 304 311 311 306 304 304 308 309 310 309 310 309 312 312 314 314 315 317 316 315 316 315 315 315 318 318 319 321
297 297 297 297 296 297 297 297 297 297 298 300 300 301 302 304 305 304 302 308 311 309 308 306 306 306 309 309 308 311 308 308 310 312 313 314 314 316 316 317 317 315 315 317 322 321 318
296 297 298 297 297 297 297 297 297 297 298 299 299 301 303 304 305 304 302 306 307 308 308 307 306 306 308 307 312 311 310 309 310 312 315 314 315 313 314 316 317 317 316 315 316 317 319
296 297 297 298 297 296 297 297 298 298 297 298 300 302 303 304 304 303 303 304 307 307 306 307 307 307 307 307 308 310 315 316 313 310 312 314 316 314 315 314 314 315 314 317 315 321 323
296 296 297 298 298 296 296 297 298 298 297 298 300 303 304 304 304 304 305 304 303 302 304 307 308 307 306 306 306 306 309 317 318 317 310 312 314 314 314 315 315 315 315 316 316 316 319
295 296 296 297 297 297 297 297 298 298 298 299 300 303 303 304 305 303 304 303 302 304 305 306 306 307 308 308 306 306 308 315 318 318 319 319 313 313 314 313 313 314 315 315 317 318 318
295 296 296 296 296 296 296 297 297 297 298 299 301 302 303 304 306 305 304 303 302 305 306 306 307 306 307 305 305 307 311 314 313 319 319 319 321 320 318 315 316 317 315 316 314 314 316
295 295 295 295 297 296 296 297 297 296 297 299 299 301 303 304 304 305 305 304 303 302 303 304 305 305 306 306 306 307 308 309 314 318 318 317 321 318 323 322 319 320 317 316 319 315 315
294 295 294 295 296 295 295 296 297 296 297 299 298 300 304 305 304 305 305 304 304 304 303 303 304 305 305 306 305 306 307 307 308 316 317 316 316 319 320 320 317 316 315 315 315 317 317
294 294 294 295 295 294 295 296 296 296 297 299 298 301 302 304 305 305 305 305 305 304 304 305 305 306 305 305 305 305 305 305 306 307 316 315 313 317 316 318 317 315 314 314 316 317 316
294 295 294 293 294 295 295 296 296 296 297 299 298 299 303 302 305 306 306 305 305 304 304 303 304 304 304 304 303 304 303 303 304 306 309 314 315 315 315 314 313 313 312 314 314 312 315
293 293 294 294 295 295 296 296 296 296 298 299 298 299 301 303 303 305 305 305 305 304 304 304 303 304 304 302 303 304 304 304 304 305 308 313 312 310 312 312 314 308 311 312 311 313 314
294 294 295 295 295 295 296 296 296 297 298 299 299 300 301 302 303 305 306 306 304 304 304 304 304 303 302 304 307 307 305 311 310 310 310 311 308 308 309 313 311 309 308 309 314 309 313
294 295 296 296 296 296 296 296 298 298 298 300 299 299 301 304 303 303 306 306 306 305 304 303 303 302 303 303 306 309 306 308 312 313 312 310 308 311 312 311 308 306 311 315 315 312 315
295 296 297 298 298 297 298 298 298 298 299 300 300 299 301 300 302 303 304 306 305 304 304 303 304 305 304 304 308 308 307 307 310 312 315 313 313 316 313 315 310 309 311 315 315 310 314
296 297 297 297 298 298 297 298 299 298 299 300 300 300 300 299 302 303 303 305 305 304 305 303 305 305 306 307 306 306 304 306 307 309 311 311 310 312 313 315 312 309 317 314 312 313 313
297 297 297 297 297 297 297 297 297 297 297 297 299 300 300 300 301 301 303 303 304 303 304 303 303 305 304 304 304 302 302 298 306 308 308 310 308 309 310 310 308 313 315 315 313 312 314

GFSGBSN_925_thetae_051.txt.gz
Theta_e
303 304 304 304 304 304 304 305 304 303 303 303 303 303 303 303 304 303 302 303 303 302 302 301 303 306 304 309 306 305 304 309 316 314 310 312 315 312 313 312 311 312 313 312 314 314 314
302 303 303 303 304 303 304 303 303 303 304 304 304 305 305 304 304 304 303 303 303 302 301 301 304 306 309 309 303 305 307 311 313 312 310 310 313 311 312 312 313 314 313 316 315 315 324
302 303 303 303 303 302 303 304 304 303 303 303 304 304 304 304 304 304 304 304 304 303 301 303 305 308 306 305 301 305 307 310 313 311 310 309 311 313 313 315 313 315 316 315 314 315 322
302 302 302 302 303 304 304 303 302 302 304 304 304 304 304 304 304 304 304 304 304 302 303 305 306 308 307 302 301 305 303 306 305 309 309 310 311 312 314 314 314 316 314 317 315 318 322
301 301 302 302 302 302 303 302 302 304 304 304 304 304 304 304 304 304 304 304 303 305 306 307 307 307 306 306 311 307 309 309 307 308 310 311 311 313 313 316 316 314 316 314 315 315 322
302 301 301 301 301 302 303 303 303 303 304 303 302 302 304 304 304 304 304 303 304 307 307 307 308 306 306 304 310 312 313 312 309 310 312 313 313 314 313 316 316 316 316 314 315 317 320
301 301 301 301 300 301 303 303 303 302 302 302 301 303 304 304 304 303 303 304 305 306 304 308 309 308 308 311 313 314 313 312 311 312 317 315 316 315 314 316 313 314 314 315 314 313 315
301 301 300 300 300 300 302 302 302 301 301 302 301 303 303 304 304 303 302 305 304 302 306 306 306 306 307 309 309 310 310 312 312 313 315 315 318 315 313 313 314 314 315 316 314 313 314
299 300 299 299 300 299 301 302 301 301 301 301 301 302 303 304 304 303 302 304 302 302 308 307 307 307 307 306 308 308 311 311 312 313 316 318 316 314 314 314 315 315 316 316 316 314 315
300 300 299 299 300 299 299 300 299 299 300 300 301 301 302 304 303 303 303 303 303 302 310 307 309 309 307 308 308 307 309 312 312 313 315 316 315 314 314 315 315 317 314 315 315 316 315
299 299 299 299 298 299 297 298 298 297 299 300 301 300 301 303 305 303 303 303 302 306 302 302 307 306 308 308 305 310 307 310 314 314 316 316 316 316 315 315 314 316 315 316 316 316 318
298 299 299 298 298 298 297 298 297 298 297 299 299 300 300 303 303 303 302 302 305 311 308 304 307 311 310 310 309 310 310 310 311 315 316 314 314 315 315 314 315 315 316 317 317 319 323
298 297 298 298 298 298 297 297 297 297 297 298 299 299 300 301 304 303 303 302 309 309 306 306 307 306 306 309 310 310 311 311 312 314 318 317 316 315 314 316 315 316 318 319 322 323 324
298 297 298 298 298 298 296 297 297 297 297 297 298 299 299 300 303 305 302 306 309 307 309 307 307 307 307 308 309 309 310 310 311 313 313 316 317 317 317 318 318 317 318 321 322 324 321
298 297 297 297 297 296 297 296 296 296 297 296 298 299 300 301 302 304 304 305 307 307 307 307 307 307 307 307 309 310 309 309 309 312 316 316 315 314 316 317 318 317 318 317 319 319 322
296 297 297 297 297 296 298 296 296 296 297 297 299 299 300 301 303 303 305 305 304 306 306 306 308 306 307 307 306 307 313 317 317 312 312 315 317 314 314 315 316 318 317 320 319 321 322
296 297 296 296 297 296 297 296 295 296 296 298 299 300 301 302 304 304 306 304 303 302 302 305 307 307 308 308 307 306 308 313 314 319 311 313 315 315 315 316 316 317 318 317 318 320 322
296 296 295 295 296 297 296 297 297 297 297 298 299 299 301 304 303 304 306 304 302 302 304 305 306 306 308 306 306 307 308 315 310 319 320 319 314 316 314 314 313 314 316 317 321 320 320
295 295 295 295 296 296 296 296 297 297 297 298 300 299 300 303 304 304 306 305 302 304 304 306 307 306 307 306 306 306 309 311 309 318 321 319 319 321 319 315 318 320 319 318 318 316 319
294 295 295 295 295 295 295 295 296 296 296 298 299 301 301 302 303 304 306 305 304 301 302 304 304 305 306 307 306 307 307 308 308 313 318 317 320 319 320 319 319 319 316 315 317 322 320
294 294 294 295 295 295 295 296 296 296 295 297 299 299 301 303 302 304 304 306 304 304 302 303 304 305 306 307 306 306 306 306 306 309 316 316 316 318 316 316 318 317 315 314 315 316 317
294 294 294 294 294 294 295 296 296 296 297 297 298 301 301 302 303 303 304 306 305 304 304 304 304 305 305 306 306 306 305 305 306 306 313 310 315 317 317 317 317 316 314 314 314 314 315
294 294 294 294 294 295 296 296 295 296 296 297 297 298 301 301 301 303 304 305 305 304 304 304 304 304 305 305 305 305 305 305 305 305 306 308 315 315 315 314 313 314 314 314 313 313 314
293 293 293 294 294 294 294 294 294 295 296 296 297 299 300 301 302 302 303 304 305 305 305 304 304 304 304 304 305 304 304 304 305 305 305 309 313 312 315 313 314 310 310 311 312 312 312
293 293 294 294 294 294 294 294 295 295 295 296 296 298 301 300 301 302 302 304 305 304 304 304 304 303 303 304 306 308 308 310 310 309 308 308 312 314 315 314 312 310 309 309 310 309 312
293 293 294 294 294 294 294 294 294 294 294 296 297 298 299 302 301 301 303 304 305 305 305 304 304 304 304 306 307 307 309 309 310 311 312 310 311 315 314 313 313 308 313 315 314 313 315
293 293 294 294 295 295 296 296 296 295 295 296 297 298 299 299 300 301 302 303 304 305 306 304 305 304 303 307 307 307 307 307 309 311 311 311 311 314 315 314 313 310 310 312 314 313 313
294 294 294 295 296 296 297 297 297 297 296 297 298 299 298 299 301 301 302 303 304 304 306 304 305 305 306 306 307 307 308 308 307 311 311 310 312 313 314 315 314 309 316 316 313 314 314
295 295 296 296 296 297 297 298 298 297 297 298 299 299 298 299 301 301 302 302 303 303 304 304 305 305 306 306 306 306 307 305 308 310 309 313 311 312 313 313 310 310 314 315 312 314 315

GFSGBSN_925_thetae_054.txt.gz
Theta_e
303 303 303 303 304 304 305 304 303 303 304 304 303 304 305 305 306 304 304 304 304 304 304 303 303 306 308 308 304 304 303 307 317 316 313 316 314 313 314 315 317 317 317 317 317 317 319
302 302 302 303 303 303 304 304 304 304 303 303 303 304 304 304 304 304 304 304 304 304 304 304 306 306 308 308 304 304 304 309 313 316 317 315 315 315 316 316 317 317 317 317 318 319 319
302 302 302 302 302 304 304 304 303 302 302 304 305 303 304 304 304 304 304 304 304 304 304 304 306 306 308 307 305 305 305 306 310 312 314 316 315 314 315 316 316 316 317 318 318 319 319
303 302 302 302 301 302 302 303 302 302 304 303 304 303 303 304 304 304 304 303 303 303 303 306 307 307 306 305 304 304 306 306 305 310 312 312 313 314 316 316 317 317 318 319 318 318 319
302 302 302 302 301 301 301 301 302 303 303 303 303 302 303 304 304 304 303 303 303 305 306 307 308 309 306 305 308 309 308 307 307 307 311 313 313 315 315 317 318 318 319 319 319 318 320
302 302 303 302 300 301 301 302 302 301 301 302 302 302 304 304 304 304 303 303 305 308 308 308 308 309 306 304 309 312 312 312 310 308 314 315 316 315 315 317 319 319 319 318 318 318 319
302 303 302 301 301 302 301 301 303 301 301 301 301 302 303 304 304 304 304 307 307 308 304 306 308 308 308 311 311 313 314 314 313 312 315 317 318 317 316 316 317 317 317 317 316 317 317
302 301 300 301 300 301 301 301 303 301 300 300 301 302 303 303 304 303 305 307 304 303 305 306 307 307 306 307 309 311 313 315 316 313 313 319 319 318 317 317 316 316 316 317 316 316 316
300 300 301 301 300 300 301 300 300 300 299 299 300 301 301 302 304 304 305 307 304 304 307 308 309 308 308 307 307 308 313 313 315 317 312 318 316 317 318 317 317 317 316 317 317 317 317
299 299 300 301 300 300 299 300 298 298 298 298 300 301 300 302 304 305 306 305 305 304 312 307 308 309 309 307 307 306 307 314 313 314 314 315 314 316 318 317 317 318 317 317 317 318 317
300 300 298 300 300 298 298 298 297 299 297 298 299 299 300 301 305 306 305 305 304 307 308 304 308 308 309 308 307 309 308 307 310 314 314 317 314 316 317 317 316 317 316 318 318 319 318
299 299 299 298 299 298 298 298 297 297 297 298 298 299 300 303 304 304 304 305 307 314 307 305 307 308 310 309 308 310 309 308 308 313 316 316 314 314 315 315 316 316 317 318 319 318 321
299 298 298 298 299 298 298 298 296 296 297 297 297 298 300 302 305 304 304 306 312 307 307 309 308 309 309 309 311 310 311 309 309 309 314 316 315 317 316 315 316 316 318 321 321 321 321
298 297 298 298 298 298 298 297 296 297 296 297 297 298 300 301 303 304 305 308 309 305 308 309 309 308 309 309 311 310 312 310 310 309 309 312 315 316 317 317 318 318 319 320 321 323 322
297 297 298 297 297 297 297 296 296 296 296 296 296 299 300 301 302 304 305 308 304 306 307 309 308 308 308 308 309 311 312 312 310 312 311 311 312 315 317 317 317 319 320 319 320 322 324
296 297 297 297 297 297 296 296 297 296 296 296 299 299 300 301 304 305 305 304 305 307 308 308 309 309 309 309 308 309 314 315 317 312 314 315 316 315 317 318 318 320 319 321 321 322 323
296 296 296 296 297 296 296 296 296 297 295 296 299 301 300 302 304 305 306 305 305 304 305 307 309 309 308 308 308 307 311 313 313 320 315 314 317 318 316 318 319 320 321 319 321 321 323
295 295 296 295 296 295 293 296 296 296 294 297 299 301 303 303 305 304 305 304 304 304 305 305 306 307 308 308 308 308 307 312 311 315 318 313 316 318 317 316 317 319 319 320 321 322 322
295 295 296 295 295 295 295 296 297 296 295 298 300 299 301 303 304 304 304 305 305 305 305 305 307 307 307 308 308 307 308 310 309 313 318 319 316 315 316 316 317 319 319 319 320 320 323
295 295 295 295 295 295 294 295 296 295 295 297 300 301 301 303 303 305 304 305 305 305 305 305 306 307 307 308 308 307 307 307 308 309 313 317 318 317 314 315 318 321 318 317 320 323 321
294 294 294 295 294 295 295 294 295 295 295 296 298 300 301 303 302 302 304 305 306 305 304 305 305 306 307 309 308 308 307 308 307 308 314 316 317 316 315 315 314 316 317 316 317 318 319
294 294 295 295 294 294 294 295 294 295 296 296 298 299 301 301 302 303 303 304 305 305 305 305 305 306 306 308 309 308 307 308 308 308 311 313 313 314 313 312 315 316 314 314 315 314 315
294 294 294 294 295 295 295 295 294 295 296 296 296 297 300 300 301 303 303 304 303 305 305 305 305 306 308 307 307 307 307 307 308 308 309 311 316 314 311 314 313 312 314 314 315 315 314
293 293 294 294 294 294 294 295 294 295 295 295 296 297 299 299 301 302 301 301 303 303 306 305 305 306 306 305 306 306 307 308 308 308 308 309 316 317 314 316 313 310 312 312 313 312 312
293 293 293 294 294 294 294 295 295 296 295 296 295 297 299 300 299 300 301 301 302 304 305 306 305 305 304 305 309 309 310 311 310 308 308 308 313 315 316 315 312 311 309 310 311 309 312
293 293 293 293 293 294 294 294 294 294 294 295 296 296 298 298 301 300 301 301 303 303 304 304 304 304 304 307 311 309 310 309 311 311 308 309 310 314 315 312 312 311 313 314 314 312 315
293 293 293 293 293 293 294 293 293 294 294 295 295 296 297 297 298 299 302 302 303 304 305 305 305 306 305 309 309 309 308 308 311 312 313 312 312 314 313 316 313 311 310 312 317 318 314
294 294 294 293 293 293 293 294 294 294 294 295 295 296 297 297 298 301 300 301 302 303 304 305 306 305 305 310 309 308 309 308 308 311 311 311 312 313 312 314 315 311 312 314 319 315 314
296 295 295 294 294 294 294 294 295 295 296 296 296 296 297 297 299 299 299 301 301 302 304 304 306 306 307 308 307 308 309 309 308 309 310 314 311 312 311 313 312 313 315 313 314 315 315

GFSGBSN_925_thetae_057.txt.gz
Theta_e
303 304 303 302 303 303 304 305 304 304 304 304 303 304 305 305 306 305 304 304 304 304 304 304 305 307 306 311 313 310 304 309 319 318 317 317 318 318 317 317 317 318 318 319 318 318 319
303 302 302 302 302 303 305 305 304 303 302 301 302 305 304 303 304 304 304 304 304 304 304 304 305 307 309 311 310 308 308 306 310 318 317 317 318 317 316 316 317 318 319 318 319 319 319
303 303 302 302 302 301 303 302 302 302 302 303 304 304 303 303 303 304 304 304 304 303 303 303 306 308 309 310 308 308 310 309 307 306 313 319 318 316 316 317 318 318 319 319 319 319 319
303 303 303 303 301 302 302 301 301 303 303 302 303 303 303 304 304 304 304 304 303 303 304 306 307 310 310 307 307 308 308 309 312 306 309 314 316 318 317 317 318 319 318 319 320 320 320
303 303 303 303 302 301 301 300 302 303 302 301 301 302 302 303 304 304 304 303 305 305 307 307 311 311 310 306 307 306 307 312 312 308 307 312 314 316 318 318 320 321 321 320 321 321 320
302 302 303 303 302 300 302 301 300 303 302 301 300 302 303 303 303 304 304 306 307 308 310 310 310 312 311 307 309 312 312 309 314 311 309 310 314 316 317 319 321 322 322 322 322 322 320
303 303 302 302 302 302 301 303 301 301 302 300 300 301 302 302 303 304 306 309 310 313 309 309 310 312 310 310 309 312 315 315 315 313 311 312 313 316 318 319 320 320 322 322 322 320 319
301 301 302 302 301 301 300 302 301 300 301 300 299 299 301 301 302 303 307 309 308 307 310 308 309 309 308 308 308 310 314 315 318 318 313 313 315 314 315 317 318 318 320 321 321 319 318
300 300 300 300 301 302 301 301 301 300 299 299 298 298 300 301 302 306 307 308 307 307 310 310 310 310 310 309 308 308 312 313 318 317 318 316 315 316 316 318 318 319 320 320 320 320 319
300 300 300 300 300 301 301 300 300 299 297 298 298 298 299 300 304 307 307 307 307 307 313 309 310 311 311 309 309 308 309 314 313 318 317 318 315 317 318 319 320 321 320 319 319 320 321
300 299 299 299 299 299 300 299 298 299 297 297 297 298 298 300 303 306 306 307 307 308 315 306 311 310 311 310 309 309 308 308 314 314 316 317 316 315 316 319 319 320 319 320 319 320 321
300 300 299 300 297 298 297 298 298 299 297 296 297 297 298 301 304 306 306 307 309 317 313 307 308 310 310 311 311 309 311 309 309 312 313 316 316 317 316 316 317 318 318 319 320 321 324
298 298 299 299 298 297 297 298 298 298 297 296 297 297 297 301 303 305 306 309 314 312 308 310 309 309 310 311 312 311 312 311 309 311 313 312 316 317 315 316 317 317 319 322 323 325 325
298 298 297 298 298 298 298 297 298 297 296 297 296 296 298 300 302 304 307 311 311 307 307 309 309 309 309 311 313 312 313 314 309 312 314 313 317 316 317 316 316 318 319 322 324 328 325
297 297 297 298 298 298 298 298 295 296 297 296 296 297 299 301 302 303 308 312 307 307 307 308 307 307 308 311 311 312 313 316 312 310 312 313 311 314 316 317 316 319 320 318 322 323 328
297 296 296 297 297 296 297 296 296 296 297 297 297 298 300 301 302 304 307 307 306 306 308 307 306 308 309 310 312 312 315 316 316 313 312 313 313 312 315 317 317 317 319 320 321 325 326
295 295 296 296 296 297 297 296 295 296 297 296 297 300 302 302 303 306 309 306 305 305 307 307 307 309 309 310 310 311 314 315 315 315 314 313 316 315 316 318 318 317 320 322 321 322 325
295 295 295 296 296 296 295 295 294 295 296 296 298 301 302 303 305 305 307 305 305 305 306 306 307 309 309 309 310 310 311 311 313 314 321 315 317 317 320 316 318 319 320 322 324 326 324
295 294 295 295 296 295 295 296 296 296 296 298 299 300 300 303 306 307 304 304 304 305 305 306 306 307 307 309 309 309 309 310 310 311 315 318 316 318 320 319 318 318 319 320 322 323 326
295 294 295 295 296 296 295 295 295 295 296 297 300 303 301 305 305 305 304 305 305 305 306 305 306 307 308 308 308 309 309 309 309 309 312 316 320 316 317 319 318 320 320 320 321 325 324
294 294 295 295 295 295 295 296 296 296 295 296 299 301 302 304 303 304 305 307 305 306 305 305 306 306 307 308 308 309 310 309 309 309 310 316 321 320 316 317 317 319 320 319 320 321 322
294 294 294 294 295 294 295 295 295 295 295 296 301 300 301 302 303 303 304 305 306 306 306 305 306 306 307 307 308 310 309 310 311 309 310 315 318 316 319 315 315 317 317 318 317 317 317
294 294 294 294 295 295 295 294 294 294 295 297 297 298 301 301 301 304 305 302 303 303 305 307 306 307 307 307 308 309 309 309 310 310 311 312 313 317 318 315 314 315 316 317 317 317 317
293 294 294 294 294 294 295 295 294 294 295 295 297 298 300 301 301 302 302 304 304 304 304 306 306 308 307 307 308 307 308 308 308 309 310 311 313 314 318 316 320 314 313 313 315 315 315
294 294 294 294 294 294 295 295 294 294 295 297 296 298 299 301 300 300 302 303 302 303 304 305 306 306 307 307 307 308 310 310 311 310 310 310 312 315 315 316 314 312 312 312 312 311 311
293 293 294 294 293 293 294 293 294 294 295 296 296 297 298 300 300 300 300 301 303 303 304 305 305 305 305 307 311 310 311 310 311 311 310 310 311 315 315 315 314 312 313 314 312 312 315
295 295 294 294 293 293 293 293 293 294 295 295 297 296 298 298 299 299 301 303 303 303 305 305 306 305 305 309 310 312 312 310 313 313 312 313 312 313 314 314 312 311 312 311 316 317 315
295 295 296 295 294 294 294 294 294 294 294 295 296 296 297 299 299 299 300 300 302 304 306 305 305 305 306 310 309 310 311 310 310 312 312 311 312 313 313 314 314 312 312 313 318 315 315
297 297 297 297 295 294 294 293 293 293 293 293 295 295 296 298 298 298 298 298 300 301 302 304 306 307 307 309 309 310 311 311 310 311 313 312 311 312 311 313 313 313 316 315 314 314 314

GFSGBSN_925_thetae_060.txt.gz
Theta_e
304 304 304 304 303 303 305 306 305 304 303 302 301 302 305 306 305 303 303 304 304 304 304 304 305 307 308 308 311 311 311 308 314 318 316 316 319 318 319 320 318 318 318 319 319 319 318
304 304 303 304 302 302 303 304 303 302 303 303 303 303 304 303 302 302 303 304 303 304 304 304 305 307 309 310 309 311 310 309 308 317 318 317 317 317 318 318 318 318 318 318 318 319 319
304 304 304 303 302 301 301 302 301 301 303 303 303 302 303 302 301 302 303 303 303 304 304 304 307 308 309 308 308 308 310 312 312 307 307 309 314 320 319 318 317 317 316 318 319 319 319
305 304 304 304 303 302 301 301 300 302 304 303 302 301 301 301 301 301 303 303 303 304 306 306 307 310 311 308 308 308 308 309 310 312 309 307 310 316 318 318 317 317 319 319 319 320 320
304 304 303 303 304 302 301 301 301 301 303 303 301 300 300 300 302 301 302 303 305 307 306 309 311 311 312 309 308 309 307 311 312 314 311 309 308 314 316 318 318 318 319 320 319 320 320
304 304 303 304 302 303 303 302 303 301 300 302 302 301 299 299 301 301 302 305 309 309 309 311 312 312 313 310 310 311 312 310 312 315 313 312 309 311 316 318 319 318 321 321 321 321 322
302 303 303 303 303 303 302 302 301 302 301 300 301 301 299 299 301 301 303 307 310 312 311 312 310 313 312 309 310 310 314 312 315 316 316 312 310 310 316 317 318 319 320 322 323 323 322
302 302 302 301 301 302 303 303 301 301 301 300 300 298 298 298 299 301 305 310 308 308 310 308 309 309 309 309 309 310 314 316 317 320 318 318 313 309 312 317 317 318 320 321 322 321 320
301 301 301 301 300 300 301 303 302 301 299 298 298 298 298 298 298 305 308 307 308 308 310 310 310 310 311 311 310 309 309 315 315 317 321 321 316 314 313 313 315 318 320 320 320 321 321
301 301 301 301 301 301 300 300 300 301 299 299 298 297 298 297 302 305 307 307 308 308 312 315 312 312 312 310 311 309 309 312 313 317 319 321 319 317 318 315 315 318 319 319 320 321 322
300 300 300 301 300 299 298 299 297 300 299 299 297 297 297 297 301 303 307 306 308 308 318 308 311 311 312 311 311 310 308 309 312 315 319 323 319 320 319 318 317 319 321 321 321 321 322
300 300 299 299 300 299 298 297 298 298 298 298 297 296 297 299 301 305 306 307 309 316 320 308 310 311 310 312 312 310 311 308 308 309 316 316 316 318 317 316 317 317 320 321 321 322 324
298 298 299 299 298 299 299 298 299 298 298 298 297 297 297 299 301 302 303 307 317 316 309 309 310 309 309 310 312 312 313 311 309 310 311 313 314 313 317 319 316 317 319 322 323 325 326
296 297 298 298 298 297 299 298 298 297 297 297 297 297 298 298 299 302 304 310 313 309 310 309 309 309 308 311 313 313 314 314 311 310 312 318 317 312 315 318 317 317 319 323 327 330 325
297 297 297 298 297 298 298 297 298 297 297 296 297 298 299 299 300 302 305 311 308 309 308 308 308 306 306 310 311 313 314 316 314 310 313 316 316 314 317 318 316 318 321 319 324 323 327
297 297 297 297 297 297 297 296 296 297 296 296 298 299 299 299 302 303 306 306 308 307 307 308 306 305 308 310 310 312 317 317 317 313 311 312 315 314 314 316 317 318 318 321 320 324 328
295 296 296 296 296 297 297 297 296 296 296 296 298 299 299 301 302 306 306 306 306 306 306 308 308 306 309 309 310 311 313 317 316 316 316 313 314 315 315 315 318 318 319 321 322 321 328
294 295 296 296 296 296 296 297 296 296 296 297 298 301 301 302 306 304 305 306 305 306 306 305 307 308 309 310 310 310 311 312 312 313 318 319 316 316 318 317 316 316 318 319 325 327 324
295 295 296 295 295 296 296 296 295 296 297 297 300 300 299 303 306 305 304 304 304 305 305 306 306 306 307 307 308 309 310 311 310 310 314 313 317 319 317 319 319 317 317 319 320 325 331
295 295 295 295 295 295 296 296 295 295 295 296 299 301 301 305 303 305 305 305 305 304 304 305 306 307 306 307 308 309 309 310 310 309 313 310 319 320 319 322 321 321 320 321 322 328 330
294 294 294 295 295 295 294 296 295 295 295 296 299 300 301 304 304 303 304 307 306 305 305 305 306 306 306 307 307 308 308 308 309 312 311 315 321 320 319 319 318 319 321 320 322 325 328
294 294 294 295 294 294 295 296 296 296 296 296 297 299 299 300 302 304 304 304 305 306 306 306 305 305 306 306 307 307 308 312 310 312 311 315 317 317 319 319 317 317 320 323 322 319 320
294 294 294 294 294 295 295 295 295 294 294 296 296 297 300 301 302 302 305 303 303 304 305 308 307 307 306 308 309 310 310 311 311 312 312 313 315 319 320 317 317 318 316 320 319 317 317
294 294 294 294 294 294 295 295 295 295 294 295 296 298 299 300 299 301 302 304 305 303 304 303 307 308 308 309 309 309 308 308 309 309 309 311 311 314 318 319 320 315 314 314 316 316 316
294 294 294 294 294 295 294 295 295 294 294 295 296 298 299 300 299 300 300 302 303 304 305 305 305 308 307 309 309 307 308 308 309 309 309 310 311 315 320 318 318 317 313 312 313 314 314
293 294 294 294 294 294 294 294 294 294 294 295 296 297 295 300 300 299 300 301 303 304 304 304 306 307 306 307 307 308 308 308 309 309 309 310 312 314 316 317 319 314 313 313 312 314 315
294 294 294 294 294 294 294 294 293 294 294 295 295 296 297 299 299 299 302 302 303 304 305 305 307 306 305 307 309 308 309 308 311 312 313 312 313 314 315 315 314 311 312 312 314 319 316
294 295 295 296 295 295 295 294 294 293 294 295 295 296 297 299 299 299 299 299 300 303 307 306 306 305 306 307 308 308 310 311 312 312 313 313 314 315 313 313 314 311 312 312 319 316 315
295 295 296 296 298 296 295 294 294 293 293 294 295 296 297 298 298 298 298 298 298 299 302 305 305 304 306 307 308 310 312 313 311 312 313 315 311 312 311 311 314 314 317 315 315 315 313

GFSGBSN_925_thetae_063.txt.gz
Theta_e
304 304 304 304 305 304 303 305 303 302 302 303 304 303 305 305 305 305 300 300 302 302 303 303 304 307 307 308 309 306 308 310 308 316 316 314 311 313 316 318 318 318 317 316 316 316 317
304 304 304 304 304 303 304 303 302 301 302 304 304 303 302 301 302 301 299 300 301 302 302 303 306 307 306 308 304 306 308 309 309 309 314 315 315 315 316 317 317 317 317 316 316 315 316
305 305 305 304 304 303 302 301 301 301 302 304 304 303 301 300 300 299 299 299 301 301 302 305 307 308 307 307 305 306 308 308 310 312 307 308 307 308 314 318 316 317 316 315 315 314 315
305 305 304 304 303 303 302 301 300 301 302 303 303 303 301 300 299 297 298 299 300 304 305 307 307 309 309 306 307 309 308 308 308 310 310 311 308 307 314 316 318 317 315 315 316 316 317
304 305 304 303 303 302 303 302 301 301 303 301 300 301 300 299 299 297 298 299 307 309 308 308 309 310 313 311 310 309 309 307 309 311 310 312 309 307 311 315 317 317 316 316 317 317 317
303 303 303 304 303 304 303 303 302 301 302 301 302 301 299 298 298 297 299 305 308 309 310 310 311 312 312 312 310 310 310 312 309 312 315 312 309 306 310 314 318 318 317 316 317 318 318
302 302 303 303 302 302 303 303 303 301 301 301 300 299 298 297 298 297 299 305 306 308 306 309 312 314 312 310 307 308 312 312 314 316 318 313 309 308 308 313 315 317 318 318 316 318 322
302 302 302 302 301 301 301 302 302 302 301 300 298 298 297 297 298 297 306 306 308 308 308 308 308 308 308 308 309 308 309 314 317 319 318 318 314 312 310 310 316 317 317 317 318 319 321
302 302 302 301 301 301 301 301 301 300 301 300 298 298 297 297 297 305 304 306 308 307 307 308 309 309 310 310 310 309 307 314 316 318 320 321 317 315 315 311 310 316 317 318 319 319 318
301 301 301 301 302 302 301 300 299 298 299 299 299 298 296 297 301 299 302 306 307 308 310 311 311 311 311 310 310 310 308 307 314 315 320 321 318 317 318 320 315 312 314 316 317 318 319
300 300 300 300 300 300 299 298 297 298 298 298 299 298 296 296 297 300 304 305 306 308 313 315 312 311 312 310 311 308 308 308 310 317 319 320 320 320 319 318 318 319 316 317 318 320 318
299 299 299 300 299 298 299 298 298 299 298 298 299 298 297 297 299 300 301 303 307 313 314 308 311 311 312 311 312 310 308 308 308 309 316 316 317 319 320 319 319 318 319 319 318 320 323
297 297 298 298 299 299 297 298 297 299 297 298 298 297 297 298 298 298 300 304 310 312 311 309 310 310 309 309 312 311 311 307 305 306 308 312 316 315 317 319 318 318 320 322 324 324 323
296 297 297 298 298 298 298 298 298 297 298 296 297 297 296 297 298 298 300 307 310 310 312 310 309 309 309 308 311 312 312 311 306 307 310 312 320 314 314 314 320 319 318 323 326 326 324
296 297 297 298 297 298 298 298 297 297 298 297 296 297 298 298 299 299 303 306 307 306 307 309 309 308 307 307 310 312 313 313 313 309 310 315 317 315 313 315 317 320 320 317 321 323 326
295 297 296 297 297 297 297 297 296 296 296 296 298 298 298 298 300 301 304 303 304 305 306 307 308 308 306 309 310 310 316 318 319 315 310 312 315 314 314 315 317 318 317 322 323 329 330
295 296 295 296 296 297 296 297 297 296 295 296 297 297 298 299 299 302 303 303 302 303 304 306 307 308 308 309 309 310 315 317 315 315 314 316 314 314 314 316 318 319 321 322 323 323 326
295 296 296 295 296 296 296 296 297 296 296 296 297 296 300 300 302 303 302 302 302 302 304 305 306 308 308 308 310 310 310 314 311 312 316 314 318 316 312 312 314 317 319 322 328 328 326
295 295 295 296 296 295 296 296 296 295 296 296 298 296 297 300 304 301 302 302 302 302 304 305 306 306 306 306 307 308 309 312 310 310 312 310 317 319 318 317 317 318 316 319 320 322 328
294 295 295 295 295 296 296 296 296 294 296 296 297 297 297 298 299 303 304 304 303 303 303 304 304 304 306 306 306 307 309 310 311 311 312 310 315 320 321 321 321 322 321 317 318 324 325
294 294 294 295 295 295 295 295 294 295 295 295 296 297 298 301 299 301 302 303 304 307 305 304 303 304 305 307 307 308 308 308 309 313 312 314 317 318 317 317 320 320 320 320 321 321 328
294 294 294 294 294 295 294 294 294 294 295 295 295 295 296 298 299 301 303 302 303 302 306 306 306 305 304 306 307 309 311 311 313 312 313 313 315 316 317 317 317 320 319 320 322 323 324
295 295 295 295 295 295 295 295 294 294 295 295 295 295 296 298 299 299 300 302 303 304 303 305 307 308 308 309 308 308 308 310 310 311 312 314 314 315 318 314 318 318 317 322 321 321 322
294 294 294 294 294 295 295 295 295 295 294 295 295 296 296 296 297 297 298 299 301 304 304 305 305 307 307 308 307 308 308 308 310 310 310 311 311 313 315 314 321 318 316 318 319 319 319
294 294 294 294 294 294 295 294 295 295 294 294 295 296 298 294 297 297 298 299 300 302 303 305 305 307 307 308 307 307 306 307 307 307 308 308 309 310 315 317 316 315 316 313 317 316 315
294 294 294 294 294 294 294 294 294 294 295 294 295 295 296 296 294 297 298 299 301 302 304 304 306 305 305 304 304 307 306 307 308 309 308 308 308 309 311 315 318 315 314 314 313 319 316
294 294 294 294 294 294 294 294 294 294 295 295 294 294 295 295 295 295 297 300 300 300 303 304 305 305 304 304 302 306 306 307 308 310 311 309 309 310 310 312 315 314 313 313 315 320 316
293 293 294 294 294 294 295 295 295 294 294 295 295 295 295 296 297 297 298 298 299 301 303 302 302 305 303 302 302 303 304 307 308 310 313 311 311 311 309 310 312 311 313 315 316 314 313
294 294 295 295 296 295 296 295 294 295 294 294 295 295 295 295 296 296 297 298 298 298 300 301 300 303 305 305 303 305 304 306 310 312 312 313 313 311 310 309 312 315 316 314 312 312 311

GFSGBSN_925_thetae_066.txt.gz
Theta_e
305 304 304 304 304 304 304 304 303 301 301 303 304 305 304 304 304 303 299 298 298 299 301 302 306 308 306 306 307 302 306 306 308 311 317 314 313 309 310 312 314 317 318 317 316 315 315
304 305 304 304 304 303 303 302 301 301 302 303 304 304 303 302 303 301 298 296 297 298 299 301 306 307 306 305 303 305 306 307 308 311 310 314 311 308 312 314 314 316 317 317 316 316 314
305 305 305 305 304 303 302 302 301 302 302 303 304 302 301 301 300 299 298 296 297 298 302 305 306 308 306 305 302 303 305 308 308 308 310 309 308 306 308 314 316 316 315 315 315 313 313
304 304 304 304 303 303 302 303 302 301 302 303 302 301 300 299 298 298 297 296 300 307 306 307 307 308 308 304 307 309 308 308 308 307 309 309 310 306 308 313 315 317 315 315 315 314 314
303 304 304 304 303 304 303 303 302 302 302 301 301 300 299 298 297 297 296 301 307 308 308 308 308 308 311 311 311 309 309 308 307 310 311 312 310 306 307 313 314 316 316 316 316 315 315
303 303 303 303 303 303 303 303 303 303 302 300 300 299 298 297 297 297 298 307 308 311 310 309 310 311 311 312 309 308 308 308 307 312 314 311 309 305 305 311 318 317 317 315 315 315 315
303 302 302 303 302 302 302 302 302 301 303 301 300 298 298 297 297 296 302 307 307 306 306 307 312 313 312 311 309 307 307 310 314 315 316 313 310 312 305 308 313 315 316 316 316 315 316
302 302 302 302 302 302 302 301 301 301 300 301 300 298 298 297 297 297 304 306 307 308 308 306 307 307 308 308 308 308 308 310 315 316 317 317 315 312 309 308 310 314 316 317 316 316 317
301 301 302 302 302 302 302 302 301 299 298 298 299 298 298 297 296 301 299 303 303 307 306 307 307 307 307 307 307 308 306 312 315 318 318 319 318 317 313 312 312 311 312 316 317 316 317
300 301 300 301 301 300 300 299 299 299 298 298 297 298 298 297 299 297 301 302 304 307 309 309 310 311 309 309 309 308 307 312 314 316 318 319 318 318 318 316 316 320 311 311 315 317 320
300 299 299 299 300 298 298 299 299 298 298 298 297 299 298 296 298 299 300 300 304 307 306 310 311 310 310 310 309 308 307 306 308 317 317 317 319 320 319 317 317 318 320 319 319 318 317
298 298 298 298 299 299 298 297 297 298 297 298 296 298 298 297 297 297 298 301 306 310 308 310 311 311 311 310 311 307 307 307 307 309 316 315 317 318 317 318 318 320 320 320 317 317 321
298 297 297 297 298 299 299 298 298 298 297 298 297 297 298 298 297 296 298 301 306 309 306 310 310 311 311 312 311 310 308 306 306 306 307 308 314 316 318 320 318 319 321 323 325 322 324
296 297 297 298 298 298 298 298 298 296 297 297 298 296 296 295 295 296 298 304 307 306 308 308 307 308 308 308 310 311 309 306 305 304 307 308 312 311 318 318 320 319 322 324 330 328 324
296 295 297 297 298 297 297 297 297 295 296 297 297 296 297 295 296 298 300 299 303 303 305 306 306 307 306 307 307 311 311 311 308 304 307 311 315 312 315 316 316 319 324 320 322 322 326
295 295 296 296 296 296 297 296 297 296 297 296 297 297 297 296 296 299 301 299 302 302 303 303 306 308 308 308 309 309 312 317 319 315 308 310 314 312 313 315 316 318 319 324 326 329 329
294 295 296 296 295 296 296 296 296 296 296 296 296 295 296 297 297 301 301 299 300 300 300 304 305 306 307 308 307 310 316 317 315 315 314 315 313 312 313 315 318 319 322 321 322 325 329
294 294 296 296 296 295 296 296 296 297 296 296 295 293 296 298 299 301 300 300 301 300 301 302 305 306 307 306 307 307 311 313 310 311 315 312 316 319 315 312 313 318 321 322 326 326 324
294 295 296 295 295 296 296 295 296 295 296 296 298 294 295 296 300 298 300 301 301 301 301 301 305 304 304 305 306 308 309 311 309 311 311 309 314 319 316 315 313 317 318 321 322 322 327
294 293 294 295 295 295 295 295 296 296 295 295 297 294 292 295 296 300 301 302 302 302 302 302 303 304 304 305 306 306 307 311 310 310 311 309 313 318 321 322 319 322 321 319 322 325 324
293 293 294 295 295 295 295 294 295 294 294 296 295 293 294 298 299 299 300 300 301 302 303 303 304 304 303 304 306 306 308 310 311 313 312 311 312 317 316 316 315 318 321 320 322 321 324
294 294 295 295 295 294 294 294 293 293 295 295 295 291 294 295 298 298 299 300 301 303 302 303 305 305 306 307 306 307 310 309 312 311 311 311 312 314 315 314 312 315 320 320 321 323 320
295 295 295 295 295 294 294 295 295 294 294 294 294 295 294 294 295 295 298 299 299 299 303 303 304 304 306 307 308 307 307 308 309 309 311 312 313 311 314 314 313 318 317 319 320 322 323
294 294 294 295 295 295 295 295 295 295 294 294 295 294 295 294 294 295 296 297 297 299 301 302 303 304 305 306 306 306 307 308 308 308 308 309 309 310 312 312 314 316 311 313 321 321 320
294 294 294 294 294 294 295 295 294 293 293 294 294 294 296 294 296 296 297 297 298 300 301 302 303 304 306 305 306 306 304 306 306 308 309 308 308 308 311 313 312 310 315 315 319 318 317
294 295 295 295 295 295 294 294 293 293 293 294 294 294 295 294 294 295 296 298 298 299 300 303 304 303 304 304 306 306 306 306 307 308 306 307 306 306 308 313 313 314 313 313 314 322 316
293 293 294 294 294 294 294 294 294 294 294 294 294 294 295 295 293 294 294 298 299 299 300 303 301 304 301 298 303 304 305 306 306 309 308 306 306 309 308 309 310 312 312 313 315 320 314
293 294 294 294 294 294 293 294 294 294 295 295 294 294 294 296 295 296 297 297 298 300 300 300 301 302 302 298 301 302 301 305 306 306 308 309 309 307 308 309 310 311 314 314 315 313 312
293 293 294 294 294 295 295 295 294 295 296 295 294 294 294 295 292 295 296 296 296 297 298 300 300 300 303 302 303 303 301 299 306 310 311 313 311 310 308 307 310 308 310 310 312 311 310

GFSGBSN_925_thetae_069.txt.gz
Theta_e
304 304 304 304 304 305 305 304 303 301 301 303 304 303 304 304 304 303 301 299 297 296 296 298 304 306 306 304 303 301 304 305 307 312 318 317 313 310 307 308 312 315 316 315 315 314 313
303 304 304 303 304 303 304 303 302 301 302 303 304 303 303 303 302 301 300 297 296 296 297 301 305 307 306 306 302 303 305 305 307 310 314 313 313 308 308 311 312 314 314 315 316 317 315
305 304 304 305 303 303 302 302 302 302 303 303 303 303 302 301 300 299 298 296 296 302 303 305 306 307 307 306 303 305 307 307 307 308 308 307 308 306 306 310 313 314 314 313 313 313 312
304 304 304 304 303 302 302 302 302 302 303 303 303 301 300 298 298 297 296 297 305 307 307 307 307 308 309 306 309 310 309 307 307 307 306 309 309 306 305 308 312 316 315 316 314 313 313
304 303 303 303 302 302 303 303 303 303 302 303 301 301 299 298 298 297 297 306 307 309 308 307 308 308 309 310 311 309 307 308 307 307 310 310 309 307 306 309 312 314 316 315 315 314 313
303 302 303 303 303 302 302 303 302 302 301 302 302 300 299 298 297 296 303 306 308 310 309 309 310 310 310 311 309 310 306 307 306 311 312 311 307 306 303 309 314 316 316 314 315 314 314
303 303 302 302 302 302 302 302 302 301 301 300 301 300 299 298 297 296 303 306 306 307 307 307 310 312 311 311 308 307 307 309 313 313 313 313 311 311 306 307 311 314 314 314 314 316 314
302 301 301 303 303 303 302 303 302 301 299 298 297 298 298 298 297 299 302 304 302 301 306 307 307 306 307 308 309 307 307 309 314 313 316 316 314 312 310 308 307 308 311 315 315 316 315
301 301 301 302 301 302 302 302 301 299 299 297 297 297 298 297 296 297 299 301 299 300 306 305 305 306 306 306 307 306 306 308 314 316 317 315 316 316 314 312 312 311 309 313 316 315 314
300 299 299 299 301 300 298 299 299 299 298 297 297 297 298 297 296 296 300 299 300 302 307 306 309 309 308 307 307 306 306 312 314 315 317 317 316 318 318 318 315 314 311 315 311 311 315
299 299 299 299 299 299 298 298 298 298 299 298 297 297 298 297 297 296 298 296 301 306 306 305 312 309 309 309 308 307 306 306 314 315 316 315 318 320 318 318 317 316 320 320 319 318 317
298 298 298 298 298 299 299 299 298 298 298 297 297 297 297 297 297 296 296 298 304 308 304 307 310 310 310 309 309 306 306 306 305 309 315 314 315 316 316 317 316 316 320 319 319 317 319
297 297 297 297 297 297 298 298 298 297 296 296 297 298 297 296 296 295 295 299 304 308 303 308 308 308 311 312 310 307 306 306 306 307 306 307 310 315 317 318 317 318 322 323 322 320 320
296 296 297 297 297 297 296 297 297 296 294 296 297 297 296 296 295 295 297 302 303 300 305 306 305 305 310 311 311 309 306 305 304 304 305 307 307 313 317 316 318 317 323 325 325 326 323
296 295 295 296 297 296 297 297 295 296 296 297 296 295 295 295 296 297 298 301 299 301 304 303 304 308 306 307 306 310 308 307 306 303 305 308 312 310 316 316 317 321 322 321 324 324 323
294 295 296 296 296 296 296 295 296 296 297 296 296 296 295 296 297 298 299 298 299 301 300 300 305 306 306 306 306 306 310 313 316 306 306 309 312 310 312 315 316 319 320 324 325 329 327
294 294 294 296 296 295 296 296 296 297 296 295 295 293 296 298 297 299 298 297 299 299 300 301 305 306 306 306 306 307 312 316 315 314 308 312 312 310 313 316 319 321 324 320 323 326 328
294 293 294 295 296 296 296 296 295 297 296 295 294 289 296 296 298 296 296 298 299 300 300 301 302 304 306 305 306 307 309 313 310 312 315 312 316 318 317 312 315 317 320 322 325 326 326
294 293 295 295 295 295 296 296 295 296 295 295 294 292 295 295 290 299 297 299 299 299 299 300 302 303 305 304 305 307 307 311 309 310 309 308 313 317 314 314 316 319 320 320 321 323 325
293 294 294 293 295 295 295 295 295 295 295 295 296 291 289 293 294 296 296 299 299 300 302 302 302 302 303 304 305 306 307 309 310 310 311 309 312 315 315 319 318 320 318 321 323 325 324
294 294 294 294 294 295 295 295 295 295 294 295 295 293 292 287 296 296 297 299 301 301 301 301 302 303 305 306 304 305 307 309 311 312 310 307 310 315 314 313 314 316 317 320 323 322 325
293 293 294 294 295 295 295 293 294 293 294 295 294 291 292 294 296 297 297 299 299 298 298 303 302 303 304 306 307 308 308 308 310 310 312 311 310 312 312 314 311 310 312 318 321 321 322
294 294 295 295 295 295 294 293 294 295 294 294 294 294 292 293 294 294 295 296 298 297 298 299 300 302 303 304 305 306 306 306 308 309 310 311 311 310 311 310 310 312 315 314 320 319 319
295 294 295 295 295 295 295 295 295 295 294 293 293 293 293 291 294 295 295 295 296 298 298 299 300 303 304 303 303 304 306 307 307 307 307 309 308 308 310 310 309 309 307 314 316 319 320
294 294 294 294 294 294 295 295 295 295 293 294 294 294 294 292 294 295 296 296 296 296 298 300 302 302 303 305 305 306 304 305 305 307 307 307 306 307 307 309 308 308 314 314 315 317 317
294 294 294 295 295 294 294 294 293 294 293 294 294 293 294 292 292 294 294 295 297 298 297 300 301 299 304 302 303 306 305 305 306 306 306 307 305 306 307 310 308 308 311 313 313 318 315
294 293 293 293 294 293 293 294 295 294 293 294 294 293 294 295 293 294 294 294 296 297 297 300 298 301 301 301 304 304 306 305 305 307 307 306 305 309 308 308 307 308 312 312 316 318 313
293 294 294 294 294 294 294 294 294 294 295 295 294 294 293 294 293 295 295 294 295 296 296 296 297 298 300 300 303 304 302 304 305 304 306 307 307 306 307 308 308 307 312 313 314 312 310
293 293 293 293 293 293 294 294 295 294 295 295 294 293 294 293 293 294 294 295 295 296 296 298 299 299 300 304 303 302 302 298 304 305 309 304 309 309 307 307 307 305 306 307 310 311 309

GFSGBSN_925_thetae_072.txt.gz
Theta_e
304 304 304 304 304 304 305 305 304 302 302 303 304 304 304 304 303 303 302 299 301 299 300 300 304 306 306 304 303 301 304 304 308 312 316 316 312 308 306 305 308 312 314 314 313 312 312
303 303 304 303 304 304 304 304 302 302 302 303 304 303 303 303 302 301 301 298 296 296 299 303 306 306 306 305 303 302 303 304 306 312 315 314 312 309 309 308 308 310 311 312 313 314 314
305 305 304 305 304 302 302 302 302 302 302 304 303 303 302 302 301 301 299 295 298 304 305 306 306 307 308 306 304 303 307 308 306 307 307 307 310 306 305 306 308 312 313 312 312 312 314
304 304 304 304 304 303 303 302 303 303 302 303 303 302 302 300 298 298 296 299 304 306 308 309 307 307 310 306 307 308 308 308 307 307 307 308 308 306 306 305 309 313 313 315 314 311 311
304 303 302 302 302 301 301 301 302 302 301 301 302 303 302 300 298 297 297 304 306 309 308 308 307 308 309 308 310 310 308 308 307 306 307 308 308 307 306 306 308 311 314 315 314 312 313
303 302 302 302 302 302 302 302 302 301 300 302 302 302 301 298 297 296 301 305 308 309 309 309 308 309 308 310 310 309 306 306 306 310 310 310 307 306 303 307 310 312 315 313 313 314 312
302 303 303 301 302 302 302 302 302 301 300 301 300 300 300 298 297 297 303 304 300 303 302 304 306 311 307 309 309 307 307 307 313 312 310 311 311 310 308 306 308 311 312 313 312 312 314
301 301 300 302 302 303 303 303 302 300 299 300 299 299 299 297 296 296 302 301 299 297 301 303 304 305 306 307 307 308 306 307 312 312 315 315 314 311 310 308 307 307 307 307 310 312 314
301 301 300 301 302 301 299 300 300 299 299 298 297 298 297 297 297 296 299 297 296 297 304 305 304 305 306 306 306 306 305 307 313 313 316 313 313 315 314 314 313 312 311 310 310 311 312
300 299 299 299 300 299 298 298 300 300 299 297 296 297 296 296 296 296 299 295 296 299 305 304 308 308 307 307 306 306 305 310 313 314 315 316 315 317 318 318 315 315 312 311 311 312 312
300 299 299 298 298 298 298 298 297 298 297 296 296 298 297 296 296 296 296 295 297 303 295 302 310 308 307 308 308 307 306 308 314 314 316 314 317 318 319 318 316 317 316 319 319 318 316
299 298 297 297 297 298 297 298 298 297 296 298 298 297 298 297 296 295 295 295 302 298 295 303 309 310 309 309 308 305 306 306 307 312 314 314 313 316 316 315 316 315 318 318 318 318 321
297 297 297 297 297 298 298 298 298 297 296 296 297 296 296 296 295 295 295 299 296 296 299 306 306 305 305 311 310 306 307 306 305 307 306 305 306 313 315 316 316 317 320 322 322 321 322
297 296 296 297 296 296 296 297 296 295 295 295 295 295 295 295 295 295 297 297 294 297 302 304 302 303 306 308 309 309 305 306 304 304 304 305 307 311 315 313 315 318 318 320 324 323 321
296 295 296 296 296 295 296 296 295 296 297 295 295 295 295 295 296 296 294 292 294 300 300 300 300 306 305 305 305 307 307 305 304 303 306 305 310 308 314 315 314 318 322 320 324 325 325
294 295 295 295 296 295 295 295 296 296 296 295 294 294 294 297 297 297 292 296 297 298 299 299 301 305 306 306 305 304 308 310 311 303 304 307 311 309 314 315 316 319 319 323 322 327 325
295 294 294 294 295 294 294 296 296 296 295 294 294 291 296 297 297 293 290 296 297 297 298 299 302 302 304 304 305 305 307 314 313 313 304 308 311 310 315 315 317 318 320 320 321 322 329
295 293 294 294 295 295 295 296 295 296 295 295 292 288 296 296 293 293 291 297 297 298 297 298 300 301 302 304 306 305 308 308 312 313 316 313 317 317 315 312 314 317 320 319 325 327 326
295 294 294 295 295 295 295 295 295 295 294 294 292 292 294 294 285 291 298 298 298 299 299 299 300 300 300 302 304 307 308 307 308 311 313 311 315 317 313 314 315 318 319 319 319 319 326
296 294 294 294 294 294 295 295 294 295 294 294 291 290 288 292 291 292 294 296 298 300 299 300 301 301 302 302 303 306 306 306 308 310 311 308 311 311 311 312 316 316 315 316 318 323 323
293 292 294 294 294 295 295 295 295 295 294 294 293 292 291 287 293 296 296 297 297 300 300 299 301 302 303 304 304 304 305 307 308 309 309 306 309 313 312 311 312 313 314 314 317 319 323
293 293 293 293 294 295 295 295 295 294 293 294 295 292 293 294 294 294 295 297 298 298 297 297 300 300 300 304 303 307 306 307 309 309 311 310 312 311 310 311 309 309 306 308 312 319 320
294 293 293 294 295 295 295 295 294 294 293 293 294 293 292 293 294 293 294 295 295 296 297 298 299 299 300 301 302 302 305 306 306 308 309 309 309 309 310 308 307 306 310 307 311 319 319
293 293 295 295 295 295 295 294 294 294 294 293 293 293 291 291 294 294 294 294 295 296 297 296 297 301 302 301 302 302 304 306 307 307 306 308 308 307 310 308 307 304 305 310 317 316 318
294 295 295 295 295 295 295 295 295 295 294 293 293 294 291 288 293 293 294 295 294 294 296 297 299 301 298 301 306 305 304 306 305 305 306 306 306 306 306 308 306 305 312 313 315 313 315
294 294 294 294 294 294 294 295 295 294 294 294 293 293 294 291 291 293 293 293 295 295 296 296 299 298 301 303 306 306 305 304 305 306 306 304 304 305 307 308 305 305 309 309 311 313 313
294 294 294 294 294 294 294 294 294 293 293 294 293 293 293 293 293 293 293 293 295 294 293 296 297 299 297 303 306 305 304 304 304 306 308 307 306 308 307 306 306 305 308 309 313 311 308
293 293 293 294 294 294 294 294 294 295 294 294 294 293 292 292 292 293 294 294 293 293 290 292 294 296 297 302 303 304 301 303 305 304 305 306 306 307 308 309 308 305 309 310 310 307 305
293 293 293 294 293 294 294 294 294 294 294 294 293 293 293 292 290 293 293 294 294 294 293 294 295 298 299 300 301 303 304 300 303 305 306 303 305 308 307 307 305 303 303 302 308 308 304

GFSGBSN_925_thetae_075.txt.gz
Theta_e
306 305 305 304 303 303 305 305 304 302 302 302 304 304 303 303 303 303 302 301 300 299 301 302 304 306 306 306 305 301 306 305 308 311 314 315 310 308 309 307 308 312 311 312 313 314 314
305 303 303 303 303 304 303 302 301 302 302 303 304 304 303 303 303 302 302 298 295 299 303 304 305 306 306 306 303 302 303 304 305 313 314 314 314 311 311 309 309 310 311 311 312 313 313
305 305 305 305 304 303 302 302 302 303 302 303 304 303 303 302 302 299 298 295 299 303 305 306 307 306 307 307 304 304 303 305 306 308 312 311 311 307 307 307 308 310 312 313 313 313 314
305 305 304 303 303 303 303 302 302 302 302 300 302 302 302 300 298 297 296 298 302 304 308 308 309 306 308 306 306 307 307 308 309 306 307 307 307 307 307 307 308 311 313 314 315 314 314
304 304 303 303 302 301 301 301 301 300 300 299 301 301 301 298 297 296 297 303 305 308 308 308 307 307 308 307 310 310 310 307 306 307 306 306 307 308 306 307 309 311 313 315 315 314 315
305 303 302 301 301 302 301 301 301 301 300 299 300 300 300 299 297 296 301 304 308 309 308 309 307 308 307 310 310 309 307 306 306 307 310 310 309 308 306 309 310 311 313 315 315 315 314
304 303 302 301 300 301 301 302 303 301 299 299 299 298 298 297 296 297 302 301 299 302 299 302 305 309 304 305 306 307 307 307 312 311 309 311 311 310 309 309 309 309 310 310 310 311 312
302 301 301 302 302 302 302 303 302 299 298 298 297 296 297 296 296 299 299 298 297 296 300 301 301 302 303 303 305 306 307 307 313 313 315 315 314 312 310 309 308 309 310 311 310 310 310
301 301 301 301 301 300 299 299 299 299 299 298 297 296 297 295 297 296 297 295 295 296 301 303 304 304 305 305 306 306 305 306 312 312 315 313 313 314 313 315 315 315 315 315 314 313 313
301 300 300 299 300 299 298 298 298 298 297 297 296 295 296 295 295 295 298 295 295 297 305 301 307 308 306 306 307 305 305 308 313 310 314 315 314 315 316 317 317 318 314 314 315 315 316
300 299 298 298 298 298 298 297 297 297 296 294 294 295 297 296 296 295 295 295 297 300 296 299 310 307 306 308 308 307 305 308 312 314 315 312 317 318 318 315 316 316 316 317 317 319 319
299 299 298 297 297 297 297 298 298 297 296 294 294 296 296 296 296 295 295 295 301 297 295 300 307 305 305 309 308 305 307 305 309 314 316 315 313 316 316 315 315 316 317 318 318 319 322
298 298 297 296 296 296 297 297 297 296 295 294 294 295 296 295 295 295 295 298 295 294 298 303 304 301 303 305 310 307 308 307 308 310 309 306 308 313 314 315 315 315 316 320 321 321 320
297 297 297 297 296 296 296 296 295 295 294 293 293 294 294 295 295 295 297 295 292 296 299 301 300 300 306 305 306 307 307 309 305 304 306 307 310 309 313 312 312 316 316 320 322 322 322
297 296 296 296 296 296 296 296 296 295 294 294 294 294 295 297 296 297 294 294 293 301 298 299 298 305 305 305 305 305 308 307 306 305 308 307 309 307 314 314 312 318 319 318 325 320 323
295 295 295 295 296 295 294 295 295 295 294 294 294 293 295 296 297 295 293 295 296 297 298 299 299 304 305 299 304 303 306 311 313 304 305 308 310 309 316 316 316 318 318 325 323 322 324
294 294 294 295 294 294 294 295 295 295 294 293 294 293 296 296 297 294 293 295 296 296 298 298 300 299 299 295 299 300 306 310 309 313 305 307 312 311 317 317 318 318 318 320 320 321 324
295 294 292 294 294 295 294 295 295 295 293 293 291 291 294 295 295 293 296 297 297 297 296 296 299 299 300 300 304 305 306 308 307 309 315 314 316 314 313 312 314 316 318 320 321 323 325
296 294 293 294 294 294 293 295 295 295 293 293 292 292 293 293 292 295 296 297 298 298 298 298 299 300 300 300 301 303 307 307 308 307 312 313 317 319 316 316 316 316 318 319 319 318 322
297 295 294 292 293 294 294 295 294 294 294 293 290 290 291 294 291 294 293 295 296 299 299 300 300 300 301 301 301 301 305 306 306 307 309 310 311 315 314 311 313 315 313 314 317 318 318
294 295 293 294 293 294 294 295 295 294 293 293 290 291 292 293 296 295 295 296 297 298 298 298 301 299 300 303 302 303 302 304 307 306 308 310 310 312 312 312 312 310 311 309 310 316 319
293 294 292 293 294 294 295 295 295 294 293 292 293 293 293 295 294 295 294 294 296 296 295 296 299 298 297 301 301 303 303 304 308 308 309 311 312 312 310 312 308 308 306 308 310 310 314
293 293 293 293 294 295 295 295 294 294 293 293 293 292 293 294 294 294 294 294 294 295 296 297 297 296 297 301 302 302 302 303 305 308 308 309 311 311 309 309 307 306 307 306 310 313 317
295 294 293 294 294 295 295 294 294 294 293 293 293 293 294 293 294 294 294 294 294 295 296 295 297 297 299 300 299 301 302 303 305 306 307 310 309 309 310 308 305 304 305 308 314 316 314
294 293 293 295 295 295 295 294 294 294 293 293 293 292 291 291 293 293 293 294 295 294 295 296 298 298 298 300 302 303 305 306 307 306 307 308 308 309 308 308 306 305 310 310 314 313 314
293 294 294 294 295 295 294 294 295 294 294 293 293 292 293 292 292 293 293 293 294 295 295 296 296 297 299 302 304 305 304 302 306 307 306 305 306 308 308 308 306 305 309 308 311 309 310
292 293 293 294 294 294 293 294 294 294 294 293 293 292 292 293 293 293 294 294 294 295 295 294 296 297 297 300 304 307 305 304 304 306 309 309 308 309 309 308 307 306 307 308 305 309 307
293 294 294 294 294 293 293 293 293 293 293 294 293 293 292 292 291 293 294 294 294 294 294 294 295 296 298 299 303 305 305 305 305 305 307 307 308 308 307 308 307 305 308 308 308 306 303
293 293 293 293 292 293 293 294 294 294 294 294 293 293 292 292 292 292 293 292 293 293 294 295 295 295 298 300 300 300 305 305 304 305 306 307 307 309 307 308 305 303 303 300 305 305 302

GFSGBSN_925_thetae_078.txt.gz
Theta_e
307 307 306 305 303 303 305 305 303 302 302 302 303 304 304 304 304 303 303 300 298 300 299 303 305 306 307 308 307 303 307 306 312 312 313 313 312 311 311 311 311 313 313 312 313 314 313
307 306 306 305 304 304 304 302 302 302 303 303 303 304 303 302 303 302 300 298 296 298 301 303 306 306 308 307 305 304 304 305 308 312 312 316 314 314 314 313 312 313 313 313 314 314 315
306 305 304 304 304 304 302 302 302 303 303 302 301 303 302 301 298 297 297 296 299 302 303 307 309 307 309 308 306 306 307 305 307 309 311 313 314 313 312 313 312 312 312 313 314 315 316
305 305 305 304 304 303 303 303 303 302 301 299 299 299 297 297 297 297 296 299 302 305 308 307 308 307 311 307 308 309 308 308 309 307 308 309 311 311 311 311 311 311 312 314 314 316 317
305 305 304 304 303 303 302 301 301 300 299 299 298 298 297 296 296 296 299 302 305 308 308 308 309 309 310 308 311 311 311 310 309 310 308 308 309 311 310 311 311 311 312 313 314 315 316
304 304 303 303 302 301 301 300 301 300 300 299 298 297 296 296 296 297 301 304 308 309 309 309 308 309 310 310 311 310 310 309 309 309 309 309 310 311 310 311 311 312 313 313 314 315 314
303 304 303 302 301 302 300 302 302 302 299 298 298 296 296 297 296 300 302 303 304 306 303 303 304 308 306 305 306 308 308 309 310 310 310 309 310 310 309 310 311 311 311 311 311 311 312
306 303 304 303 303 302 302 303 303 300 299 298 297 296 296 296 296 299 300 302 299 299 303 302 303 303 304 304 304 306 308 310 312 313 312 314 312 310 309 310 310 311 311 312 313 314 314
303 302 301 303 303 301 300 299 299 299 299 297 296 295 295 296 296 300 297 297 297 298 305 305 306 307 307 307 308 308 307 310 311 312 313 312 311 314 313 313 313 314 316 316 317 317 317
301 301 301 301 302 300 299 299 298 297 297 295 294 295 295 295 297 298 299 297 297 299 307 302 311 310 309 308 311 308 306 308 310 310 311 312 311 312 314 314 316 316 315 315 316 318 318
301 300 300 301 300 299 298 297 297 296 295 295 294 295 295 296 298 298 297 297 299 302 301 305 311 309 308 310 311 309 307 306 308 310 311 311 314 316 314 313 315 314 315 315 317 320 320
299 299 299 298 297 297 297 298 297 296 295 295 294 295 295 298 298 297 297 298 304 306 299 303 308 304 304 308 310 309 309 308 311 312 313 312 312 315 316 316 314 314 314 314 316 320 322
299 298 298 297 296 296 297 297 297 296 294 294 294 294 296 297 298 297 297 304 302 299 299 303 304 302 301 307 309 310 311 311 311 313 313 310 312 313 314 314 314 315 312 312 319 322 321
298 297 296 296 296 297 297 297 295 294 292 294 294 294 296 297 296 297 300 300 298 298 300 301 301 301 302 305 305 308 310 311 311 311 311 310 312 309 313 313 311 313 313 316 318 319 319
297 297 296 296 296 296 296 295 294 293 293 294 294 296 298 297 297 299 300 300 299 301 299 299 300 301 302 305 304 306 308 309 310 310 311 311 312 309 313 313 313 318 319 317 321 320 323
297 296 296 295 296 294 294 295 294 293 293 293 296 297 298 297 297 298 298 298 298 298 299 298 298 301 302 303 302 304 307 313 314 312 309 311 311 311 315 315 315 318 318 321 322 324 322
296 295 295 295 296 293 294 295 294 294 293 293 296 298 298 295 298 299 300 297 297 296 298 297 298 299 298 298 299 301 304 310 311 313 313 310 311 314 317 317 316 318 320 320 321 323 324
295 294 292 294 294 294 294 294 295 294 293 294 296 299 296 296 299 299 299 297 297 298 298 298 298 299 298 298 297 299 301 305 310 311 315 312 314 314 313 313 314 315 316 319 322 323 325
295 294 293 294 294 293 293 294 293 294 293 295 297 296 296 297 300 299 297 298 298 299 300 299 299 299 299 299 299 299 300 301 308 311 312 312 316 316 314 316 316 316 317 318 316 320 322
297 295 295 292 293 295 293 293 293 293 293 295 297 298 297 298 297 298 298 297 298 300 300 299 300 301 301 301 302 300 300 303 306 306 307 307 314 315 312 316 315 317 316 316 317 319 318
296 295 294 294 293 294 294 294 294 293 293 295 297 297 297 298 298 297 298 297 298 298 299 298 302 300 300 300 302 302 301 300 302 307 309 307 317 313 313 312 313 311 311 311 314 314 315
294 294 293 294 292 294 294 295 294 293 293 296 297 297 296 297 297 296 296 295 296 297 296 297 299 298 298 299 301 304 303 303 304 307 308 307 315 313 313 310 311 311 309 307 309 312 312
292 294 294 293 292 295 295 295 294 293 293 295 294 294 297 295 296 296 296 295 295 295 297 298 297 298 300 300 301 301 302 302 303 304 308 308 312 313 312 311 309 308 308 309 309 311 315
293 293 294 293 293 295 295 295 295 293 293 295 295 294 297 296 295 295 294 294 295 296 297 297 297 299 299 298 300 302 302 303 304 305 306 309 309 310 309 307 306 309 308 310 312 313 315
292 294 294 294 294 295 293 293 294 295 293 294 294 295 296 296 294 294 294 295 295 296 296 297 297 298 298 301 303 302 303 304 305 305 306 308 312 311 308 308 306 305 310 310 312 313 314
294 294 293 294 295 294 293 294 293 294 293 294 294 294 295 295 295 294 295 295 296 296 297 297 297 297 300 302 302 304 305 302 302 305 306 306 308 312 309 306 306 312 310 309 309 311 312
294 293 293 294 294 294 294 294 294 294 294 294 294 294 294 295 295 295 296 296 296 297 297 297 297 298 299 301 303 306 307 303 302 304 308 309 309 310 309 307 307 309 309 309 307 312 309
293 293 293 293 293 293 293 293 293 293 294 294 294 294 294 294 295 294 295 295 296 297 298 297 298 299 299 301 302 303 307 306 305 305 306 307 309 310 308 308 308 308 311 311 309 307 305
290 291 292 293 293 294 293 292 292 293 294 294 295 294 294 294 295 294 294 294 294 295 297 296 297 298 298 301 301 301 306 306 306 306 306 308 309 310 309 311 307 304 304 301 303 304 302

GFSGBSN_925_thetae_081.txt.gz
Theta_e
311 310 309 308 307 305 305 306 306 304 302 303 303 303 304 304 305 304 301 298 298 297 298 300 302 306 308 310 311 307 306 307 312 313 313 314 313 313 313 313 313 314 315 315 316 315 315
310 309 308 307 306 305 306 306 304 303 303 303 302 301 302 303 303 301 299 297 297 298 300 302 304 307 310 310 307 306 305 308 311 313 313 314 314 314 314 314 314 314 314 314 315 314 315
309 308 307 306 306 306 306 305 303 303 303 303 301 299 299 298 299 298 296 296 298 301 303 304 307 309 311 310 308 307 307 306 307 310 313 313 314 315 315 314 315 314 314 314 314 314 314
309 307 305 303 303 305 304 303 303 303 302 301 299 298 298 297 297 296 296 297 301 304 308 308 308 310 311 309 308 308 309 308 307 307 308 310 311 314 314 313 312 312 313 313 314 315 316
307 306 304 304 305 304 303 303 302 302 301 299 299 298 297 296 296 296 298 301 304 308 308 308 311 312 313 309 311 312 311 310 310 310 308 309 310 312 312 312 312 312 312 313 314 315 316
307 305 305 305 304 303 303 301 301 301 300 299 298 298 296 296 296 297 300 303 307 309 309 310 310 313 313 312 311 312 312 311 311 311 310 310 310 312 312 313 315 311 313 314 315 314 316
306 305 304 304 303 302 301 303 302 302 301 299 298 297 296 295 295 300 302 305 311 313 307 307 307 309 307 306 305 308 310 311 312 311 311 311 312 312 312 313 312 312 312 312 313 312 312
304 303 301 302 301 302 303 303 303 302 300 299 298 296 294 295 296 299 301 305 303 302 305 306 306 307 307 308 308 308 308 311 312 313 313 313 312 312 311 311 311 311 312 312 312 313 315
303 303 303 302 302 303 302 303 302 300 299 298 296 294 295 295 296 302 300 300 300 301 308 307 309 311 311 309 311 311 308 310 311 313 314 315 315 314 313 313 312 312 312 313 315 316 316
304 303 302 303 302 301 301 301 299 298 297 296 294 294 295 295 299 300 302 299 300 303 314 308 312 312 311 311 314 310 309 310 311 312 312 313 313 313 312 313 313 314 314 315 316 316 316
301 301 301 302 302 300 300 299 298 297 296 295 294 294 294 296 301 302 300 299 302 306 311 306 312 310 308 311 312 312 309 309 310 311 311 311 312 314 313 312 314 315 315 317 316 315 315
301 301 301 300 299 299 298 298 297 296 296 296 294 294 295 301 301 300 299 301 305 317 305 306 309 307 305 309 310 311 311 310 311 312 312 312 312 312 314 315 315 313 315 316 315 314 317
299 299 298 298 297 297 297 297 296 296 295 294 293 293 297 299 302 299 300 306 313 305 302 306 307 305 303 303 306 310 311 313 313 314 315 315 314 314 314 314 314 315 316 314 313 319 320
299 298 297 297 296 296 297 297 296 295 293 294 293 295 298 299 300 301 303 308 303 301 302 304 303 303 302 303 306 306 307 308 310 311 312 311 311 312 313 314 314 314 315 314 317 318 321
298 298 298 297 296 297 297 296 294 294 294 293 294 299 300 300 301 301 305 305 305 305 302 302 301 301 302 304 306 304 306 306 308 311 312 311 311 312 313 314 314 316 316 314 316 318 318
297 297 296 296 297 296 296 295 294 294 293 293 299 300 300 299 300 302 304 302 301 301 300 300 300 300 303 304 304 304 305 310 312 313 312 311 311 313 314 314 315 315 317 322 319 321 321
297 297 296 295 296 294 294 293 294 294 294 293 298 302 299 298 301 303 306 301 299 298 299 299 299 300 300 300 300 300 301 305 311 312 313 315 312 311 312 315 315 317 318 319 321 322 323
297 296 296 296 295 294 295 294 294 295 293 296 299 303 298 299 303 302 302 300 297 299 300 300 300 300 300 300 301 301 301 301 305 309 313 314 319 313 311 312 314 314 317 318 322 319 322
295 294 294 295 295 295 294 293 294 294 294 297 300 299 297 300 305 302 299 299 300 300 300 300 300 301 301 302 301 301 301 302 302 303 311 309 315 315 313 313 313 314 314 317 319 321 321
296 295 295 295 294 293 293 293 293 294 293 297 300 302 300 300 300 301 300 300 300 300 301 300 301 302 302 302 302 302 303 302 302 304 307 307 308 314 314 314 317 319 315 317 319 322 320
296 295 295 295 294 294 293 292 293 293 293 297 300 301 301 302 301 300 300 299 299 300 301 300 303 302 301 301 301 302 303 304 304 302 303 309 310 309 312 312 313 316 318 316 318 317 316
296 296 295 295 294 294 292 293 293 293 293 298 300 300 299 301 299 299 297 298 298 299 298 299 300 300 300 300 301 302 304 304 303 304 307 308 309 309 311 314 313 314 315 312 311 310 311
296 295 294 295 293 294 295 294 293 292 294 297 297 298 301 298 299 299 299 298 298 297 298 298 299 299 300 300 301 301 301 302 303 304 304 306 309 309 309 315 313 313 312 311 309 311 311
295 296 295 295 294 294 295 294 293 293 294 297 297 297 299 300 298 298 296 296 297 297 298 298 298 299 299 300 300 302 303 303 304 304 304 308 308 309 310 314 314 310 308 309 309 311 314
294 294 294 295 294 295 295 294 294 293 292 296 295 297 298 299 297 297 296 296 297 297 298 298 298 299 300 300 303 303 303 303 305 305 304 305 308 309 315 311 309 307 310 311 312 317 313
294 295 295 294 294 294 294 293 293 294 292 296 296 296 297 300 297 296 296 297 298 298 298 298 299 299 300 302 303 304 303 303 304 303 304 305 308 308 311 311 310 313 311 310 310 314 311
294 294 295 294 294 294 294 293 293 293 293 295 296 296 296 298 297 297 298 299 297 298 299 299 299 300 301 303 304 306 305 305 305 304 307 308 309 310 313 309 311 311 310 309 309 315 310
294 294 293 294 293 294 294 294 294 294 293 294 296 295 295 296 297 297 296 297 298 298 299 300 300 301 301 302 304 304 303 307 306 305 306 307 307 309 309 310 311 308 311 313 308 308 306
293 293 293 293 294 294 293 293 293 293 293 294 296 295 295 295 298 296 296 296 296 296 298 298 299 299 300 301 301 302 305 307 307 308 307 309 310 313 311 313 305 303 303 301 303 303 302

GFSGBSN_925_thetae_084.txt.gz
Theta_e
315 312 313 312 310 309 308 307 306 306 305 304 303 304 305 305 305 305 304 299 300 301 298 298 300 306 308 311 313 311 306 306 312 311 313 315 313 311 311 311 312 314 314 315 317 316 317
315 313 313 312 309 308 308 307 307 307 305 304 304 303 302 303 303 302 298 297 298 296 298 300 303 306 309 309 309 309 307 308 310 313 314 313 314 314 314 314 314 314 314 314 314 314 314
316 313 312 311 308 307 307 306 306 305 304 305 303 301 300 299 299 297 296 296 296 298 301 303 305 308 310 310 309 309 308 306 307 309 313 314 313 315 315 315 315 315 315 315 315 314 314
316 314 312 309 307 306 305 305 305 303 304 304 301 300 299 298 296 296 296 296 298 300 306 307 308 311 311 310 309 308 309 309 309 307 309 310 312 313 315 315 315 313 313 312 312 313 314
316 313 311 308 307 303 303 305 303 303 304 302 300 299 299 297 296 296 296 299 302 306 308 307 312 313 312 311 310 311 312 311 310 309 308 309 309 311 312 314 313 313 314 313 313 313 314
315 312 309 307 304 303 305 303 303 302 302 301 299 299 298 297 295 295 299 302 306 308 309 311 311 314 313 312 312 312 312 312 312 312 312 310 309 310 311 312 313 313 314 314 313 313 314
313 310 308 306 305 306 304 303 302 301 302 302 299 299 298 296 295 297 301 307 311 314 314 315 312 313 309 308 308 308 308 312 312 312 312 312 311 311 312 313 313 313 313 313 313 312 312
310 308 306 306 305 304 303 303 303 302 302 301 299 298 296 294 295 300 302 308 304 303 305 309 307 308 309 310 310 310 307 311 312 312 312 312 312 313 313 313 312 312 312 312 312 312 313
308 306 306 304 303 302 302 302 303 303 301 299 298 296 294 295 296 302 302 302 301 303 307 308 310 312 312 311 313 312 308 309 311 312 314 314 314 314 315 314 314 313 312 312 312 312 314
305 304 303 302 302 302 302 304 302 300 299 297 295 294 294 295 300 302 305 301 302 305 313 309 310 312 312 312 314 312 311 310 311 311 312 313 313 313 314 314 313 314 313 313 315 315 318
303 304 303 303 303 302 301 300 300 299 297 296 295 294 294 296 302 304 302 301 303 308 314 309 313 311 310 311 310 313 311 310 310 312 312 312 312 312 313 313 312 311 313 315 315 317 318
302 301 302 302 301 301 299 299 298 297 296 296 295 294 294 302 303 302 301 302 306 318 312 307 312 310 306 308 310 312 311 311 311 311 312 311 311 312 311 312 313 314 314 314 315 317 320
301 301 302 300 299 298 298 297 297 297 296 295 293 293 296 299 304 301 302 306 317 313 306 306 308 307 305 304 304 306 309 313 313 313 314 314 314 313 313 314 313 315 316 315 315 315 318
299 299 298 297 297 296 296 296 295 296 294 293 293 294 300 301 302 302 304 310 310 304 306 305 304 304 303 303 303 304 306 307 308 308 310 310 311 312 314 315 314 314 315 318 315 319 317
298 298 297 297 297 297 297 297 296 295 294 293 294 299 302 302 301 302 306 310 307 306 304 303 302 301 303 304 305 307 307 305 306 307 308 313 312 313 313 313 313 314 315 314 317 316 317
298 298 298 297 297 297 296 296 295 295 293 293 298 301 301 300 301 304 308 306 304 302 300 301 301 301 302 304 304 304 304 305 309 313 313 314 316 311 313 314 314 314 315 321 322 321 318
297 296 296 296 297 296 295 294 295 294 293 293 299 303 301 299 302 307 309 304 301 300 300 300 301 301 301 301 301 301 301 302 303 309 308 311 314 317 315 317 316 315 317 316 319 320 322
297 297 296 296 296 294 295 295 295 294 293 295 301 307 300 301 307 305 304 302 297 300 301 301 301 301 301 301 302 302 302 302 303 303 302 308 314 317 315 313 314 314 314 318 322 319 321
297 296 297 296 296 294 294 294 294 294 293 298 302 302 298 302 309 305 301 300 301 301 301 301 301 301 302 302 302 302 302 303 303 302 304 307 310 312 312 311 312 313 314 318 321 321 321
296 295 295 296 296 294 293 293 293 293 293 296 303 305 301 302 302 304 301 301 301 301 302 301 301 302 302 302 302 302 302 303 303 304 305 306 306 308 313 313 312 316 318 317 317 323 320
296 295 295 296 295 294 293 292 293 293 293 296 302 306 303 305 302 302 302 300 301 300 301 301 302 302 303 301 301 301 302 302 303 304 303 305 305 305 308 309 309 312 316 315 316 320 320
296 296 296 295 296 294 293 292 293 292 293 299 301 303 301 302 301 301 299 300 300 300 299 301 301 300 301 300 300 302 302 302 303 302 303 306 307 305 306 306 308 312 313 315 315 318 318
297 296 296 295 295 295 293 292 292 291 295 299 298 299 303 300 300 300 301 300 299 299 299 299 299 300 300 300 300 301 301 301 301 302 304 304 306 307 307 306 308 314 312 312 313 315 314
296 296 295 295 294 295 294 292 292 292 293 297 298 299 302 302 300 299 299 298 298 298 298 299 299 299 300 300 300 300 301 302 302 303 303 305 306 307 309 308 310 310 310 311 311 316 316
295 295 296 296 295 295 295 293 292 292 293 297 296 299 300 303 299 299 298 298 298 298 298 299 299 299 300 300 302 302 303 303 303 304 304 305 306 308 310 310 311 311 310 311 312 315 311
294 295 296 296 295 294 295 293 293 293 292 297 297 297 299 303 298 298 297 297 298 299 300 300 299 300 300 302 303 303 303 304 305 307 304 304 306 308 307 309 316 316 311 310 310 318 309
294 295 295 295 294 294 294 293 293 293 293 296 297 297 298 301 298 298 300 301 299 300 299 300 300 300 302 303 303 306 305 303 305 307 304 306 307 308 309 310 314 307 309 310 310 313 307
294 294 294 295 294 294 293 294 293 292 291 295 298 296 298 298 299 298 298 298 299 299 300 300 300 301 301 302 304 303 303 304 309 307 305 306 308 309 309 314 313 304 307 310 306 304 303
294 294 294 294 293 294 294 294 294 293 292 293 298 296 296 297 299 298 298 298 298 298 298 299 299 300 301 302 302 302 303 307 307 310 308 310 309 310 307 307 304 301 301 299 300 300 299

GFSGBSN_925_thetae_087.txt.gz
Theta_e
323 321 317 315 313 313 312 311 309 307 306 306 306 304 304 305 305 305 304 302 299 300 301 300 303 306 304 310 312 309 308 306 307 307 308 310 312 310 308 309 309 310 310 311 312 312 312
325 321 318 316 314 314 312 310 309 307 306 305 304 304 303 302 301 301 300 298 298 297 297 298 303 307 308 310 304 309 307 307 309 313 312 313 313 312 310 309 308 309 311 311 312 312 312
325 323 319 317 314 314 312 309 308 306 306 305 304 305 303 301 299 299 297 297 296 296 298 300 306 307 309 308 306 308 308 307 306 307 309 311 312 311 312 313 313 313 312 311 311 310 311
324 323 320 317 315 314 311 309 307 305 306 304 306 304 301 299 299 297 296 296 296 299 300 306 309 309 311 304 310 310 309 309 308 308 308 308 309 308 311 311 312 312 311 311 311 310 310
324 323 320 317 314 313 309 307 305 306 304 303 304 301 300 299 298 296 295 296 299 304 306 308 310 312 313 311 311 310 308 308 309 309 309 308 308 308 308 309 311 311 311 311 311 311 311
322 323 321 317 314 311 308 305 304 305 303 303 302 300 300 299 297 295 295 298 302 305 307 310 311 313 313 311 311 312 311 312 312 310 308 308 306 306 306 307 311 311 310 309 309 309 310
321 322 320 315 311 309 306 305 305 304 303 301 300 301 299 298 296 294 297 304 307 310 311 313 314 311 311 308 308 308 307 309 311 310 310 309 307 306 306 307 309 310 310 310 310 310 310
320 321 318 312 308 306 305 306 304 302 300 300 302 300 299 297 294 295 298 304 302 302 303 309 313 311 307 308 309 310 309 306 311 310 310 310 309 309 310 310 311 311 310 309 309 309 310
321 320 313 308 307 306 306 304 302 301 302 303 300 298 297 294 295 298 302 301 301 302 304 307 307 311 309 310 311 310 306 307 310 310 311 311 311 312 311 312 313 312 312 311 310 310 310
316 310 307 307 306 304 303 302 302 302 302 300 298 296 294 294 299 302 304 301 302 305 311 311 307 310 311 311 313 312 311 309 308 309 310 310 312 313 312 314 313 313 312 313 311 312 316
305 305 304 303 303 302 302 302 303 300 299 297 295 295 294 295 300 303 301 301 302 307 316 308 309 311 312 313 310 312 310 309 309 309 310 311 311 310 312 311 312 312 311 311 312 313 313
303 302 302 302 302 302 301 300 299 298 297 297 295 294 294 299 300 302 301 302 305 316 315 311 312 310 309 309 308 311 310 310 310 310 309 309 309 309 309 311 311 312 314 314 314 313 315
302 303 303 302 301 300 300 298 298 297 296 296 296 295 294 298 303 302 301 304 316 315 308 307 309 307 305 305 306 305 310 311 311 311 311 311 310 310 310 310 311 312 314 316 314 314 315
301 301 300 300 299 299 298 297 297 296 295 295 295 293 298 299 302 302 303 308 314 308 305 305 304 304 303 304 303 303 305 304 305 306 305 305 307 308 311 311 312 312 313 316 319 318 317
300 299 298 298 297 297 297 297 296 295 294 294 294 296 300 302 299 302 304 309 307 305 303 301 302 301 302 303 303 305 306 305 305 311 313 315 313 312 313 313 313 314 313 313 316 316 316
298 298 297 297 297 297 297 296 295 294 294 294 296 301 303 300 300 303 306 309 303 301 300 301 300 302 302 302 302 301 302 303 301 307 304 309 313 313 313 313 312 312 313 314 318 323 322
298 298 297 299 298 297 297 296 295 294 294 294 297 301 300 299 302 305 308 305 300 300 301 300 301 301 301 301 301 301 301 302 302 302 301 304 312 312 311 313 313 313 314 315 317 320 321
297 297 297 297 296 295 295 295 294 294 293 294 299 304 300 302 305 307 305 302 299 300 301 301 301 301 301 302 302 302 301 302 304 303 303 307 310 308 308 307 308 312 316 316 317 318 319
297 296 297 297 295 295 295 294 295 294 294 296 300 299 298 303 306 304 301 300 301 301 301 301 302 302 302 302 301 303 303 303 304 304 306 305 306 308 305 307 311 313 314 314 318 319 322
297 297 297 297 295 295 295 293 293 293 293 296 300 302 299 301 301 304 301 301 300 300 301 301 301 302 302 302 301 302 301 303 304 303 306 304 305 306 307 307 307 311 311 311 315 320 322
296 296 296 296 295 294 293 292 292 293 294 297 300 303 302 302 300 301 302 301 302 302 301 301 301 302 302 302 301 300 302 302 302 303 303 304 304 304 304 303 304 305 309 310 312 315 319
295 296 296 296 296 295 293 292 293 292 295 299 299 301 300 301 301 301 300 299 300 300 299 301 301 301 300 300 300 300 301 301 302 302 302 303 303 304 303 304 305 305 305 308 311 315 318
296 295 295 295 296 295 294 292 292 293 298 299 298 299 300 300 299 300 299 300 299 299 299 299 299 299 299 299 299 299 298 299 300 300 300 300 300 305 303 305 307 308 308 308 313 315 315
297 296 295 295 295 295 295 292 292 294 296 297 298 299 300 300 298 300 300 299 298 299 298 298 298 298 300 298 298 298 299 300 299 299 300 300 301 304 304 305 308 306 309 310 315 313 313
297 297 296 296 295 295 294 292 292 293 294 297 298 298 298 299 300 298 298 298 298 298 297 297 299 299 298 298 300 301 300 302 302 302 303 302 303 305 306 306 307 309 311 310 313 314 308
296 297 296 296 295 295 294 292 293 293 295 297 297 298 298 298 297 298 297 297 296 298 298 301 300 299 299 297 298 303 302 302 305 305 305 304 303 303 307 308 308 311 307 304 306 314 305
295 296 296 295 294 294 293 292 292 293 295 297 297 297 298 296 297 298 298 300 298 298 297 299 299 299 299 294 293 302 303 303 305 308 305 304 305 306 307 305 309 305 302 304 311 309 301
294 294 295 295 294 294 293 293 292 292 292 297 297 296 297 295 297 298 298 297 297 297 295 297 296 297 296 297 302 296 295 301 303 309 308 306 307 308 308 308 309 300 303 305 305 300 298
293 294 294 295 293 294 293 293 292 291 291 296 297 295 295 294 296 297 297 298 298 298 296 296 297 298 296 294 296 298 302 303 306 307 305 309 308 307 305 304 301 298 298 298 298 298 297

GFSGBSN_925_thetae_090.txt.gz
Theta_e
326 326 326 325 323 320 316 314 313 312 310 308 307 306 305 305 304 305 304 302 300 298 298 298 301 305 305 309 310 301 306 307 306 305 307 309 311 310 309 307 308 310 311 311 311 311 311
319 324 325 325 324 321 318 315 313 312 310 308 306 306 304 304 304 303 301 299 297 296 296 297 304 306 306 305 301 305 308 306 310 310 311 309 312 312 310 308 306 308 307 308 309 309 309
317 318 323 323 323 321 318 316 314 312 310 307 306 305 305 304 303 300 299 298 296 296 296 299 305 306 308 305 304 309 307 307 306 309 311 311 312 309 309 311 312 312 312 310 310 310 309
312 318 320 322 323 322 321 316 314 312 309 307 305 304 305 303 300 299 298 297 295 295 299 302 307 308 308 302 302 307 309 309 308 307 306 307 307 307 308 308 308 310 310 311 311 310 310
314 313 318 320 322 322 319 316 314 311 308 306 305 305 304 301 300 299 298 295 295 297 302 308 309 309 312 310 312 310 309 309 308 308 308 308 307 306 307 307 307 309 311 311 310 309 309
320 317 316 321 321 321 318 315 311 309 307 306 304 305 301 300 299 298 296 295 300 301 306 310 310 311 310 311 311 311 311 309 307 309 307 306 304 305 303 304 308 310 311 308 307 307 309
318 318 319 318 319 321 316 313 310 307 306 305 304 302 300 300 300 298 296 300 307 308 308 311 310 311 311 308 307 308 309 309 309 309 307 307 306 305 304 304 306 308 308 308 308 307 309
318 317 318 319 319 319 314 310 308 306 305 304 302 300 300 300 298 296 298 302 303 302 303 309 312 312 310 311 309 309 308 305 306 310 309 309 308 308 307 307 307 308 308 308 308 308 308
319 318 319 318 320 316 311 307 306 305 303 301 301 302 299 297 294 294 298 302 301 301 302 303 305 311 313 311 309 310 307 305 309 310 310 309 310 310 309 309 310 310 309 309 311 310 308
317 320 319 319 314 310 307 307 304 301 301 302 302 299 296 294 296 300 302 301 301 304 303 307 308 308 311 311 311 310 306 306 306 307 308 309 310 311 311 311 310 311 311 311 311 310 311
304 307 309 309 308 308 305 303 303 303 302 301 297 296 294 294 299 301 301 301 302 307 311 309 307 309 311 312 312 311 309 308 308 308 309 310 309 309 309 310 311 311 311 311 310 311 312
305 302 302 303 303 303 303 303 302 300 298 297 296 295 295 296 297 301 301 300 305 314 312 309 311 311 312 312 309 310 310 309 308 308 307 307 308 308 308 309 309 311 313 312 312 312 315
304 303 303 302 301 301 301 299 298 298 297 296 296 295 295 296 301 302 301 303 313 316 310 310 312 311 311 309 309 312 311 310 310 311 310 309 310 309 309 308 308 310 311 314 315 313 315
302 302 302 301 301 300 299 298 297 297 296 295 295 294 293 295 301 301 303 306 316 306 305 303 303 304 304 303 303 302 305 305 310 309 307 306 307 307 310 309 309 309 311 314 319 316 312
300 300 300 299 299 298 298 298 297 296 296 293 293 295 297 299 301 301 304 310 306 304 301 301 302 301 302 303 302 305 303 303 304 302 310 308 311 308 311 309 309 312 312 311 314 313 316
299 299 298 298 298 298 297 296 295 293 293 295 297 299 301 302 300 302 305 309 300 300 301 301 302 302 302 301 301 301 302 302 302 301 301 304 304 311 308 309 310 312 313 311 311 317 319
299 298 298 298 298 298 298 297 295 294 294 295 296 300 301 298 301 303 304 303 300 300 301 301 301 301 301 301 301 301 302 303 302 302 302 304 308 306 304 310 306 306 309 314 314 316 318
298 297 299 299 298 298 297 296 295 295 293 294 297 301 300 299 304 305 302 302 301 301 302 301 301 302 303 303 302 302 302 303 303 303 304 305 307 308 304 304 304 306 313 317 319 318 316
297 297 297 297 296 297 294 295 295 294 294 297 299 298 298 302 302 301 301 301 301 302 302 302 302 303 302 302 301 303 301 302 303 302 303 303 303 304 299 302 307 308 307 308 312 315 317
297 297 297 297 297 296 294 294 293 294 293 296 299 298 297 298 300 301 301 301 301 301 301 302 303 303 302 302 301 301 302 303 302 303 306 303 303 303 303 303 304 304 303 304 309 314 315
296 297 297 297 296 294 293 293 293 293 293 297 297 300 301 300 300 300 301 302 302 301 301 301 301 302 301 302 300 300 301 301 301 302 302 302 303 303 303 303 303 304 304 304 305 307 313
296 296 296 296 296 295 294 293 293 292 296 298 298 300 299 299 300 300 300 299 301 300 301 301 300 301 299 299 299 300 299 300 300 301 300 300 301 301 299 300 302 303 304 304 305 305 309
296 296 296 297 296 295 294 293 292 296 298 297 297 297 299 298 298 299 298 300 300 299 299 298 298 298 298 299 298 297 297 298 298 299 298 298 297 300 299 302 303 304 306 305 305 310 314
295 296 295 296 296 295 294 292 293 296 297 297 297 297 297 297 297 299 300 299 299 298 297 297 297 297 299 297 297 297 297 298 298 298 298 297 298 300 303 303 305 306 308 309 312 311 311
296 297 296 296 295 295 293 293 293 296 297 297 298 297 296 297 299 298 298 297 296 297 296 297 300 298 297 297 299 300 300 300 301 300 300 299 300 303 303 305 304 305 310 307 306 308 304
297 297 297 296 295 295 293 293 293 296 297 296 297 298 296 295 296 298 296 296 295 296 297 299 299 297 298 295 296 302 300 301 304 303 303 302 301 302 305 306 304 306 302 303 304 309 303
297 297 296 296 294 295 293 293 293 295 297 296 296 297 296 292 296 297 297 296 296 294 295 297 298 297 295 290 291 299 301 302 305 304 306 303 304 304 304 305 306 301 301 301 310 305 298
295 296 295 295 294 294 293 292 292 293 296 296 295 296 296 292 295 297 297 296 295 294 293 294 294 294 294 296 297 292 293 299 303 304 306 307 307 307 307 307 307 298 300 302 302 298 295
294 295 295 294 294 293 292 292 291 291 296 296 295 295 296 292 294 296 296 297 297 296 294 293 294 296 293 292 293 294 297 299 303 307 304 305 302 304 303 301 300 297 298 297 297 297 295

GFSGBSN_925_thetae_093.txt.gz
Theta_e
310 313 319 320 323 324 325 323 322 319 315 313 312 310 309 307 306 305 305 304 302 299 298 297 301 305 304 306 306 302 304 306 306 305 305 307 309 307 306 305 306 308 308 309 310 310 310
307 308 309 315 319 321 322 323 323 319 318 314 312 310 308 306 305 305 304 302 299 298 297 296 301 305 305 300 301 302 304 306 306 305 308 307 309 310 310 309 306 306 307 306 307 307 307
307 307 308 310 314 318 320 322 321 320 317 314 313 310 307 305 304 304 303 300 298 297 296 298 303 305 305 303 301 308 310 308 307 311 310 311 311 311 308 309 310 311 311 309 310 309 308
307 308 309 309 312 316 318 320 320 319 316 314 312 309 306 305 304 303 300 299 298 296 296 301 305 307 306 303 302 304 303 305 306 306 308 307 306 306 306 307 307 309 309 311 310 309 309
308 309 311 312 315 316 317 318 319 320 317 313 311 308 306 304 305 301 300 299 296 295 298 306 308 307 307 306 311 309 309 306 308 307 306 306 306 305 306 306 307 306 309 310 309 308 308
308 312 314 316 318 317 318 318 320 319 316 312 310 307 305 305 303 300 299 297 299 302 303 308 309 307 308 310 311 311 310 307 307 307 307 306 303 304 302 305 310 308 309 308 309 307 307
309 317 316 317 317 317 317 317 320 319 315 310 308 306 305 304 302 300 299 297 306 308 306 309 309 308 307 309 308 307 309 308 308 308 306 305 304 305 304 304 306 307 308 307 306 305 307
309 310 318 317 316 317 316 318 319 316 311 309 307 305 304 302 300 299 299 300 304 302 303 307 309 307 307 309 313 307 307 307 306 309 308 307 307 307 306 305 305 306 306 306 306 307 306
311 310 319 318 316 317 318 318 317 313 309 307 305 303 301 300 299 299 298 297 301 301 299 301 307 309 310 312 314 309 305 304 306 306 309 308 309 309 308 308 308 307 307 308 308 309 308
309 312 317 319 319 318 319 317 311 308 306 304 302 302 301 298 296 297 299 295 302 302 295 300 303 308 311 310 309 308 305 305 305 306 308 309 309 309 309 310 309 309 309 309 310 309 311
306 308 309 314 317 316 313 308 306 305 303 303 302 299 297 295 298 299 301 300 304 306 302 304 306 307 310 309 310 310 306 306 305 306 306 307 309 309 309 310 309 310 310 310 311 310 311
303 305 305 304 304 304 304 304 303 302 301 300 298 297 295 295 295 300 301 301 305 310 305 308 309 309 310 310 310 309 308 308 307 306 307 307 307 308 307 308 308 309 311 311 310 311 313
304 303 302 302 302 302 301 301 301 300 298 297 297 295 294 297 300 302 302 304 308 310 306 312 312 312 312 312 312 311 310 309 309 310 309 309 308 308 308 308 308 309 309 311 312 313 314
303 303 302 302 301 301 300 299 299 298 298 297 296 294 294 297 301 302 303 307 311 303 304 302 309 311 313 304 304 306 309 308 301 308 308 308 309 309 309 310 310 308 309 312 316 316 311
302 301 301 300 300 299 299 298 298 297 298 296 293 293 296 297 300 301 303 308 307 303 301 301 303 304 303 302 302 303 302 303 301 300 309 305 310 305 308 305 308 310 310 309 312 312 314
300 300 300 300 299 299 298 298 297 296 296 294 298 299 300 299 299 302 306 309 302 301 301 303 303 303 301 301 301 302 302 301 301 300 302 303 303 307 303 307 306 305 309 311 311 320 318
299 299 299 298 298 298 297 296 295 296 295 296 298 300 301 302 300 304 305 306 301 301 301 302 301 301 302 301 301 301 303 303 302 301 303 304 304 304 301 305 304 303 307 311 314 315 318
298 298 299 298 298 298 298 297 296 295 295 296 297 300 300 299 304 304 305 303 301 301 302 302 303 303 303 302 302 302 302 303 303 302 303 303 304 306 302 302 302 303 312 312 314 315 312
298 298 299 298 298 298 297 297 295 294 294 297 298 295 299 300 304 301 300 301 302 302 302 302 302 303 302 302 302 302 302 302 302 303 301 301 302 301 298 301 303 304 303 304 306 309 312
297 297 297 297 297 297 297 296 294 294 294 296 297 295 295 298 300 301 301 301 301 301 301 302 303 302 301 302 301 301 302 302 301 303 306 302 302 302 301 300 302 303 303 303 304 304 307
297 297 297 297 297 297 296 293 293 293 294 297 297 298 299 299 300 300 300 302 302 301 300 301 301 302 301 302 300 300 300 300 300 302 302 301 302 302 302 302 300 299 300 301 303 303 305
297 297 297 296 297 295 294 293 293 293 296 298 298 298 298 299 300 299 299 301 302 301 302 301 301 299 298 299 299 299 299 298 299 299 299 298 301 299 300 297 297 300 301 302 302 303 303
296 296 297 297 296 295 294 293 293 296 298 296 297 296 297 298 298 298 298 300 300 299 299 298 298 298 298 298 297 297 297 297 297 299 298 298 296 298 299 300 301 301 303 308 303 302 305
296 296 297 297 296 295 293 293 295 297 297 297 297 296 296 297 297 299 300 299 298 298 297 296 296 297 298 297 296 297 296 296 296 297 296 297 297 296 300 300 302 303 305 305 308 308 308
296 296 296 296 295 295 293 293 295 297 297 297 297 296 297 296 297 298 298 298 296 296 296 299 299 297 296 297 298 300 299 300 300 299 298 297 298 297 298 301 302 303 305 304 305 307 303
296 297 296 295 296 293 293 293 295 297 296 297 296 298 295 296 296 297 296 296 295 295 297 298 297 296 295 293 295 301 300 301 303 303 302 299 299 300 304 299 302 301 300 301 303 307 299
297 297 297 295 295 293 293 293 294 296 296 296 295 297 294 293 296 296 296 296 295 294 295 296 297 297 293 289 290 293 300 300 304 300 306 303 302 302 302 303 303 298 299 300 307 303 296
297 297 296 294 294 293 292 293 293 296 295 295 295 296 296 292 295 296 297 295 295 294 293 293 293 292 292 295 295 290 291 299 299 298 305 305 304 305 304 306 306 297 299 300 300 296 294
295 296 295 294 294 293 292 292 291 296 296 294 295 296 295 293 295 295 296 297 296 295 292 292 293 294 292 292 292 293 295 295 298 302 302 303 301 302 300 300 299 296 296 295 296 295 293

GFSGBSN_925_thetae_096.txt.gz
Theta_e
311 310 308 307 307 309 317 321 322 322 323 323 322 319 314 311 310 309 306 306 305 303 300 298 300 304 302 301 300 302 303 305 307 308 307 303 305 303 302 303 306 308 309 309 308 308 308
310 310 308 307 307 307 308 310 321 320 321 322 321 320 315 312 310 308 307 305 304 301 299 298 302 304 304 295 301 301 302 304 304 305 304 305 306 306 308 309 306 306 306 306 306 306 306
309 308 307 307 308 308 309 309 310 321 320 320 320 319 315 312 310 307 306 304 302 300 299 299 304 305 305 299 301 304 308 308 306 305 308 306 308 310 308 307 308 309 310 308 308 309 308
308 307 307 307 308 312 313 312 312 316 319 319 319 317 314 312 309 306 305 303 301 299 298 298 305 305 304 301 302 301 301 303 307 308 310 309 309 306 305 305 306 308 308 310 309 308 309
309 307 308 309 309 314 315 315 314 317 318 319 319 318 313 311 308 305 304 302 300 299 300 301 307 307 305 304 308 305 302 303 304 306 306 306 304 303 305 305 305 306 309 309 309 308 308
308 307 307 308 308 313 315 314 313 316 319 318 319 316 312 310 306 305 303 301 300 302 302 306 308 304 305 305 309 311 310 304 305 305 305 304 303 302 302 304 307 308 308 307 308 307 306
308 307 306 308 309 312 316 316 316 316 318 318 318 314 310 308 305 304 302 301 303 305 306 307 306 303 305 308 308 306 308 306 306 306 305 304 303 304 305 304 306 307 307 307 305 304 306
307 306 306 309 311 316 316 316 316 316 317 317 316 312 309 305 305 303 301 299 303 303 303 305 306 306 305 307 310 310 307 307 307 308 305 305 305 305 304 303 304 304 305 305 304 305 305
305 306 308 310 312 318 316 315 316 316 316 317 312 308 305 305 302 300 300 298 299 302 302 302 303 306 306 307 308 312 305 305 306 308 307 307 308 307 307 307 306 306 306 306 307 307 307
305 306 309 310 316 318 317 317 317 316 318 313 308 305 304 302 299 298 299 301 299 298 301 299 302 307 307 310 311 308 305 305 305 307 307 307 307 308 308 309 307 308 307 308 308 309 310
304 305 308 310 311 316 318 318 318 315 310 307 304 303 300 299 297 299 301 299 300 302 304 301 304 305 308 309 307 309 305 304 304 305 306 308 307 308 309 309 308 309 309 309 309 309 309
304 304 305 307 308 307 307 305 304 304 303 301 300 299 298 296 297 300 301 302 305 304 303 304 306 308 311 309 310 307 305 306 304 305 306 306 306 306 307 308 307 309 310 310 308 310 311
304 303 303 303 303 303 302 302 302 301 301 301 299 298 298 296 296 301 301 303 302 303 304 309 309 309 308 309 311 309 307 307 307 307 307 307 307 307 308 308 307 308 308 310 310 312 312
304 304 303 302 302 302 302 302 301 301 300 300 298 295 295 295 299 302 303 304 302 300 300 302 306 310 312 310 306 308 307 303 299 308 307 308 307 308 308 310 311 309 308 311 314 315 311
302 302 302 301 301 300 300 299 299 299 298 297 296 295 294 298 300 301 302 305 301 303 301 302 311 311 302 302 303 302 302 301 300 300 309 309 311 305 305 304 307 310 309 309 310 311 313
301 301 301 301 300 300 299 299 298 298 298 294 295 295 298 298 300 302 303 303 302 301 302 304 310 305 301 302 302 302 302 302 301 302 302 302 302 305 303 304 304 305 307 312 311 317 316
301 300 300 300 300 299 299 298 297 297 297 294 299 299 298 300 299 302 304 304 302 302 302 303 303 303 302 302 302 302 303 303 302 302 303 303 302 303 301 303 302 300 306 311 311 314 318
300 298 298 299 299 299 298 297 296 296 297 296 296 298 301 300 302 302 303 305 302 302 302 303 304 304 304 303 303 303 303 303 302 302 303 302 305 304 301 301 303 303 311 309 310 313 310
300 298 299 299 299 298 298 297 296 296 296 296 296 297 299 299 303 304 302 302 302 303 302 303 303 303 303 302 302 303 303 302 303 302 301 300 301 299 297 301 300 303 302 304 304 305 306
299 298 299 299 299 298 297 297 297 296 295 296 295 294 296 298 300 301 300 302 302 302 302 302 303 302 302 302 301 302 302 301 301 304 304 302 301 299 297 298 302 303 302 301 301 294 298
298 298 299 298 297 297 297 297 296 294 294 296 296 294 296 296 299 299 300 302 302 301 301 301 301 302 301 300 300 300 299 299 300 301 300 300 301 302 301 301 300 300 298 296 299 300 300
298 297 298 297 297 297 296 296 294 293 295 296 295 298 297 298 300 300 300 301 302 300 301 300 300 299 299 299 299 299 298 298 298 298 298 297 300 299 300 299 297 297 298 298 300 300 301
297 298 297 297 297 296 295 293 293 294 296 296 296 296 297 297 297 298 299 301 299 299 298 299 299 298 298 298 297 297 296 297 297 298 298 297 296 297 297 299 298 297 300 306 305 306 307
297 297 297 297 296 295 294 293 295 297 297 297 296 296 296 298 297 299 300 299 298 298 297 296 297 298 298 296 296 296 295 295 296 296 296 297 296 295 298 298 295 302 304 304 304 305 302
297 297 297 297 296 295 293 294 296 297 297 297 297 296 296 296 297 298 298 297 296 297 298 299 298 297 295 297 298 299 299 299 299 297 296 296 297 296 295 299 299 302 302 301 303 303 300
296 297 297 296 296 293 293 294 296 296 296 297 297 297 294 296 296 297 296 296 295 297 297 297 296 294 294 293 295 300 300 301 302 302 298 296 298 299 301 298 298 299 299 299 301 304 297
296 296 296 296 295 293 293 294 296 296 296 296 295 296 294 293 295 296 296 296 295 295 296 295 296 296 293 289 291 291 299 299 302 299 304 300 301 300 300 300 299 297 297 298 305 300 295
296 297 295 295 293 293 293 293 296 295 295 296 295 295 295 293 295 295 296 295 295 294 294 293 292 292 292 294 294 289 290 296 297 291 303 303 302 303 302 302 301 295 297 297 297 295 294
297 297 295 294 293 293 292 292 295 296 295 295 296 295 296 293 294 295 295 295 295 294 292 292 292 294 291 291 292 292 295 290 294 300 298 298 297 299 300 297 297 295 295 293 293 293 292

GFSGBSN_925_thetae_099.txt.gz
Theta_e
311 311 311 310 309 307 307 307 307 307 312 319 320 320 321 322 317 313 311 308 306 305 303 300 300 299 301 301 299 302 306 307 307 307 306 306 306 304 305 304 307 310 310 310 310 310 310
309 309 310 309 308 307 307 307 309 310 308 311 315 319 318 320 318 313 311 308 306 304 302 300 302 303 304 296 300 300 301 303 306 308 306 304 306 305 305 307 307 308 309 310 308 309 308
308 308 307 308 308 306 307 308 307 311 314 313 314 317 319 317 318 314 310 307 305 303 301 301 302 304 304 300 300 301 305 305 306 305 305 304 307 310 310 310 309 309 310 310 310 311 311
307 308 308 308 307 305 306 307 308 311 313 314 314 315 318 316 315 313 309 307 304 303 300 297 301 305 303 301 301 301 301 302 307 305 306 308 306 309 307 307 307 309 309 311 311 310 310
306 307 308 308 307 305 306 307 308 311 314 313 313 316 317 317 316 312 309 306 304 303 301 299 305 306 305 303 305 304 303 302 302 305 307 306 306 306 305 307 308 308 309 311 311 309 310
306 307 308 308 306 305 306 308 311 313 315 313 312 317 316 316 314 311 308 305 303 301 302 305 306 306 305 307 305 308 309 303 303 305 305 306 305 306 306 307 310 309 310 310 311 308 308
305 306 308 306 304 306 309 309 312 315 315 315 313 316 316 314 311 310 305 303 304 304 305 307 307 307 304 306 307 307 307 304 305 305 307 305 307 307 307 307 307 309 309 309 309 307 306
305 306 306 304 307 309 310 314 316 316 315 315 314 317 316 312 309 308 305 303 305 304 307 305 305 306 307 306 307 306 307 308 307 305 305 305 308 307 306 305 306 307 307 307 307 306 307
304 304 303 305 308 310 313 318 317 315 315 315 316 316 314 308 305 303 301 301 302 301 303 304 305 306 307 306 308 308 307 307 307 309 307 307 309 307 306 305 306 306 307 309 310 309 309
303 303 304 306 308 310 311 318 316 316 316 316 317 315 308 303 303 301 300 301 300 298 304 308 303 304 307 307 308 308 307 308 306 310 308 309 309 307 308 308 308 309 308 309 310 310 313
302 303 305 306 308 310 311 315 317 317 316 316 313 306 303 302 298 299 300 299 301 298 313 304 302 304 306 309 308 309 309 305 311 307 310 312 309 310 310 310 309 310 310 310 310 311 311
302 304 304 305 307 308 309 309 309 308 306 305 302 300 299 298 299 299 299 299 301 304 310 303 306 308 307 308 307 307 309 306 306 307 306 308 306 308 309 309 309 309 310 311 310 312 313
304 304 303 304 303 303 303 303 302 301 300 300 300 300 301 300 299 299 300 302 304 307 304 306 308 310 310 309 306 309 307 307 307 307 307 307 307 307 307 308 308 309 310 310 312 314 311
302 305 303 303 303 303 302 302 302 302 302 301 300 299 298 299 300 301 301 305 305 302 299 301 303 309 309 307 308 308 308 305 301 308 307 308 308 308 306 310 311 309 310 310 311 313 312
301 302 303 303 302 301 301 301 301 301 300 298 295 295 296 299 299 301 302 304 305 304 303 303 312 310 304 304 304 304 303 302 300 302 310 310 310 307 305 304 308 310 311 310 312 312 312
301 302 302 301 300 300 300 300 299 299 298 297 294 295 295 298 300 301 303 304 302 301 301 304 309 308 307 303 304 304 304 302 302 303 303 303 305 305 304 306 303 309 309 316 315 313 311
302 301 300 301 300 300 299 299 299 298 297 295 297 298 297 298 301 302 303 303 303 302 302 305 306 306 303 303 305 304 303 303 303 303 303 304 304 303 302 303 301 301 305 313 313 315 316
303 301 300 300 300 300 299 298 297 298 297 296 296 299 299 299 301 302 302 302 302 302 303 304 305 305 303 303 303 305 304 303 303 302 303 303 304 302 302 302 302 305 310 310 309 311 311
302 301 300 299 299 300 298 297 297 298 296 296 299 300 299 299 301 301 302 301 302 303 304 306 305 304 302 302 302 302 301 301 303 302 302 301 301 299 301 303 302 303 303 302 303 305 305
302 299 300 298 299 299 298 297 297 297 296 296 294 299 297 299 299 302 302 302 302 301 302 304 305 303 302 301 301 302 300 300 302 305 304 302 301 299 299 302 302 302 302 301 301 305 303
302 298 299 299 299 299 298 297 297 297 296 296 296 296 297 298 299 300 300 303 302 302 301 301 302 302 302 301 300 300 299 299 300 301 300 302 301 302 301 301 301 301 300 299 298 298 299
300 298 298 300 298 297 297 297 296 296 297 296 296 299 297 298 299 299 300 302 301 300 301 301 301 300 300 299 300 299 299 299 299 299 299 299 303 300 300 300 300 299 299 297 298 298 300
298 298 299 298 298 297 296 296 296 296 296 297 295 295 298 298 298 299 300 302 300 299 298 300 299 299 299 298 298 298 297 298 298 299 299 299 300 298 296 299 298 297 299 298 303 304 305
297 298 298 298 297 296 296 295 294 295 297 298 296 296 298 299 298 299 300 299 299 298 298 297 298 299 298 296 297 297 297 296 297 297 297 298 298 298 297 298 295 303 302 303 302 303 302
297 298 298 297 296 296 295 293 295 297 297 297 296 296 297 299 298 298 299 299 299 299 299 299 298 297 296 298 299 299 300 300 299 299 298 298 299 299 299 300 299 303 301 300 301 302 297
297 298 297 297 296 295 293 294 297 297 296 296 297 297 295 299 297 297 297 298 298 298 298 298 297 295 296 297 299 300 301 301 302 302 297 297 299 299 301 301 301 299 298 298 299 303 295
296 297 297 297 296 293 293 295 296 296 296 296 296 296 295 297 296 296 297 298 296 297 297 296 297 297 295 296 297 299 300 300 302 302 303 300 299 300 301 302 302 297 296 297 303 299 294
296 296 296 296 294 293 294 295 296 295 295 295 295 295 295 296 295 296 296 296 296 296 298 295 295 295 296 297 297 296 299 300 300 295 303 303 302 301 301 302 302 295 296 297 295 294 292
296 295 295 294 293 293 293 294 296 295 295 295 295 295 295 295 295 294 294 294 294 294 294 293 294 295 295 296 296 296 299 298 298 303 299 301 299 301 300 299 296 294 293 292 292 291 291

GFSGBSN_925_thetae_102.txt.gz
Theta_e
310 310 310 310 310 310 309 307 307 307 307 307 308 312 314 319 319 320 318 313 310 307 305 303 300 299 302 306 310 309 306 305 307 311 309 311 310 311 310 310 311 311 311 311 311 311 311
309 309 309 309 307 308 310 308 306 306 307 308 307 311 314 314 318 318 317 313 310 307 305 301 300 299 304 311 311 302 307 311 310 309 309 309 309 309 309 308 309 311 311 312 313 313 313
308 307 307 307 307 307 309 308 306 305 306 308 311 312 313 315 313 318 316 314 310 307 304 302 301 303 306 312 309 304 304 305 308 308 309 307 307 308 309 310 310 311 311 312 313 312 312
307 307 307 307 307 308 308 307 304 305 306 311 312 313 313 314 314 318 316 313 311 307 305 303 299 305 310 308 307 306 305 304 307 308 307 307 307 310 311 311 310 311 313 314 315 314 313
306 306 306 306 306 307 308 305 305 306 309 313 314 313 313 313 315 317 315 312 310 307 304 303 302 305 311 307 307 308 307 306 305 308 307 308 309 310 312 312 313 313 315 316 315 314 314
306 306 305 305 306 307 305 305 307 308 312 313 313 313 313 312 315 316 314 310 306 304 303 304 304 309 310 314 309 307 310 307 306 306 309 309 309 311 312 312 315 316 315 315 315 314 312
306 305 306 307 307 304 304 307 309 311 313 314 314 314 314 312 316 311 310 305 305 305 305 313 313 313 314 310 307 309 309 307 305 306 310 308 308 312 312 312 312 312 313 314 314 313 311
303 304 306 306 305 304 305 308 311 314 316 316 315 315 313 315 314 313 310 307 310 309 315 310 311 312 311 309 311 310 308 308 304 307 308 309 311 312 311 310 310 311 312 312 312 311 309
302 304 303 303 303 304 308 308 310 315 317 315 315 315 313 315 313 307 307 306 303 305 309 314 312 312 313 311 313 315 310 311 309 307 305 310 312 309 309 309 309 310 310 311 309 312 312
302 302 302 303 304 306 308 308 310 317 316 315 315 314 314 307 305 303 302 301 301 306 312 314 310 310 310 310 313 312 310 312 311 314 309 308 307 307 309 309 309 310 309 309 310 313 314
302 301 302 303 304 306 307 309 310 317 316 316 316 316 312 312 303 303 303 302 301 302 318 311 308 306 308 312 311 312 312 309 313 312 310 313 310 310 310 310 309 310 310 311 312 314 315
302 301 303 304 305 305 305 309 309 313 316 316 310 305 303 301 300 300 301 301 302 314 317 311 306 307 309 310 310 310 313 309 310 313 312 313 311 311 311 311 311 310 311 312 313 314 316
302 301 303 304 304 303 302 305 305 301 300 301 300 300 301 300 300 298 300 302 309 317 308 311 310 310 309 309 309 310 314 310 312 316 316 313 312 309 310 311 311 311 311 314 314 314 314
302 301 303 304 303 303 303 302 303 303 302 302 302 302 301 301 299 300 302 306 314 311 309 304 305 308 311 310 309 310 315 314 312 310 310 311 311 309 309 310 310 312 311 313 315 313 313
300 302 303 303 303 303 303 303 302 301 302 302 301 299 299 299 300 301 305 311 313 308 306 306 306 311 312 309 308 309 311 313 309 308 310 311 310 308 308 308 311 311 313 312 312 313 314
300 301 302 303 302 302 301 301 301 300 299 298 298 299 298 299 300 301 308 309 306 303 303 304 308 310 314 308 309 309 309 306 305 305 306 308 310 308 306 307 307 313 312 315 315 314 313
300 300 302 302 300 300 300 300 300 299 296 295 298 302 297 298 300 303 308 306 304 303 303 306 308 309 308 306 308 310 308 305 304 303 306 306 307 308 305 307 307 308 312 315 315 315 314
298 300 302 301 301 300 300 300 300 299 297 298 301 303 299 299 303 305 305 303 302 303 303 305 307 307 307 306 310 308 307 306 305 305 306 305 305 305 305 306 304 304 308 309 311 310 313
298 299 299 301 301 300 300 299 299 298 297 298 302 300 298 299 306 305 303 303 303 303 304 306 306 306 304 306 305 309 307 304 304 304 304 303 304 306 305 305 304 305 306 305 306 306 308
298 298 299 301 301 300 299 299 298 298 296 299 301 302 301 301 302 304 303 303 303 303 304 305 306 305 304 304 304 305 304 302 305 305 304 302 302 302 303 305 305 305 304 303 304 308 305
298 298 298 300 299 300 299 297 297 299 296 298 300 302 301 303 303 303 303 303 304 303 304 303 305 306 308 304 303 303 302 303 302 302 303 303 301 301 301 301 301 302 302 301 301 301 301
296 297 297 298 299 299 299 298 297 297 297 298 303 301 300 300 301 303 303 303 303 303 304 303 305 303 304 305 303 302 301 302 302 301 302 301 303 301 300 300 300 300 300 300 300 300 299
296 298 297 298 299 299 298 297 297 297 296 299 300 300 301 301 301 303 303 303 303 302 302 303 303 302 302 300 300 300 300 300 301 301 300 300 302 300 297 298 298 298 300 300 300 301 304
300 299 297 299 299 298 297 297 297 297 296 300 299 300 303 303 300 303 302 303 302 302 302 300 300 301 299 299 300 299 299 299 299 299 299 299 299 299 298 299 302 305 304 304 304 304 304
297 298 299 299 298 297 296 296 296 296 297 298 299 300 302 303 300 302 302 302 301 301 301 300 300 299 300 300 301 301 302 302 302 301 298 299 300 303 305 304 302 304 302 302 303 304 298
298 298 299 298 297 296 296 294 296 295 296 298 298 298 300 303 301 300 301 301 301 301 301 300 299 299 300 301 302 301 301 302 304 303 302 300 300 303 303 305 304 305 300 299 300 304 296
298 298 298 296 296 295 294 293 296 297 298 298 297 297 299 303 299 299 301 301 301 300 301 300 300 300 300 303 304 304 303 302 305 305 304 303 302 303 304 305 305 299 299 298 304 302 294
298 297 296 296 295 294 294 296 296 297 296 296 297 296 299 300 299 299 298 300 300 300 301 300 300 299 300 302 302 302 304 304 304 303 305 304 304 304 303 305 307 297 299 302 297 295 293
296 296 296 295 294 294 295 296 296 295 295 295 297 295 296 300 298 296 295 295 297 298 299 298 299 299 299 300 300 302 304 304 304 305 302 305 303 305 303 302 297 295 294 293 293 294 292

GFSGBSN_925_thetae_105.txt.gz
Theta_e
310 310 310 310 310 310 310 310 310 308 306 306 306 307 307 308 314 318 319 319 318 313 309 307 305 302 307 315 318 319 312 307 308 312 312 314 315 316 317 318 318 318 318 317 316 315 315
308 309 309 308 308 308 309 309 309 308 307 305 305 306 307 310 312 316 315 318 316 313 309 306 303 302 308 319 319 318 310 312 311 312 313 314 315 316 316 315 315 316 316 316 316 316 315
308 308 308 307 307 307 307 307 309 308 307 304 305 306 309 311 311 314 316 316 317 313 309 305 303 305 310 317 318 316 310 312 315 314 316 315 314 314 314 315 315 315 314 316 315 316 317
307 307 307 307 306 306 306 307 309 308 305 305 307 312 312 312 312 313 317 314 316 313 308 305 305 305 314 315 315 316 316 311 310 312 313 313 312 312 312 314 315 316 317 318 319 318 317
306 307 307 307 306 306 305 307 307 305 305 307 310 312 312 313 313 313 316 315 314 310 306 305 306 310 317 312 313 313 313 314 313 311 311 312 310 313 313 314 316 319 319 320 321 320 318
305 306 307 306 306 305 307 306 304 305 307 309 310 312 312 313 313 313 316 312 307 306 305 305 307 311 313 316 316 312 312 312 313 313 312 313 312 315 315 316 321 322 322 322 320 321 317
306 306 306 306 306 307 307 305 305 306 307 310 312 314 313 314 313 314 309 307 307 307 306 316 316 315 316 316 312 312 314 313 312 311 312 313 315 317 318 319 318 319 320 322 320 320 318
305 305 305 307 307 305 304 305 304 306 307 309 315 315 314 315 313 312 312 311 315 313 317 312 314 315 314 315 316 315 313 313 314 314 314 314 315 316 317 315 316 317 318 319 319 318 316
303 302 304 305 304 302 304 304 305 305 307 310 316 316 316 315 313 311 310 313 308 310 314 315 315 316 316 314 316 316 315 314 314 314 314 315 316 313 314 315 316 317 317 316 317 317 316
303 302 302 302 301 302 303 303 305 306 309 315 317 315 316 314 308 310 309 305 307 311 315 315 315 314 314 314 316 314 314 316 315 315 314 314 314 314 313 314 314 316 314 313 315 315 314
304 302 302 302 301 303 303 304 306 308 310 317 315 315 315 313 306 307 304 303 307 309 320 311 314 310 312 315 314 314 314 315 316 315 314 316 313 313 314 314 311 315 312 313 315 312 314
302 302 302 302 301 303 304 305 306 309 312 316 316 315 311 307 307 307 304 305 307 315 316 313 311 309 311 314 314 312 313 315 313 314 314 316 314 314 313 310 310 312 314 313 314 314 317
302 301 301 302 303 304 304 304 305 308 311 314 311 307 305 304 304 304 303 307 311 318 313 315 311 311 311 313 313 312 314 316 316 317 317 316 315 313 312 314 312 313 316 317 318 319 322
300 301 301 302 303 304 303 302 302 303 302 301 301 301 301 302 302 301 304 309 316 315 315 310 310 311 313 313 313 312 313 316 313 315 318 321 321 315 312 312 316 314 315 316 319 317 316
300 300 300 301 302 304 304 303 303 302 302 302 303 300 300 300 301 302 306 314 317 316 313 311 309 311 313 312 313 312 312 316 314 314 317 315 314 311 310 311 311 316 316 312 315 315 317
301 301 299 300 302 304 303 303 303 302 303 302 301 300 300 300 302 303 308 314 314 310 308 307 310 313 314 314 313 311 311 313 315 314 312 313 315 311 310 309 310 312 314 314 315 320 316
300 301 300 300 301 304 303 303 302 301 300 301 303 304 299 300 301 303 313 312 310 308 306 307 309 313 312 313 311 311 313 309 312 308 308 310 311 311 309 310 310 311 318 316 317 317 318
299 299 298 299 299 304 302 301 301 299 296 298 303 308 298 300 303 305 309 308 304 307 306 307 308 310 310 311 310 314 313 310 307 307 310 311 311 313 310 308 307 308 310 312 318 315 317
298 299 299 299 299 299 301 301 300 300 297 302 305 302 298 300 308 307 306 307 305 306 306 307 308 308 308 310 310 314 310 307 308 309 310 308 310 310 309 308 307 307 308 309 309 310 309
297 298 299 299 299 301 300 300 300 300 299 299 303 306 300 299 303 307 306 306 306 305 306 307 309 308 308 309 308 312 311 308 306 306 304 305 307 309 309 308 308 307 306 306 307 311 308
296 297 298 298 298 298 301 300 299 298 298 298 304 306 304 305 305 306 307 306 306 306 305 306 309 308 309 309 308 309 308 306 305 304 304 305 306 305 303 303 303 305 305 305 304 304 304
296 297 297 297 297 296 301 300 299 299 298 298 305 304 304 304 304 304 306 307 306 306 305 307 307 307 309 309 307 306 306 306 304 303 304 303 305 304 303 302 302 301 301 301 302 302 302
297 297 297 297 298 298 300 299 298 298 298 298 301 303 304 304 305 306 307 305 306 306 305 306 306 306 308 306 304 305 304 304 304 304 304 303 305 302 301 300 300 300 302 302 301 301 302
297 297 297 297 298 297 300 298 296 297 297 300 302 303 304 305 304 304 304 305 305 306 305 304 305 304 303 302 302 302 302 302 302 302 302 301 302 301 301 301 300 306 305 305 306 305 306
296 296 296 298 298 299 299 297 297 296 297 299 300 302 304 307 302 304 305 304 305 304 306 303 303 303 302 302 302 302 301 301 301 300 299 300 301 304 306 304 305 305 304 304 304 306 300
296 296 300 299 298 300 298 297 297 296 297 298 299 301 303 306 303 304 304 304 305 304 303 303 302 302 302 302 303 302 303 302 304 303 302 301 303 306 305 307 305 308 302 302 302 306 298
296 299 299 298 297 297 296 296 296 295 296 297 298 300 301 306 302 303 304 304 304 304 304 303 302 302 302 304 306 305 304 303 305 305 305 304 304 306 306 306 306 302 301 301 306 303 296
297 298 299 298 297 296 295 295 295 294 296 298 298 299 301 303 301 302 302 302 303 303 304 303 302 301 301 303 304 304 306 305 306 307 306 305 305 305 305 307 309 300 301 302 298 296 294
299 298 296 295 296 295 294 294 295 296 297 297 300 298 298 302 301 299 299 299 300 301 302 302 303 301 303 304 303 304 306 306 306 306 305 307 306 309 305 305 297 297 295 294 295 295 293

GFSGBSN_925_thetae_111.txt.gz
Theta_e
311 311 311 310 310 310 310 310 309 309 308 309 309 307 306 304 304 305 306 308 311 315 315 316 315 313 311 311 316 317 318 319 317 312 309 311 315 315 315 316 316 317 317 318 317 316 315
309 309 309 309 309 309 308 308 306 307 307 307 309 308 305 305 306 308 309 310 310 315 316 315 313 311 307 313 312 313 317 318 317 312 311 313 315 315 316 317 317 317 318 318 317 316 316
308 308 308 307 307 307 307 307 306 305 304 305 307 305 305 306 308 309 310 312 312 313 316 313 312 307 308 312 311 310 315 316 316 315 313 315 316 315 316 318 317 316 315 315 315 315 315
306 307 307 307 307 307 307 307 306 305 305 306 305 305 306 307 309 310 310 312 311 312 316 313 310 306 310 312 312 313 314 314 315 316 314 314 314 313 315 314 315 315 314 316 315 316 317
306 306 306 306 306 306 307 304 305 306 307 304 304 305 306 308 310 310 311 311 312 313 313 312 308 307 312 312 313 314 314 316 316 316 317 314 313 314 314 314 315 315 317 316 317 316 318
306 306 307 307 306 307 305 304 306 307 305 303 304 304 306 307 310 312 311 312 312 310 309 307 307 311 311 312 315 316 316 316 316 316 317 315 312 312 313 314 318 315 316 316 316 315 318
306 306 306 306 306 306 307 308 307 303 302 303 303 304 304 307 313 313 311 310 309 309 307 311 312 314 314 315 313 315 314 314 315 316 316 315 314 314 314 315 315 315 315 315 315 316 318
306 305 306 305 306 306 307 307 305 302 302 303 303 303 305 309 314 312 311 310 312 312 314 308 312 312 311 312 314 314 314 313 314 314 313 314 315 314 314 314 314 313 314 315 315 315 316
306 306 305 305 305 305 306 306 303 301 302 302 302 303 306 311 314 311 311 311 312 313 313 313 312 314 315 314 315 313 313 313 314 314 314 314 314 314 313 313 313 313 315 314 314 314 315
304 303 304 305 304 303 302 302 302 301 302 302 302 303 307 314 311 311 311 312 313 312 311 314 313 314 315 314 316 314 314 314 314 315 314 314 313 315 315 315 313 315 313 316 317 318 320
303 303 301 302 303 302 302 300 302 301 302 302 303 304 308 314 312 311 311 312 312 312 314 310 311 314 314 315 315 315 314 314 315 315 315 316 315 314 317 316 314 316 315 315 315 316 317
302 303 302 302 303 303 302 301 301 302 302 303 304 307 310 313 311 311 311 312 311 315 315 311 313 314 314 315 315 314 314 313 314 315 314 315 314 316 316 315 314 314 314 314 314 317 319
302 302 301 302 302 302 302 301 301 303 302 303 305 309 314 313 309 311 311 311 314 315 311 308 312 314 314 315 315 315 314 313 315 317 317 317 316 315 316 316 313 313 313 316 314 319 316
301 301 301 300 301 302 301 301 301 303 303 303 308 314 309 310 311 310 310 312 315 312 311 310 311 312 313 312 312 315 314 314 313 315 315 317 316 315 315 315 314 313 312 314 318 318 321
301 301 301 301 302 301 300 300 302 303 303 304 305 304 305 306 308 308 311 315 314 313 311 311 310 310 311 312 311 312 314 314 313 314 316 316 315 315 314 314 314 316 315 312 316 314 315
300 300 301 299 301 300 299 300 301 303 303 303 302 301 302 305 304 307 312 313 313 312 312 315 316 314 313 311 312 313 316 314 314 314 313 316 318 315 315 314 313 314 313 316 316 318 319
299 297 299 300 299 299 299 299 300 303 302 303 302 303 301 303 305 304 311 311 313 312 312 315 316 315 314 314 313 316 318 316 313 314 314 315 315 314 314 316 314 314 315 317 317 319 320
298 298 298 299 299 299 298 299 299 302 303 302 302 304 301 302 304 302 308 309 311 312 312 314 312 313 313 313 313 313 317 316 311 313 317 315 314 314 313 313 313 312 313 314 317 318 318
298 297 298 298 299 299 299 299 299 301 303 300 302 300 300 301 305 305 305 308 310 312 314 312 309 310 309 311 313 312 313 312 309 311 317 315 314 315 312 312 312 311 311 315 315 315 315
297 297 297 298 298 298 299 299 299 298 300 301 300 301 299 297 299 305 306 308 311 310 310 311 309 308 310 311 311 311 314 310 309 309 308 309 312 311 312 313 312 310 309 310 312 310 310
295 296 296 297 296 298 299 298 298 298 299 300 301 303 299 300 301 304 307 308 308 311 308 308 309 309 310 310 310 309 311 312 308 305 306 309 309 309 310 311 307 306 307 308 309 308 307
296 296 296 296 296 296 297 297 296 298 301 297 299 303 304 302 301 302 304 311 309 309 310 307 309 309 309 309 309 310 312 311 308 305 308 307 309 308 309 308 305 304 303 302 303 303 303
295 295 295 295 296 297 297 296 297 298 299 293 297 301 302 302 304 303 302 305 308 308 308 307 307 308 310 309 308 306 308 309 307 305 305 305 306 307 308 307 305 301 306 306 307 306 307
295 295 296 296 296 297 297 297 298 298 299 298 300 301 304 304 304 304 305 304 307 308 309 309 308 308 308 305 304 305 307 307 305 306 306 306 305 305 307 301 303 306 305 306 306 303 303
293 294 295 296 296 296 297 298 298 298 298 298 301 301 303 303 305 305 306 305 305 306 308 309 308 307 305 303 303 302 301 302 303 304 305 304 304 303 305 306 307 306 305 302 301 302 299
296 297 297 296 296 296 297 297 298 298 298 299 299 299 300 303 302 305 305 306 307 307 306 305 306 304 302 301 301 306 305 303 303 302 302 301 303 303 305 306 304 303 304 302 302 300 296
297 297 297 297 297 298 298 297 298 299 300 299 298 299 300 301 300 304 306 306 307 305 305 303 303 302 302 300 303 305 307 304 304 305 302 302 303 305 305 305 305 304 303 303 300 298 294
296 296 296 297 297 297 297 298 297 300 300 299 298 298 300 299 299 303 303 304 306 305 304 301 300 300 301 303 306 306 308 307 307 304 303 304 304 304 304 304 305 298 301 302 295 294 293
296 296 296 296 295 296 297 297 297 299 299 298 298 298 300 297 300 300 300 300 302 304 301 301 302 301 302 303 302 304 307 304 306 308 306 303 301 303 302 301 297 296 296 296 296 293 292

GFSGBSN_925_thetae_114.txt.gz
Theta_e
312 312 312 311 311 310 310 310 310 307 308 307 307 308 307 306 304 304 305 306 308 308 313 314 314 314 313 311 314 312 313 316 316 316 310 310 313 314 315 314 315 316 316 316 316 316 315
311 310 310 309 309 309 309 308 307 306 306 305 305 308 307 304 305 306 307 309 311 311 313 314 313 312 309 313 310 310 313 314 315 314 311 310 313 314 315 316 316 315 316 314 313 313 313
309 309 308 308 308 308 307 307 306 306 305 304 305 306 304 305 306 308 311 309 311 311 312 313 313 309 308 312 309 310 311 311 313 314 311 313 313 314 314 315 315 315 315 314 314 313 314
309 307 307 307 307 307 307 307 307 305 304 306 305 304 304 305 307 309 309 310 310 311 312 314 311 306 310 310 311 311 311 312 313 314 314 315 315 312 313 313 313 314 313 315 313 314 314
308 307 306 306 306 306 306 307 305 304 306 306 303 303 304 305 307 309 310 310 310 311 312 313 309 307 312 310 311 312 312 312 315 315 315 315 313 312 313 314 313 313 314 315 315 314 314
307 307 306 305 305 305 306 306 304 306 307 303 302 303 303 304 306 310 311 310 310 311 310 308 308 309 309 311 312 314 314 313 314 315 316 313 310 311 311 312 315 314 314 312 313 312 314
307 307 307 306 305 305 305 307 306 306 304 301 302 303 303 304 307 311 311 310 309 309 307 309 310 312 311 312 313 315 315 315 314 314 316 314 314 313 312 312 314 314 314 314 313 311 313
306 306 307 306 306 306 306 306 305 305 303 301 302 302 302 305 309 312 311 308 310 311 312 308 310 310 310 310 312 312 313 314 313 315 314 315 316 315 313 312 314 315 315 314 312 312 313
307 307 306 306 306 305 305 306 305 304 302 301 302 302 302 307 310 311 311 311 311 312 311 313 311 310 312 311 312 312 311 311 313 313 313 315 314 313 313 313 314 313 314 313 312 314 312
304 304 305 306 306 305 304 303 301 300 302 301 302 302 303 308 309 310 310 310 311 312 306 311 314 313 313 314 315 312 312 312 312 314 313 313 313 313 313 314 313 314 314 315 316 315 316
305 304 303 303 302 302 303 303 302 300 301 301 302 302 304 309 310 311 311 311 312 311 298 307 313 312 314 314 313 315 312 312 313 313 313 314 314 313 314 314 314 315 314 314 315 315 314
304 304 303 303 302 302 302 303 302 301 300 301 302 302 306 307 310 311 311 311 311 313 305 310 312 315 316 314 315 313 314 312 312 314 313 313 313 313 314 314 313 313 313 313 313 314 312
303 303 302 301 302 302 302 301 302 301 301 302 302 304 307 309 309 311 311 310 314 311 308 309 312 315 315 315 315 313 313 314 314 316 316 315 315 314 314 316 313 312 312 317 310 315 314
302 302 301 301 301 300 300 302 301 301 301 302 303 307 310 309 311 311 311 312 314 311 309 309 311 312 314 315 315 315 313 312 311 313 314 316 316 315 314 315 315 312 312 314 315 316 315
301 301 300 299 299 300 300 301 301 300 302 303 304 306 307 309 311 310 311 313 311 310 310 310 309 309 309 313 312 314 313 313 312 312 315 315 315 313 314 314 312 313 312 311 315 313 311
301 300 300 299 299 299 301 301 300 300 302 303 303 303 303 308 307 309 312 312 311 310 310 311 315 313 313 309 310 311 313 314 313 312 312 314 316 313 314 313 313 313 311 315 313 315 318
299 299 300 300 299 299 301 300 300 300 302 302 302 301 302 305 306 308 310 310 310 309 310 313 313 315 314 313 312 315 315 315 313 314 312 313 315 314 315 315 315 314 315 316 314 314 317
297 299 299 298 298 298 299 299 299 300 302 302 302 304 301 304 305 302 309 309 309 311 311 311 313 314 313 312 312 312 317 315 310 310 315 315 315 317 313 314 312 313 314 316 313 313 314
298 298 298 299 298 298 298 298 298 299 301 302 302 301 300 301 306 305 305 309 309 311 311 312 313 312 310 310 313 312 313 312 310 312 316 314 315 317 315 313 311 312 311 313 313 314 315
297 298 298 297 298 299 299 298 298 298 300 301 298 300 299 298 300 304 305 307 309 308 310 312 312 311 309 310 310 311 313 311 309 309 312 314 315 315 315 313 311 310 310 313 314 313 310
297 297 297 297 297 298 298 298 297 298 298 301 297 301 299 301 300 303 304 305 306 309 310 308 312 309 308 309 310 311 312 310 307 310 308 308 310 310 310 311 310 309 304 308 312 310 309
296 296 295 295 295 297 297 297 297 296 297 299 298 301 300 299 300 302 304 309 306 307 308 310 310 308 308 308 308 307 310 310 308 303 307 307 309 309 311 310 306 304 303 302 302 306 309
296 296 296 295 296 297 297 297 296 296 297 296 296 299 302 303 300 302 302 303 305 306 307 307 307 308 310 308 307 305 307 307 307 305 305 306 307 310 313 310 309 307 303 307 306 305 307
295 295 296 296 296 296 296 296 296 296 297 297 297 300 302 303 304 303 302 302 303 304 307 307 308 308 306 304 304 304 305 306 304 304 304 304 306 307 308 308 311 306 306 307 304 301 303
294 295 295 295 296 296 296 296 296 297 296 298 299 300 301 300 303 304 304 304 302 302 305 308 308 306 303 303 304 305 304 305 306 306 305 304 306 308 306 306 306 305 305 304 303 301 298
292 292 293 294 295 295 296 296 296 297 297 298 298 300 300 302 301 303 305 304 303 301 305 307 306 305 302 300 303 306 304 303 304 304 305 305 304 304 305 305 306 302 303 302 300 299 295
292 295 295 295 295 295 295 296 296 297 298 298 298 298 299 301 300 301 304 302 304 305 303 304 305 301 301 300 299 303 306 303 304 304 303 302 302 303 306 304 305 303 303 302 299 298 294
296 296 297 297 296 296 296 295 296 297 298 298 298 299 299 299 300 298 301 304 305 302 302 302 302 302 299 301 303 302 303 304 303 301 303 302 304 305 304 303 305 297 301 302 293 292 291
296 296 296 296 297 296 297 297 298 298 298 298 297 298 299 296 300 298 298 300 303 303 301 300 301 300 300 300 301 303 305 307 305 307 305 302 299 301 301 298 296 295 294 293 292 291 291

GFSGBSN_925_thetae_117.txt.gz
Theta_e
314 314 313 313 313 312 311 310 310 310 308 308 307 307 308 307 305 304 305 306 307 308 308 311 313 311 313 311 312 312 311 312 312 314 311 310 313 314 314 314 314 315 315 315 313 312 312
312 312 312 311 311 310 310 310 309 308 306 306 304 305 307 306 304 305 306 309 308 310 311 313 313 312 311 312 309 309 311 313 313 315 311 309 313 313 314 315 315 314 314 312 312 312 312
311 310 310 309 308 308 308 308 307 306 305 304 304 305 304 304 304 306 309 309 308 310 310 312 312 310 308 310 309 310 310 310 310 312 310 311 312 313 313 313 313 313 314 313 313 312 313
310 310 309 308 308 307 307 307 307 307 305 304 306 304 303 304 305 307 309 309 309 309 310 311 311 308 310 310 309 310 309 311 311 312 312 314 314 312 312 312 312 313 312 314 312 313 312
307 308 308 307 307 307 307 306 307 305 304 307 305 302 303 304 305 307 309 309 309 310 310 312 309 308 310 309 309 311 312 311 312 313 313 314 313 311 312 313 312 312 314 313 313 312 312
306 307 308 307 306 306 305 305 306 304 305 306 302 302 303 303 304 308 309 309 309 309 310 309 308 308 307 308 309 313 313 311 313 314 314 313 309 311 310 311 313 313 313 312 313 311 310
306 307 307 306 305 305 306 306 306 305 306 304 301 302 302 303 305 308 309 309 308 308 307 309 309 309 310 310 311 314 314 312 314 314 316 311 311 312 313 311 312 313 313 313 311 310 312
306 305 307 306 305 305 305 305 305 305 306 303 301 301 302 303 306 308 310 307 307 310 311 307 309 308 309 309 310 311 314 314 314 315 314 315 315 313 312 311 312 313 314 314 313 312 310
305 305 305 306 306 306 306 306 304 304 304 302 301 301 302 303 308 310 310 309 311 311 310 311 309 310 310 310 310 310 311 312 313 314 314 316 315 314 314 314 314 313 314 314 313 313 312
307 306 306 306 306 306 306 304 303 303 302 301 301 301 302 304 308 309 310 309 310 311 305 308 313 312 311 311 313 309 310 311 312 314 312 313 313 313 313 314 313 314 311 313 315 313 313
303 306 305 304 305 306 306 305 303 303 301 300 301 301 302 306 307 309 309 309 311 309 298 307 313 311 312 314 312 313 310 311 312 312 311 313 313 312 313 313 311 313 313 314 314 313 313
304 304 304 303 303 302 303 302 302 303 302 301 300 301 302 305 308 309 309 310 311 302 297 307 314 315 315 314 313 313 311 311 310 312 312 310 312 311 311 312 312 312 313 311 311 311 310
304 304 303 304 304 302 302 301 302 302 302 301 300 302 302 305 306 308 311 311 311 303 304 307 313 315 316 315 314 313 314 312 314 315 314 313 313 313 313 314 312 311 315 321 315 313 314
302 302 304 304 303 302 301 301 302 301 301 300 301 302 304 305 307 307 310 312 310 308 307 308 311 315 315 314 314 314 313 314 311 312 313 316 314 315 314 315 315 311 313 316 316 314 313
303 303 303 303 302 301 301 300 300 301 301 301 302 303 306 307 307 309 310 312 308 308 309 309 306 308 310 313 313 314 312 314 313 311 313 315 315 311 313 312 312 312 312 310 315 313 311
302 302 302 302 301 299 298 299 300 300 301 301 303 303 304 308 307 309 311 311 309 307 309 310 309 309 308 307 312 312 312 312 312 311 311 313 315 313 313 312 311 311 310 313 312 315 316
300 300 300 300 300 299 298 298 300 301 300 302 302 303 302 307 307 309 310 309 308 308 309 309 310 312 313 313 310 310 311 313 312 312 311 311 313 313 314 315 314 313 313 313 311 310 314
299 299 299 299 298 298 298 298 301 300 300 302 302 305 301 305 307 304 308 308 308 309 308 309 312 312 312 312 312 311 314 314 310 312 313 313 315 317 315 312 312 313 314 313 309 311 314
299 299 298 298 298 298 298 298 300 300 301 302 302 302 300 301 307 305 305 308 308 308 308 310 310 311 311 311 312 311 311 310 309 312 313 313 314 315 315 313 312 315 313 314 312 312 315
299 298 298 298 299 299 298 297 299 299 300 301 299 301 298 299 301 304 305 308 309 308 309 310 311 310 310 310 310 311 312 311 309 310 314 313 313 313 313 312 311 314 314 313 314 314 313
298 298 298 298 298 299 298 296 297 298 299 301 299 300 299 300 301 304 304 305 306 309 308 309 309 310 310 310 309 311 311 309 306 313 311 310 312 311 312 312 312 312 313 313 313 312 312
297 297 296 298 298 297 298 298 297 297 297 300 297 300 300 299 300 303 303 305 305 305 307 310 309 309 310 310 309 308 310 309 308 307 307 306 308 309 310 311 311 311 307 302 309 311 311
296 297 297 297 296 296 295 296 297 296 297 298 297 298 300 300 299 302 302 303 303 304 304 305 307 308 309 308 307 307 306 307 308 306 305 307 308 310 312 311 314 314 307 304 306 305 308
296 296 296 296 296 296 296 296 296 295 297 296 297 297 299 300 301 301 301 301 302 302 305 306 305 306 306 306 305 305 304 304 305 304 305 305 307 308 310 309 313 307 305 307 305 303 303
294 294 295 296 296 296 296 296 296 295 295 296 297 298 300 301 300 302 302 301 301 301 302 302 303 306 304 305 306 307 305 307 306 305 304 304 304 308 306 309 306 305 304 302 304 303 299
294 294 294 295 296 296 296 295 296 296 297 296 296 297 298 300 301 302 303 302 302 304 302 301 305 305 305 303 305 307 306 306 307 306 305 305 304 306 306 306 307 300 303 302 298 298 296
293 293 293 293 294 295 296 296 296 296 297 297 297 297 299 300 298 301 302 302 303 303 303 303 306 305 302 303 303 303 304 303 305 306 307 307 305 306 305 305 302 302 302 301 297 298 294
292 293 292 293 293 293 294 295 295 296 295 296 297 297 298 297 299 299 300 301 303 302 301 301 303 302 301 304 306 303 301 301 302 297 303 304 305 304 303 303 302 299 301 301 294 292 290
295 296 296 295 295 294 293 295 295 295 295 297 298 297 298 297 298 298 298 298 299 301 298 299 301 301 301 303 301 303 305 300 301 303 302 299 299 300 302 299 296 295 294 291 291 291 288

GFSGBSN_925_thetae_120.txt.gz
Theta_e
318 318 318 317 316 315 314 313 312 311 311 310 309 308 307 308 307 304 304 305 305 307 308 309 311 312 311 310 310 311 310 311 312 313 312 310 312 313 314 314 313 315 314 313 312 311 311
315 314 314 314 314 313 312 311 310 310 309 307 306 305 305 307 305 304 305 306 307 307 309 312 312 311 310 310 308 309 310 312 312 314 312 309 312 312 314 314 314 313 313 311 311 312 311
313 312 312 312 312 310 310 309 309 309 307 305 305 304 305 304 304 305 307 307 307 309 309 310 311 310 307 309 308 310 310 310 309 310 310 311 311 313 312 313 312 312 313 311 312 311 312
311 311 311 310 310 308 308 308 308 307 306 306 304 306 304 303 304 306 308 308 308 308 309 310 311 309 308 308 309 307 308 309 308 310 311 313 313 311 312 311 311 313 311 313 310 310 311
310 310 310 309 309 308 307 307 307 307 306 304 306 304 303 303 304 306 308 309 309 309 309 309 310 308 308 307 307 309 310 310 311 310 311 313 312 312 311 311 311 310 311 313 311 309 310
309 309 308 307 307 308 307 307 307 306 305 305 306 302 303 303 303 306 308 309 309 308 308 308 308 307 305 306 309 312 312 312 313 312 313 313 308 310 308 310 311 311 313 311 311 309 308
307 306 306 307 308 307 306 305 305 306 304 306 304 302 302 302 303 307 309 308 306 306 308 307 307 307 308 309 310 312 312 311 313 313 314 310 312 313 314 310 310 311 310 311 309 309 311
307 306 305 306 306 306 306 306 306 306 305 306 303 301 302 302 305 308 309 306 305 309 309 306 307 307 308 308 309 308 312 314 313 315 312 312 313 312 311 310 312 312 313 313 311 311 311
307 306 305 305 305 305 305 305 305 304 304 305 303 301 302 302 307 307 308 308 310 310 309 309 308 308 308 308 308 308 311 312 313 314 314 314 314 313 313 312 313 312 313 313 313 311 310
307 306 306 305 305 305 305 305 304 304 304 303 302 301 301 303 305 307 307 308 310 310 301 305 312 311 310 309 311 308 310 310 311 314 312 314 313 313 314 315 313 315 312 312 312 313 312
305 305 306 305 306 306 306 305 304 303 302 300 300 301 301 305 306 308 308 308 310 307 296 306 312 310 310 310 311 312 309 311 311 312 311 312 312 312 312 312 311 312 311 312 312 312 312
305 305 304 306 306 306 306 306 305 304 303 302 301 300 301 303 306 307 308 309 309 297 294 309 312 313 313 313 313 311 310 310 309 311 311 310 310 309 311 311 310 311 312 311 310 309 314
303 305 304 304 305 305 304 305 305 303 302 302 302 301 302 304 304 305 309 311 308 300 301 307 315 315 314 314 313 313 311 311 311 313 313 312 311 311 312 313 311 312 314 316 313 313 315
303 303 304 304 304 304 304 303 303 301 301 302 302 302 302 302 303 305 309 312 309 302 303 306 313 314 315 313 312 312 311 310 309 311 311 313 312 311 312 312 313 310 313 318 318 313 311
301 303 302 303 304 304 304 302 302 301 302 302 302 302 302 302 303 306 309 311 305 306 308 306 304 310 313 313 311 313 312 311 310 309 312 312 314 312 313 311 312 313 316 312 316 313 314
299 302 302 302 302 304 304 302 301 301 301 302 302 302 303 304 306 307 308 308 308 306 308 309 304 304 305 308 313 312 312 311 312 310 309 311 314 312 312 311 310 311 309 314 314 317 316
298 300 301 302 302 302 303 302 301 300 299 301 302 302 302 305 306 307 308 306 306 307 307 307 309 311 312 312 310 310 312 311 311 310 310 310 312 313 313 314 313 312 312 312 312 313 313
298 298 297 301 302 302 300 299 299 299 300 301 301 303 301 305 307 305 307 306 306 306 307 307 310 310 310 311 312 312 312 311 310 310 311 310 312 314 314 312 311 313 313 313 315 312 311
298 298 297 301 300 300 299 299 298 298 301 301 301 301 300 302 306 306 305 307 306 307 307 308 308 310 311 311 312 310 310 310 309 312 312 313 313 316 311 311 311 314 313 312 312 312 315
297 297 297 300 300 299 298 298 297 299 301 301 299 301 299 301 303 304 306 307 308 307 307 308 309 308 309 309 309 310 311 311 309 310 313 312 312 312 312 310 310 313 313 314 315 316 314
297 296 299 298 298 298 298 297 297 298 300 301 300 301 299 301 303 304 305 305 306 307 308 308 310 309 309 310 309 309 309 310 307 309 312 310 313 312 311 311 312 311 312 313 316 315 315
295 297 295 298 299 298 298 296 296 298 299 301 298 300 300 299 301 304 303 304 305 305 306 308 308 308 308 309 308 308 308 308 309 309 309 307 309 309 310 310 312 312 311 310 312 314 313
296 295 298 298 299 299 299 298 296 297 298 296 295 298 296 297 299 303 303 303 303 304 304 304 305 308 308 307 306 306 306 306 308 308 305 307 308 309 311 309 309 313 310 308 306 305 309
294 296 295 297 298 298 298 297 296 296 297 295 296 297 299 299 299 301 301 301 302 302 303 304 303 304 304 303 304 303 304 304 306 306 305 307 307 309 311 310 313 306 302 306 304 305 304
294 293 296 296 297 297 297 297 295 295 296 297 297 297 299 298 299 301 301 300 300 300 302 302 302 303 303 305 308 308 307 306 307 306 306 304 305 309 309 309 307 304 304 301 302 302 300
294 294 295 296 296 296 296 296 295 295 296 296 296 297 298 296 296 299 300 300 300 299 299 300 300 302 302 305 306 307 306 309 309 308 305 304 305 308 306 304 305 299 302 302 300 301 297
293 294 294 295 295 296 296 295 295 295 295 296 295 296 297 299 297 299 301 302 299 299 297 301 303 304 302 303 304 307 307 305 308 308 307 307 306 307 305 305 302 300 301 299 300 300 297
293 294 293 293 294 295 296 296 295 295 296 296 295 296 296 297 297 298 300 301 302 300 300 302 304 302 302 304 305 304 303 303 304 300 305 306 306 305 305 305 302 300 301 301 296 292 292
293 293 293 293 293 294 294 295 296 296 296 296 295 296 296 297 298 298 299 299 299 300 298 300 300 299 299 302 303 304 306 300 300 302 301 304 298 298 300 298 294 295 295 292 292 290 287